[[{"header":{"parameterUnit":"m.s-1","parameterCategory":1,"la1":30.6,"la2":29.2853,"lo1":-89.7004,"lo2":-87.6739,"dy":0.0162,"dx":0.0183,"nx":112,"ny":82,"refTime":"2024-10-03T06:00:00:Z","depth":0,"parameterNumber":2,"parameterNumberName":"U-component_of_WINDS"},"data":[0.0,0.0,0.0,0.0,0.0,0.0,0.0,0.0,0.0,0.0,0.0,0.0,0.0,0.0,0.0,0.0,0.0,0.0,0.0,0.0,0.0,0.0,0.0,0.0,0.0,0.0,0.0,0.0,0.0,0.0,0.0,0.0,0.0,0.0,0.0,0.0,0.0,0.0,0.0,0.0,0.0,0.0,0.0,0.0,0.0,0.0,0.0,0.0,0.0,0.0,0.0,0.0,0.0,0.0,0.0,0.0,0.0,0.0,0.0,0.0,0.0,0.0,0.0,0.0,0.0,0.0,0.0,0.0,0.0,0.0,0.0,0.0,0.0,0.0,0.0,0.0,0.0,0.0,0.0,0.0,0.0,0.0,0.0,0.0,0.0,0.0,0.0,0.0,0.0,0.0,0.0,3.4208,3.5702,3.6385,3.5775,3.5725,3.4924,3.3018,0.0,0.0,0.0,0.0,0.0,0.0,0.0,0.0,0.0,0.0,0.0,0.0,0.0,0.0,0.0,0.0,0.0,0.0,0.0,0.0,0.0,0.0,0.0,0.0,0.0,0.0,0.0,0.0,0.0,0.0,0.0,0.0,0.0,0.0,0.0,0.0,0.0,0.0,0.0,0.0,0.0,0.0,0.0,0.0,0.0,0.0,0.0,0.0,0.0,0.0,0.0,0.0,0.0,0.0,0.0,0.0,0.0,0.0,0.0,0.0,0.0,0.0,0.0,0.0,0.0,0.0,0.0,0.0,0.0,0.0,0.0,0.0,0.0,0.0,0.0,0.0,0.0,0.0,0.0,0.0,0.0,0.0,0.0,0.0,0.0,0.0,0.0,0.0,0.0,0.0,0.0,0.0,0.0,0.0,0.0,0.0,0.0,0.0,0.0,0.0,0.0,0.0,0.0,0.0,3.339,3.4516,3.5724,3.6026,3.4972,3.4896,3.4319,3.2971,0.0,0.0,0.0,0.0,0.0,0.0,0.0,0.0,0.0,0.0,0.0,0.0,0.0,0.0,0.0,0.0,0.0,0.0,0.0,0.0,0.0,0.0,0.0,0.0,0.0,0.0,0.0,0.0,0.0,0.0,0.0,0.0,0.0,0.0,0.0,0.0,0.0,0.0,0.0,0.0,0.0,0.0,0.0,0.0,0.0,0.0,0.0,0.0,0.0,0.0,0.0,0.0,0.0,0.0,0.0,0.0,0.0,0.0,0.0,0.0,0.0,0.0,0.0,0.0,0.0,0.0,0.0,0.0,0.0,0.0,0.0,0.0,0.0,0.0,0.0,0.0,0.0,0.0,0.0,0.0,0.0,0.0,0.0,0.0,0.0,0.0,0.0,0.0,0.0,0.0,0.0,0.0,0.0,0.0,0.0,0.0,0.0,0.0,0.0,0.0,0.0,0.0,0.0,3.3658,3.3994,3.5027,3.5581,3.5479,3.4374,3.4274,3.3745,3.2485,3.1564,0.0,0.0,0.0,0.0,0.0,0.0,0.0,0.0,0.0,0.0,0.0,0.0,0.0,0.0,0.0,0.0,0.0,0.0,0.0,0.0,0.0,0.0,0.0,0.0,0.0,0.0,0.0,0.0,0.0,0.0,0.0,0.0,0.0,0.0,0.0,0.0,0.0,0.0,0.0,0.0,0.0,0.0,0.0,0.0,0.0,0.0,0.0,0.0,0.0,0.0,0.0,0.0,0.0,0.0,0.0,0.0,0.0,0.0,0.0,0.0,0.0,0.0,0.0,0.0,0.0,0.0,0.0,0.0,0.0,0.0,0.0,0.0,0.0,0.0,0.0,0.0,0.0,0.0,0.0,0.0,0.0,0.0,0.0,0.0,0.0,0.0,0.0,0.0,0.0,0.0,0.0,0.0,0.0,0.0,0.0,0.0,0.0,0.0,0.0,0.0,0.0,0.0,3.4588,3.4707,3.5255,3.5307,3.4879,3.3796,3.3571,3.3013,3.1877,3.0618,0.0,0.0,0.0,0.0,0.0,0.0,0.0,0.0,0.0,0.0,0.0,0.0,0.0,0.0,0.0,0.0,0.0,0.0,0.0,0.0,0.0,0.0,0.0,0.0,0.0,0.0,0.0,0.0,0.0,0.0,0.0,0.0,0.0,0.0,0.0,0.0,0.0,0.0,0.0,0.0,0.0,0.0,0.0,0.0,0.0,0.0,0.0,0.0,0.0,0.0,0.0,0.0,0.0,0.0,0.0,0.0,0.0,0.0,0.0,0.0,0.0,0.0,0.0,0.0,0.0,0.0,0.0,0.0,0.0,0.0,0.0,0.0,0.0,0.0,0.0,0.0,0.0,0.0,0.0,0.0,0.0,0.0,0.0,0.0,0.0,0.0,0.0,0.0,0.0,0.0,0.0,0.0,0.0,0.0,0.0,0.0,0.0,0.0,0.0,0.0,0.0,0.0,3.4746,3.523,3.4803,3.4753,3.4301,3.3241,3.2641,3.2028,3.1315,2.9646,0.0,0.0,0.0,0.0,0.0,0.0,0.0,0.0,0.0,0.0,0.0,0.0,0.0,0.0,0.0,0.0,0.0,0.0,0.0,0.0,0.0,0.0,0.0,0.0,0.0,0.0,0.0,0.0,0.0,0.0,0.0,0.0,0.0,0.0,0.0,0.0,0.0,0.0,0.0,0.0,0.0,0.0,0.0,0.0,0.0,0.0,0.0,0.0,0.0,0.0,0.0,0.0,0.0,0.0,0.0,0.0,0.0,0.0,0.0,0.0,0.0,0.0,0.0,0.0,0.0,0.0,0.0,0.0,0.0,0.0,0.0,0.0,0.0,0.0,0.0,0.0,0.0,0.0,0.0,0.0,0.0,0.0,0.0,0.0,0.0,0.0,0.0,0.0,0.0,0.0,0.0,0.0,0.0,0.0,0.0,0.0,0.0,0.0,0.0,0.0,0.0,0.0,3.4578,3.5065,0.0,3.4703,3.4274,3.319,3.2541,3.1866,3.1055,0.0,0.0,0.0,0.0,0.0,0.0,0.0,0.0,0.0,0.0,0.0,0.0,0.0,0.0,0.0,0.0,0.0,0.0,0.0,0.0,0.0,0.0,0.0,0.0,0.0,0.0,0.0,0.0,0.0,0.0,0.0,0.0,0.0,0.0,0.0,0.0,0.0,0.0,0.0,0.0,0.0,0.0,0.0,0.0,0.0,0.0,0.0,0.0,0.0,0.0,0.0,0.0,0.0,0.0,0.0,0.0,0.0,0.0,0.0,0.0,0.0,0.0,0.0,0.0,0.0,0.0,0.0,0.0,0.0,0.0,0.0,0.0,0.0,0.0,0.0,0.0,0.0,0.0,0.0,0.0,0.0,0.0,0.0,0.0,0.0,0.0,0.0,0.0,0.0,0.0,0.0,0.0,0.0,0.0,0.0,0.0,0.0,0.0,0.0,0.0,0.0,0.0,3.3522,3.4505,3.5113,0.0,3.4803,3.4327,3.3442,3.2491,3.1568,3.0657,0.0,0.0,0.0,0.0,0.0,0.0,0.0,0.0,0.0,0.0,0.0,0.0,0.0,0.0,0.0,0.0,0.0,0.0,0.0,0.0,0.0,0.0,0.0,0.0,0.0,0.0,0.0,0.0,0.0,0.0,0.0,0.0,0.0,0.0,0.0,0.0,0.0,0.0,0.0,0.0,0.0,0.0,0.0,0.0,0.0,0.0,0.0,0.0,0.0,0.0,0.0,0.0,0.0,0.0,0.0,0.0,0.0,0.0,0.0,0.0,0.0,0.0,0.0,0.0,0.0,0.0,0.0,0.0,0.0,0.0,0.0,0.0,0.0,0.0,0.0,0.0,0.0,0.0,0.0,0.0,0.0,0.0,0.0,0.0,0.0,0.0,0.0,0.0,0.0,0.0,0.0,0.0,0.0,0.0,0.0,0.0,0.0,0.0,0.0,0.0,0.0,0.0,3.3411,3.4637,3.5508,3.5508,3.5029,3.4477,3.3947,3.2365,3.1014,0.0,0.0,0.0,0.0,0.0,0.0,0.0,0.0,0.0,0.0,0.0,0.0,0.0,0.0,0.0,0.0,0.0,0.0,0.0,0.0,0.0,0.0,0.0,0.0,0.0,0.0,0.0,0.0,0.0,0.0,0.0,0.0,0.0,0.0,0.0,0.0,0.0,0.0,0.0,0.0,0.0,0.0,0.0,0.0,0.0,0.0,0.0,0.0,0.0,0.0,0.0,0.0,0.0,0.0,0.0,0.0,0.0,0.0,0.0,0.0,0.0,0.0,0.0,0.0,0.0,0.0,0.0,0.0,0.0,0.0,0.0,0.0,0.0,0.0,0.0,0.0,0.0,0.0,0.0,0.0,0.0,0.0,0.0,0.0,0.0,0.0,0.0,0.0,0.0,0.0,0.0,0.0,0.0,0.0,0.0,0.0,0.0,0.0,0.0,0.0,0.0,0.0,0.0,3.3973,3.5567,3.6558,3.6157,3.5606,3.4904,3.3972,3.2717,3.1356,2.9957,0.0,0.0,0.0,0.0,0.0,0.0,0.0,0.0,0.0,0.0,0.0,0.0,0.0,0.0,0.0,0.0,0.0,0.0,0.0,0.0,0.0,0.0,0.0,0.0,0.0,0.0,0.0,0.0,0.0,0.0,0.0,0.0,0.0,0.0,0.0,0.0,0.0,0.0,0.0,0.0,0.0,0.0,0.0,0.0,0.0,0.0,0.0,0.0,0.0,0.0,0.0,0.0,0.0,0.0,0.0,0.0,0.0,0.0,0.0,0.0,0.0,0.0,0.0,0.0,0.0,0.0,0.0,0.0,0.0,0.0,0.0,0.0,0.0,0.0,0.0,0.0,0.0,0.0,0.0,0.0,0.0,0.0,0.0,0.0,0.0,0.0,0.0,0.0,0.0,0.0,0.0,0.0,0.0,0.0,0.0,0.0,0.0,0.0,0.0,0.0,0.0,0.0,3.4044,3.5923,3.7085,3.6758,3.6383,3.5732,3.4628,3.3498,3.219,3.0532,0.0,0.0,0.0,0.0,0.0,0.0,0.0,0.0,0.0,0.0,0.0,0.0,0.0,0.0,0.0,0.0,0.0,0.0,0.0,0.0,0.0,0.0,0.0,0.0,0.0,0.0,0.0,0.0,0.0,0.0,0.0,0.0,0.0,0.0,0.0,0.0,0.0,0.0,0.0,0.0,0.0,0.0,0.0,0.0,0.0,0.0,0.0,0.0,0.0,0.0,0.0,0.0,0.0,0.0,0.0,0.0,0.0,0.0,0.0,0.0,0.0,0.0,0.0,0.0,0.0,0.0,0.0,0.0,0.0,0.0,0.0,0.0,0.0,0.0,0.0,0.0,0.0,0.0,0.0,0.0,0.0,0.0,0.0,0.0,0.0,0.0,0.0,0.0,0.0,0.0,0.0,0.0,0.0,0.0,0.0,0.0,0.0,0.0,0.0,0.0,0.0,0.0,3.3972,3.5931,3.7286,3.7286,3.7235,3.6734,3.5583,3.4502,3.3194,3.1562,0.0,0.0,0.0,0.0,0.0,0.0,0.0,0.0,0.0,0.0,0.0,0.0,0.0,0.0,0.0,0.0,0.0,0.0,0.0,0.0,0.0,0.0,0.0,0.0,0.0,0.0,0.0,0.0,0.0,0.0,0.0,0.0,0.0,0.0,0.0,0.0,0.0,0.0,0.0,0.0,0.0,0.0,0.0,0.0,0.0,0.0,0.0,0.0,0.0,0.0,0.0,0.0,0.0,0.0,0.0,0.0,0.0,0.0,0.0,0.0,3.4349,0.0,0.0,0.0,0.0,0.0,0.0,0.0,0.0,0.0,0.0,0.0,0.0,0.0,0.0,0.0,0.0,0.0,0.0,0.0,0.0,0.0,0.0,0.0,0.0,0.0,0.0,0.0,0.0,0.0,0.0,0.0,0.0,0.0,0.0,0.0,0.0,0.0,0.0,0.0,0.0,0.0,3.5082,3.671,3.7839,3.7839,3.7437,3.6734,3.5583,3.4502,3.337,3.2114,3.0507,0.0,0.0,0.0,0.0,0.0,0.0,0.0,0.0,0.0,0.0,0.0,0.0,0.0,0.0,0.0,0.0,0.0,0.0,0.0,0.0,0.0,0.0,0.0,0.0,0.0,0.0,0.0,0.0,0.0,0.0,0.0,0.0,0.0,0.0,0.0,0.0,0.0,0.0,0.0,0.0,0.0,0.0,0.0,0.0,0.0,0.0,0.0,0.0,0.0,0.0,0.0,0.0,0.0,0.0,0.0,0.0,0.0,0.0,0.0,0.0,3.5803,0.0,0.0,0.0,0.0,0.0,0.0,0.0,0.0,0.0,0.0,0.0,0.0,0.0,0.0,0.0,0.0,0.0,0.0,0.0,0.0,0.0,0.0,0.0,0.0,0.0,0.0,0.0,0.0,0.0,0.0,0.0,0.0,0.0,0.0,0.0,0.0,0.0,0.0,0.0,0.0,3.5382,3.6961,3.8015,3.8015,3.7739,3.7136,3.6031,3.5155,3.4301,3.3448,3.1863,0.0,0.0,0.0,0.0,0.0,0.0,0.0,0.0,0.0,0.0,0.0,0.0,0.0,0.0,0.0,0.0,0.0,0.0,0.0,0.0,0.0,0.0,0.0,0.0,0.0,0.0,0.0,0.0,0.0,0.0,0.0,0.0,0.0,0.0,0.0,0.0,0.0,0.0,0.0,0.0,0.0,0.0,0.0,0.0,0.0,0.0,0.0,0.0,0.0,0.0,0.0,0.0,0.0,3.7815,3.7935,3.7705,3.8738,3.9255,3.9306,3.8414,3.8442,3.9044,3.7939,0.0,0.0,0.0,0.0,0.0,0.0,0.0,0.0,0.0,0.0,0.0,0.0,0.0,0.0,0.0,0.0,0.0,0.0,0.0,0.0,0.0,0.0,0.0,0.0,3.9748,3.9471,0.0,0.0,0.0,0.0,0.0,0.0,0.0,0.0,0.0,0.0,0.0,0.0,3.5656,3.7162,3.8115,3.8015,3.8015,3.7563,3.6505,3.5832,3.5307,3.4879,3.3373,3.2315,0.0,0.0,0.0,0.0,0.0,0.0,0.0,0.0,0.0,0.0,0.0,0.0,0.0,0.0,0.0,0.0,0.0,0.0,0.0,0.0,0.0,0.0,0.0,0.0,0.0,0.0,0.0,0.0,0.0,0.0,0.0,0.0,3.8038,3.7258,0.0,0.0,0.0,0.0,0.0,0.0,0.0,0.0,0.0,0.0,0.0,0.0,0.0,3.7858,3.8476,3.8942,3.9187,3.9234,3.9775,3.9994,3.9991,4.0605,4.1145,4.1563,4.145,0.0,3.9885,3.9018,0.0,0.0,0.0,0.0,0.0,0.0,0.0,0.0,0.0,0.0,0.0,0.0,0.0,0.0,0.0,0.0,0.0,0.0,0.0,0.0,0.0,0.0,4.2208,4.1227,4.143,4.1632,0.0,3.8592,3.6708,3.608,3.5175,0.0,0.0,0.0,0.0,0.0,0.0,0.0,3.6835,3.8039,3.8592,3.8065,3.8015,3.7563,3.6505,3.5832,3.5458,3.5382,3.4301,3.3646,3.3571,3.2989,0.0,0.0,0.0,0.0,0.0,0.0,0.0,0.0,0.0,0.0,0.0,0.0,0.0,0.0,0.0,0.0,0.0,0.0,0.0,0.0,0.0,0.0,0.0,0.0,0.0,0.0,0.0,0.0,0.0,3.7487,3.9044,3.824,3.8869,3.8668,0.0,0.0,0.0,0.0,0.0,0.0,0.0,0.0,0.0,3.8544,3.9058,3.9425,3.9697,3.9942,4.0278,4.0724,4.0968,4.1298,4.1739,4.1982,4.2224,4.2448,4.2277,4.2083,4.1706,4.031,3.9428,3.8858,0.0,0.0,0.0,0.0,3.8965,3.9239,3.9679,4.0172,4.0445,3.9577,0.0,0.0,0.0,0.0,0.0,0.0,0.0,0.0,0.0,0.0,4.221,4.2033,4.2323,4.2587,4.2308,4.1053,3.9572,0.0,3.7411,3.6483,3.4653,0.0,0.0,0.0,0.0,3.6408,3.7513,3.8391,3.8793,3.8542,3.8191,3.7688,3.6909,3.6331,3.6006,3.6006,3.523,3.4929,3.5301,3.4449,3.3482,0.0,0.0,0.0,0.0,0.0,0.0,0.0,0.0,0.0,0.0,0.0,0.0,0.0,0.0,0.0,0.0,0.0,0.0,0.0,0.0,0.0,0.0,0.0,0.0,0.0,0.0,0.0,0.0,3.8492,3.9744,3.9068,3.9667,3.929,0.0,0.0,0.0,0.0,0.0,0.0,3.871,3.9736,4.0297,4.0215,4.0727,4.0947,4.0801,4.0947,4.1249,4.1706,4.1851,4.2219,4.2789,4.2934,4.2982,4.2958,4.2786,4.2821,4.2971,4.1324,4.0458,4.019,3.9837,3.9694,3.9768,4.0217,4.0467,4.0636,4.1136,4.1397,4.1373,4.051,4.004,3.9574,3.8319,0.0,0.0,0.0,0.0,4.0517,4.1062,4.1508,4.1905,4.2298,4.265,4.2849,4.2849,4.2632,4.1858,0.0,3.9396,3.8391,3.6157,0.0,0.0,0.0,0.0,3.716,3.8115,3.8743,3.8994,3.8693,3.8266,3.7789,3.7261,3.6708,3.6455,3.6582,3.6182,3.6016,3.6152,3.5484,3.445,3.3078,0.0,0.0,0.0,0.0,0.0,0.0,0.0,0.0,0.0,0.0,0.0,0.0,0.0,0.0,0.0,0.0,0.0,0.0,0.0,0.0,0.0,0.0,0.0,0.0,0.0,0.0,0.0,0.0,0.0,3.9409,4.0434,0.0,0.0,0.0,0.0,3.938,3.9942,4.0397,4.0637,4.1679,4.2142,4.1909,4.2415,4.241,4.1904,4.241,4.2434,4.2,4.2506,4.2771,4.2813,4.3265,4.3481,4.3481,4.3433,4.3198,4.2729,4.1683,4.1492,4.1833,4.1292,4.1099,4.1096,4.1148,4.1468,4.1861,4.1447,4.1643,4.2061,4.1987,4.1247,4.0335,4.0261,3.9893,0.0,0.0,4.0758,4.1376,4.1917,4.2065,4.2089,4.2114,4.234,4.2513,4.2513,4.274,4.2788,0.0,4.0753,3.9446,3.8793,0.0,3.711,3.7085,3.7563,3.814,3.8768,3.9346,3.9245,3.8165,3.8015,3.7789,3.7261,3.6708,3.6607,3.7135,3.7135,3.6626,3.5594,3.5978,3.5186,3.2957,3.2001,0.0,0.0,0.0,0.0,0.0,0.0,0.0,0.0,0.0,0.0,0.0,0.0,0.0,0.0,0.0,0.0,0.0,0.0,0.0,0.0,0.0,0.0,0.0,0.0,0.0,0.0,0.0,0.0,4.0084,4.1032,0.0,3.994,3.9973,4.0184,4.0379,4.1015,4.1455,4.1562,4.2547,4.2927,4.2525,4.3006,4.3,4.2525,4.2693,4.2862,4.2976,4.3144,4.3433,4.3763,4.3931,4.4027,4.4003,4.3643,4.3601,4.3673,4.2659,4.2171,4.2001,4.198,4.2159,4.2452,4.2115,4.209,4.2159,4.1476,4.1371,4.1541,4.1541,4.1245,4.093,4.093,4.0897,4.0919,4.1114,4.131,4.1557,4.1728,4.1777,4.1777,4.1777,4.2029,4.2227,4.2227,4.2481,4.2603,4.2432,4.1823,4.0803,3.917,3.8843,3.8542,3.7814,3.8215,3.8793,3.932,3.9572,3.9546,3.9145,3.8793,3.8517,3.8316,3.7462,3.6695,3.6211,3.5844,3.5306,3.4569,3.4705,3.4127,3.2612,3.1945,3.039,0.0,0.0,0.0,0.0,0.0,0.0,0.0,0.0,0.0,0.0,0.0,0.0,0.0,0.0,0.0,0.0,0.0,0.0,0.0,0.0,0.0,0.0,0.0,0.0,0.0,3.9541,4.0788,4.0569,4.1557,4.194,4.1034,4.1254,4.1483,4.1483,4.2131,4.2525,4.2525,4.3313,4.3649,4.3313,4.3625,4.3553,4.3054,4.3223,4.3361,4.3505,4.3667,4.3955,4.4285,4.4285,4.4285,4.4292,4.3931,4.3859,4.3979,4.3313,4.2837,4.2525,4.2708,4.2888,4.3009,4.2675,4.2409,4.2161,4.1451,4.1201,4.1201,4.1201,4.1201,4.1201,4.1201,4.1316,4.1463,4.1463,4.1463,4.1463,4.1463,4.1463,4.1463,4.1463,4.1716,4.1915,4.1915,4.2171,4.2369,4.2369,4.2285,4.1658,3.9998,3.9848,3.9647,3.8718,3.8894,3.9296,3.9647,3.9697,3.9622,3.9446,3.912,3.8818,3.8617,3.7738,3.6749,3.5668,3.5257,3.4567,3.3475,3.3449,3.2956,3.1835,3.121,3.0142,2.8603,0.0,0.0,0.0,0.0,0.0,0.0,0.0,0.0,0.0,0.0,0.0,0.0,0.0,0.0,0.0,0.0,0.0,0.0,0.0,0.0,0.0,0.0,0.0,3.8076,3.9675,4.0821,4.0873,4.2026,4.2621,4.2116,4.2525,4.2837,4.2837,4.3265,4.3529,4.3529,4.4027,4.4285,4.4285,4.4285,4.4051,4.3553,4.4051,4.4051,4.3553,4.4051,4.4285,4.4285,4.4254,4.4254,4.4254,4.4254,4.3942,4.3468,4.3499,4.3529,4.3529,4.3505,4.3192,4.2813,4.2765,4.2428,4.1899,4.1394,4.1201,4.1201,4.1201,4.1201,4.1201,4.1201,4.1201,4.1201,4.1201,4.1201,4.1201,4.1201,4.1201,4.1201,4.1201,4.1402,4.1606,4.1606,4.1859,4.2082,4.2082,4.2143,4.2007,4.1401,4.0849,4.0324,3.9798,3.9697,0.0,3.9697,3.9697,3.9496,3.8969,3.8919,3.8668,3.8066,3.7489,3.6701,3.5593,3.547,3.4495,3.2333,3.2306,3.1851,3.0719,2.9823,2.9575,2.9989,0.0,0.0,0.0,0.0,0.0,0.0,0.0,0.0,0.0,0.0,0.0,0.0,0.0,0.0,0.0,0.0,0.0,0.0,0.0,0.0,0.0,3.8185,3.9596,3.9986,4.0804,4.1735,4.2667,4.3084,4.3409,4.3643,4.3787,4.3883,4.3883,4.4003,4.41,4.41,4.4244,4.4285,4.4285,4.4285,4.4244,4.41,4.4244,4.4244,4.41,4.4244,4.4285,4.4285,4.3295,4.2831,4.2831,4.2831,4.2793,4.2716,4.3674,4.41,4.4003,4.3265,4.3126,4.3216,4.2501,4.1875,4.1418,4.1249,4.1201,4.1201,4.1201,4.1201,4.1201,4.1201,4.1201,4.1201,4.1201,4.1201,4.1201,4.1201,4.1201,4.1201,4.1201,4.1258,4.1316,4.1316,4.1545,4.172,4.172,4.1963,4.1945,4.1401,4.102,4.0607,4.0061,3.9818,0.0,3.9697,3.9697,3.9647,3.9497,3.9471,3.9062,3.8037,3.7109,3.5793,3.3914,3.3109,3.2244,3.119,3.1258,3.121,3.0984,3.0686,3.0295,0.0,0.0,0.0,0.0,0.0,0.0,0.0,0.0,0.0,0.0,0.0,0.0,0.0,0.0,0.0,0.0,0.0,0.0,0.0,0.0,0.0,0.0,3.9452,4.0821,4.1813,4.2006,4.2431,4.3385,4.3691,4.4051,4.4604,4.4436,4.4381,4.4628,4.4436,4.4412,4.4628,4.4436,4.4381,4.4652,4.4436,4.4285,4.4285,4.4285,4.4285,4.4285,4.4285,4.4285,4.4285,4.3483,4.3114,4.3114,4.3114,4.3114,4.32,4.3982,4.4285,0.0,0.0,0.0,0.0,0.0,4.1466,4.1201,4.1201,4.1201,4.1201,4.1201,4.1201,4.1201,4.1201,4.1201,4.1201,4.1201,4.1201,4.1201,4.1201,4.1201,4.1201,4.1201,4.1201,4.1201,4.1201,4.1316,4.1406,4.1406,4.1602,0.0,4.1326,4.1148,4.0861,4.0202,3.9857,3.9662,3.9696,3.962,3.9594,3.9697,3.9258,3.8561,3.7637,3.6595,0.0,0.0,0.0,3.1566,3.0622,3.0797,0.0,0.0,0.0,0.0,0.0,0.0,0.0,0.0,3.2332,3.2283,0.0,0.0,0.0,0.0,0.0,0.0,0.0,0.0,0.0,0.0,0.0,0.0,0.0,0.0,0.0,0.0,4.0761,4.187,4.3313,4.312,4.3054,4.3553,4.4075,4.4604,4.5061,4.4724,4.47,4.5157,4.4748,4.4676,4.5085,0.0,0.0,0.0,0.0,4.4285,4.4285,4.4285,4.4285,4.4285,4.4285,4.4285,4.4285,4.4161,4.4068,4.4068,4.4068,4.4068,4.4099,4.4254,4.4285,4.4285,4.4213,4.3601,4.2573,4.1658,4.1249,4.1201,4.1201,0.0,0.0,4.1201,4.1201,4.1201,4.1201,4.1201,4.1201,4.1201,4.1201,4.1196,4.1273,4.1249,4.1249,4.1369,4.1297,4.1225,4.1297,4.1249,4.1201,4.1201,4.1201,4.1201,4.1201,4.1221,4.0982,4.0294,3.9909,3.9687,3.9692,3.9383,3.9228,3.9413,0.0,0.0,3.673,3.5759,3.4509,3.2879,3.2603,3.1931,3.0685,3.1102,3.1514,3.1885,3.2385,3.3235,3.4438,3.4548,3.4843,3.5264,3.3492,3.3295,0.0,0.0,0.0,0.0,0.0,0.0,0.0,0.0,0.0,0.0,0.0,0.0,0.0,0.0,0.0,4.0198,4.1543,4.2741,4.3409,4.3433,4.3577,4.41,4.4628,4.4989,4.5085,4.5397,4.5638,4.5734,4.5638,4.5445,4.5133,4.5013,4.4796,4.4484,4.4333,4.4285,4.4285,4.4285,4.4285,4.4285,0.0,0.0,4.4254,4.3177,4.2673,4.2673,4.2673,4.2673,4.2768,4.3857,4.4285,4.4268,4.3811,4.3048,4.214,4.1923,4.1586,4.1201,4.1201,4.1201,4.1201,4.1201,4.1201,4.1201,4.1201,4.1201,0.0,4.1201,4.1201,4.1297,4.173,4.1538,4.1418,4.2284,4.1827,4.1321,4.1755,4.1514,4.1201,4.1201,4.1201,4.1201,4.1201,4.1027,4.0842,4.0703,4.0425,4.0094,3.966,3.876,3.8003,3.7652,3.6511,3.5353,3.43,3.3995,3.3352,3.2076,3.228,3.2356,3.2187,3.2932,3.3234,3.3085,3.385,3.4361,3.4648,3.5054,3.5452,3.581,3.474,3.438,0.0,0.0,0.0,0.0,0.0,0.0,0.0,0.0,0.0,0.0,0.0,3.8597,3.8759,0.0,4.1268,4.2206,4.3048,4.3818,4.458,4.4676,4.4604,4.4309,4.4772,4.5205,4.5469,4.5734,4.5998,4.6262,4.6046,4.5902,4.5902,4.5638,4.5493,4.5493,4.5253,4.4989,4.47,4.47,4.458,4.4285,4.4285,4.4285,4.4285,4.3608,4.3295,4.3295,4.3295,4.3295,4.3357,4.4013,4.4285,4.4261,4.4003,4.3427,4.2711,4.2477,4.2236,4.1995,4.1995,4.1827,4.1658,4.1923,4.1658,4.1321,4.1851,4.1827,4.1658,4.1923,4.1995,4.2067,4.2332,4.2188,4.214,4.2669,4.238,4.2067,4.2332,4.1971,4.161,4.161,4.1394,4.1201,4.1201,4.1099,4.0951,4.0824,4.0557,4.0082,3.9173,3.8442,3.7715,3.6938,3.5775,3.4833,3.4203,3.3617,3.2989,3.2245,3.2615,3.2823,3.2706,3.3552,3.4007,3.4062,3.4922,3.5469,3.5684,3.6133,3.6445,3.6641,3.6211,3.5781,0.0,0.0,0.0,0.0,0.0,0.0,0.0,3.7654,3.8047,3.858,3.9661,4.064,4.0955,4.1798,4.2856,4.41,4.4453,4.4917,4.5782,4.5902,4.5565,4.4724,4.5085,4.5565,4.5998,4.6142,4.6383,4.6824,4.6463,4.6335,4.6704,4.6286,4.619,4.6503,4.6118,4.5686,4.5253,4.5253,4.5037,4.4628,4.4628,4.458,4.446,4.446,4.4412,4.4285,4.4405,4.4412,4.4285,4.4405,4.4381,4.4285,4.4285,4.4051,4.3601,4.3096,4.2886,4.2789,4.2789,4.2525,4.2236,4.2645,4.2212,4.1682,4.2525,4.2501,4.2236,4.2669,4.2789,4.2813,4.291,4.2862,4.2837,4.3054,4.2934,4.2813,4.291,4.2525,4.2164,4.2164,4.173,4.1369,4.1369,4.1273,4.1114,4.0934,4.0466,3.977,3.8639,3.7867,3.7109,3.6163,3.5021,3.4348,3.4402,3.3577,3.3014,3.2898,3.3254,3.3367,3.3195,3.3938,3.4531,3.4941,3.5742,3.6406,3.6914,3.7246,3.7461,3.7539,3.7461,3.7012,3.7693,3.727,3.7242,3.7916,3.7896,3.8362,0.0,4.0825,4.0546,4.1364,4.2054,4.2367,4.1928,4.3048,4.41,4.4261,4.5109,4.5758,4.5878,4.5902,4.5854,4.5734,4.619,4.6527,4.6575,4.704,4.7353,4.7401,4.7353,4.7136,4.6728,4.6655,4.6407,4.5998,4.5926,4.5854,4.5806,4.5806,4.5782,4.571,4.571,4.5469,4.5013,4.5013,4.4748,4.434,4.482,4.4748,4.4333,4.482,4.4748,4.4285,4.4285,4.4237,4.4148,4.3625,4.3174,4.2789,4.2789,4.2741,4.2717,4.2765,4.2717,4.2621,4.2741,4.2741,4.2717,4.2765,4.2789,4.2886,4.3313,4.3096,4.303,4.3907,4.3457,4.291,4.3337,4.3054,4.2693,4.2693,4.2284,4.1923,4.1923,4.1514,4.1201,4.1157,4.0105,3.911,3.8487,3.6471,3.4865,3.4259,3.3185,3.264,3.2984,3.29,3.314,3.3904,3.4002,3.4166,3.4473,3.498,3.5449,3.5859,3.6348,3.6992,3.7773,3.7796,3.8047,3.8418,3.8027,3.7598,3.8495,3.8682,3.8938,3.9446,4.0148,4.1047,4.2198,4.2174,4.2112,4.2741,4.3048,4.3241,4.3306,4.4124,4.4989,4.559,4.607,4.6455,4.68,4.6848,4.6728,4.6383,4.6848,4.704,4.6752,4.7185,4.7617,4.793,4.7954,4.8002,4.8074,4.781,4.7521,4.7305,4.6992,4.6704,4.6359,4.6391,4.619,4.5902,4.5902,4.5782,4.5565,4.5565,4.5445,4.5253,4.5469,4.5253,4.4796,4.5013,4.4796,4.4285,4.4285,4.4285,4.4261,4.4051,4.3835,4.3673,4.3673,4.3481,4.3241,4.3577,4.3265,4.291,4.3505,4.3457,4.3337,4.3962,4.413,4.4275,4.4748,4.4756,4.4708,4.5133,4.4924,4.4587,4.446,4.4027,4.3601,4.3265,4.2813,4.2452,4.2452,4.1585,4.0914,4.0914,3.9933,3.8587,3.6875,3.5758,3.4718,3.3706,3.3418,3.3371,3.3547,3.3567,3.3789,3.4394,3.4251,3.429,3.4687,3.5137,3.5703,3.6387,3.6816,3.7461,3.8301,3.8301,3.8398,3.8611,3.8379,3.8203,3.8887,3.9409,4.003,4.0483,4.1827,4.303,4.3198,4.3433,4.3746,4.4106,4.4027,4.41,4.4652,4.5061,4.5662,4.6752,4.704,4.7281,4.7666,4.7593,4.7353,4.6968,4.7136,4.7185,4.6944,4.7281,4.7714,4.8243,4.8291,4.8507,4.9071,4.8579,4.8291,4.8291,4.7786,4.7329,4.6944,4.6944,4.6728,4.6335,4.6335,4.6238,4.6118,4.595,4.5902,4.5902,4.6046,4.5806,4.5325,4.5325,4.5013,4.4532,4.4364,4.4412,4.4501,4.4501,4.4501,4.4556,4.47,4.4484,4.4251,4.4628,4.4251,4.377,4.4508,4.446,4.4316,4.5109,4.5325,4.5421,4.5782,4.5902,4.5902,4.5902,4.5902,4.5782,4.5397,4.5013,4.458,4.4027,4.3255,4.2607,4.2464,4.1152,3.9994,3.9654,3.8967,3.7854,3.5998,3.5436,3.4828,3.3865,3.4062,3.4271,3.4271,3.4271,3.4466,3.4863,3.4609,3.4629,3.5039,3.5508,3.6128,3.6871,3.7266,3.7832,3.8611,3.8611,3.8611,3.8611,3.8611,3.8611,3.8567,3.9008,3.985,4.0908,4.2327,4.3595,4.4148,4.5061,4.5806,4.5806,4.5421,4.5229,4.5758,4.5854,4.6214,4.7305,4.7906,4.8243,4.8267,4.7834,4.7497,4.7473,4.704,4.6944,4.7425,4.7497,4.7714,4.8243,4.8291,4.8507,4.9071,4.8579,4.8291,4.8291,4.7786,4.7497,4.7473,4.7473,4.7473,4.7449,4.7449,4.7185,4.668,4.6118,4.5902,4.5926,4.6431,4.6359,4.5878,4.5878,4.5565,4.5037,4.4508,4.4628,4.5085,4.5085,4.5085,4.5157,4.5662,4.583,4.583,4.583,4.583,4.5806,4.583,4.583,4.583,4.5854,4.5878,4.5878,4.5878,4.5902,4.5902,4.5902,4.5902,4.5878,4.5878,4.5854,4.5686,4.5157,4.3568,4.2149,4.1621,3.9945,3.8257,3.701,3.6797,3.6744,3.6648,3.5508,3.4733,3.4668,3.4668,3.4687,3.4687,3.4687,3.4883,3.5351,3.5351,3.5547,3.5923,3.6406,3.6871,3.7266,3.7695,3.8125,3.8611,3.8611,3.8611,3.8611,3.8611,3.8611,3.9482,4.0704,4.1966,4.2994,4.4436,4.5662,4.583,4.6166,4.631,4.5974,4.5181,4.4597,4.482,4.4845,4.5301,4.6752,4.7425,4.8002,4.8724,4.8998,4.8676,4.7617,4.7954,4.793,4.7064,4.7305,4.7858,4.8748,4.8854,4.9205,5.0095,4.9638,4.9359,4.9359,4.882,4.8555,4.8555,4.8195,4.8026,4.8026,4.7666,4.7401,4.7233,4.704,4.6968,4.6968,4.7161,4.6944,4.6439,4.6439,4.6094,4.5614,4.5421,4.5469,4.5662,4.6022,4.6142,4.6118,4.595,4.5902,4.5902,4.5902,4.5902,4.5902,4.5902,4.5902,4.5974,4.631,4.6439,4.6503,4.6872,4.6968,4.6968,4.6968,4.6968,4.6872,4.6535,4.6439,4.5979,4.4463,4.3655,4.274,4.128,3.9982,3.8678,3.7277,3.611,3.5373,3.5373,3.4982,3.4707,3.4707,3.498,3.5156,3.5156,3.5156,3.5351,3.5781,3.5801,3.5996,3.6445,3.6855,3.7285,3.7715,3.7816,3.8144,3.8611,3.8611,3.8611,3.8611,3.8611,3.8611,4.0599,4.1995,4.3337,4.4556,4.5782,4.6704,4.6704,4.6704,4.6559,4.5998,4.5061,4.4285,4.4285,4.4285,4.4893,4.6704,4.7593,4.8435,4.9517,4.9817,4.9528,4.8459,4.8603,4.8459,4.7642,4.7858,4.8339,4.9071,4.9287,4.9758,5.0648,5.0202,4.9913,4.9913,4.9383,4.9119,4.9119,4.8782,4.8483,4.8291,4.7762,4.7497,4.7497,4.7497,4.7497,4.7497,4.7497,4.7305,4.6968,4.68,4.6511,4.6166,4.5974,4.6022,4.6214,4.6583,4.6824,4.6944,4.6607,4.6487,4.6487,4.6487,4.6487,4.6487,4.6487,4.6487,4.6559,4.6896,4.6992,4.7064,4.7425,4.7497,4.7497,4.7497,4.7497,4.7401,4.7064,4.6992,4.6398,4.4384,4.3574,4.2594,4.0638,3.9371,3.8351,3.7426,3.6348,3.5566,3.543,3.5273,3.5176,3.5176,3.543,3.5684,3.584,3.5703,3.5859,3.6445,3.6328,3.6445,3.691,3.7305,3.7656,3.7874,3.8086,3.8301,3.8611,3.873,3.873,3.8611,3.8767,3.8747,4.1803,4.2832,4.4034,4.5541,4.6335,4.6752,4.6728,4.668,4.6479,4.5878,4.4941,4.422,4.4172,4.422,4.4965,4.7088,4.8363,4.9469,5.06,5.0335,5.0033,4.9985,4.9095,4.8628,4.9119,4.9143,4.9143,4.9143,4.9624,5.0154,5.0672,5.0226,4.9937,4.9937,4.9456,4.9191,4.9191,4.9167,4.8878,4.8315,4.7786,4.7545,4.7545,4.7521,4.7497,4.7497,4.7497,4.7497,4.7473,4.6968,4.6752,4.6704,4.6166,4.6286,4.6752,4.6752,4.7064,4.7497,4.7497,4.7497,4.7497,4.7497,4.7497,4.7497,4.7497,4.7497,4.7497,4.7497,4.7497,4.7497,4.7497,4.7497,4.7497,4.7497,4.7497,4.7497,4.7497,4.7431,4.6798,4.4792,4.3207,4.1585,3.9668,3.8217,3.7344,3.7363,3.7344,3.7168,3.6753,3.6309,3.6035,3.5982,3.6001,3.623,3.6675,3.6309,3.6426,3.7246,3.6953,3.6914,3.7305,3.7734,3.7933,3.7933,3.8359,3.8611,3.8611,3.9004,3.9004,3.865,3.9004,3.9004,4.2832,4.4467,4.5982,4.6383,4.692,4.7185,4.68,4.6383,4.571,4.4395,4.3625,4.2928,4.2134,4.2952,4.4268,4.6022,4.7882,4.9589,5.1081,5.1886,5.2007,5.1212,5.084,5.0407,4.9769,4.9696,4.9696,4.9696,4.9817,5.0154,5.0672,5.0576,5.0503,5.0503,5.0359,5.0287,5.0287,4.9913,4.9432,4.8902,4.8339,4.8098,4.8074,4.769,4.7497,4.7497,4.7497,4.7497,4.7497,4.7353,4.7305,4.7281,4.7161,4.7185,4.7305,4.7305,4.7377,4.7497,4.7497,4.7497,4.7497,4.7497,4.7497,4.7497,4.7497,4.7497,4.7497,4.7497,4.7497,4.7497,4.7497,4.7497,4.7497,4.7497,4.7497,4.7497,4.7497,4.664,4.5368,4.3707,4.1046,3.9004,3.8831,3.8219,3.7871,3.8203,3.7969,3.75,3.6792,3.6616,3.6387,3.6055,3.6309,3.6577,3.6695,3.6855,3.707,3.7285,3.75,3.7656,3.7718,3.8184,3.8418,3.8418,3.8552,3.8611,3.8611,3.9004,3.9141,3.9043,3.9141,3.9336,4.3907,4.5421,4.6776,4.6992,4.7112,4.6968,4.6166,4.5397,4.4419,4.2832,4.2284,4.1779,4.0691,4.2158,4.3962,4.5325,4.7738,5.0009,5.161,5.2584,5.2897,5.2259,5.197,5.1586,5.102,5.0948,5.0948,5.0948,5.0539,5.0359,5.0696,5.0696,5.0696,5.0696,5.0696,5.0696,5.0696,5.0178,4.9744,4.9456,4.8926,4.8628,4.8628,4.8098,4.7858,4.7834,0.0,4.7497,4.7497,4.7497,4.7497,4.7497,4.7497,4.7497,4.7497,4.7497,4.7497,4.7497,4.7497,4.7497,4.7497,4.7497,4.7497,4.7497,4.7497,4.7497,4.7497,4.7497,4.7497,4.7497,4.7497,4.7497,4.7497,4.7497,4.7497,4.7331,4.6674,4.5854,4.4641,4.2473,3.9973,3.8281,3.8535,3.8379,3.8301,3.8571,3.8359,3.7969,3.7305,3.7051,3.6855,3.6601,3.6797,3.7012,3.7207,3.7266,3.7461,3.7832,3.7891,3.7972,3.8203,3.8437,3.8611,3.8611,3.875,3.8848,3.8848,3.9473,3.9687,3.9512,3.9687,3.9824,4.5037,4.6022,4.692,4.7377,4.704,4.631,4.5229,4.41,4.2856,4.1293,4.1008,4.0691,3.9777,4.1629,4.3721,4.4989,4.7714,5.0298,5.2055,5.2777,5.3138,5.3186,5.2753,5.2416,5.2416,5.2368,5.232,5.232,5.1441,5.0888,5.0816,5.0744,5.0696,5.0696,5.0696,5.0696,5.0696,5.0215,5.0009,5.0009,4.948,4.9215,4.9191,4.8628,4.8387,4.8363,4.7906,4.7714,4.7714,4.7714,4.7714,4.7714,4.7642,4.7617,4.7593,4.7521,4.7497,4.7497,4.7497,4.7497,4.7497,4.7497,4.7497,4.7497,4.7497,4.7497,4.7497,4.7497,4.7497,4.7497,4.7497,4.7497,4.7497,4.7497,4.7497,4.7165,4.5877,4.5448,4.4367,4.112,3.9622,3.8809,3.8647,3.8611,3.8611,3.8611,3.865,3.8496,3.8066,3.7637,3.7363,3.7305,3.7344,3.7519,3.7855,3.7637,3.7793,3.8571,3.8281,3.8262,3.8633,3.8747,3.875,3.875,3.9101,3.9297,3.9297,4.0117,4.0332,3.998,4.0351,4.0351,4.6238,4.6896,4.7377,4.7473,4.6776,4.5758,4.47,4.3313,4.1827,4.021,3.9874,3.9826,3.9633,4.1052,4.3024,4.5373,4.7353,4.9445,5.1959,5.2777,5.3221,5.363,5.3245,5.2969,5.2969,5.2584,5.232,5.232,5.2151,5.1826,5.1369,5.0936,5.0696,5.0696,5.0696,5.0696,5.0696,5.06,5.0551,5.0551,5.0033,4.9769,4.9744,4.9215,4.8974,4.8974,4.8878,0.0,4.883,4.883,4.883,4.8806,4.8315,4.8147,4.8098,4.7666,4.7497,4.7497,4.7497,4.7497,4.7497,4.7497,4.7497,4.7497,4.7497,4.7497,4.7497,4.7497,4.7497,4.7497,4.7497,4.7497,4.7497,4.7497,4.7497,4.7431,4.7174,4.618,4.4058,3.9802,3.9766,4.0033,3.8829,3.8611,3.8611,3.8611,3.8867,3.8945,3.8516,3.8086,3.7676,3.7344,3.7617,3.7816,3.7874,3.8184,3.8454,3.8591,3.8828,3.9023,3.9082,3.9473,3.9668,3.9668,3.9746,3.9766,3.9766,4.0273,4.045,4.041,4.0488,4.0684,4.6527,4.7088,4.7425,4.7161,4.6262,4.5061,4.3481,4.2086,4.0787,3.9465,3.9417,3.9609,3.9609,4.1341,4.3192,4.4467,4.6487,4.8724,5.1129,5.1922,5.2644,5.3702,5.3606,5.3461,5.3461,5.3221,5.3077,5.3077,5.2836,5.2488,5.1922,5.1658,5.1513,5.1513,5.1249,5.1105,5.1105,5.084,5.0696,5.0696,5.0431,5.0346,5.0287,4.9769,4.9528,4.9504,4.9239,4.9119,4.9119,4.9119,4.9119,4.9095,4.883,4.8734,4.871,4.8411,4.8315,4.8291,4.8002,4.7906,4.7858,4.7593,4.7497,4.7497,4.7497,4.7497,4.7497,4.7497,4.7497,4.7497,4.7497,4.7497,4.7497,4.7497,4.6315,4.5222,4.5462,4.3718,4.1474,3.9327,3.949,3.9665,3.8759,3.8611,3.8689,3.8867,3.9062,3.9219,3.9258,3.9082,3.8691,3.8027,3.834,3.8496,3.8281,3.8652,3.8906,3.8906,3.9316,3.9551,3.9551,3.9766,3.9902,3.9902,4.0117,4.0215,4.0215,4.0644,4.0859,4.0859,4.0859,4.1094,4.6728,4.7185,4.7377,4.6848,4.5806,4.4412,4.2452,4.1177,4.009,3.9005,3.9248,3.9681,3.9898,4.1629,4.3192,4.3739,4.5718,4.8002,5.0359,5.1153,5.2067,5.363,5.3785,5.3785,5.3785,5.3785,5.3785,5.3785,5.3461,5.2993,5.2344,5.232,5.232,5.232,5.1874,5.161,5.1489,5.1081,5.0816,5.0696,5.0696,5.0696,5.0696,5.0239,5.0081,5.0057,4.9648,4.9421,4.9421,4.9421,4.9421,4.9456,4.9335,4.9287,4.9263,4.9143,4.9119,4.9047,4.8603,4.8459,4.8387,4.7978,4.7762,4.7642,4.7521,4.7569,4.7642,4.7521,4.7497,4.7497,4.7497,4.7497,4.7497,4.7497,4.5517,4.3643,4.37,4.1907,4.0131,3.9447,3.9596,3.9645,3.898,3.8904,3.9002,3.9297,3.9434,3.959,3.9863,4.0059,3.9824,3.8945,3.916,3.9219,3.8923,3.916,3.9355,3.9355,3.9785,4.0039,4.0039,4.0117,4.0215,4.0293,4.0625,4.0801,4.0899,4.1269,4.1445,4.1445,4.1445,4.1621,4.7281,4.7473,4.7377,4.6848,4.5517,4.3955,4.2351,4.1177,4.009,3.9005,3.9248,3.9898,4.086,4.1244,4.2182,4.4556,4.5565,4.7161,5.0263,5.1153,5.2067,5.363,5.3785,5.3785,5.3785,5.3785,5.3785,5.3785,5.3774,5.3317,5.2331,5.232,5.232,5.232,5.2235,5.197,5.1489,5.1441,5.1177,5.0696,5.0696,5.0696,5.0696,5.0648,5.0624,5.0624,5.0576,5.0551,0.0,5.0551,5.0551,5.0503,5.0033,4.9841,4.9769,4.9287,4.9119,4.9095,4.9047,4.9047,4.9022,4.8974,4.8603,4.8122,4.7642,4.7834,4.8122,4.7642,4.7497,4.7497,4.7497,4.7497,4.7497,4.7497,4.6531,4.5286,4.4,4.3759,4.3034,4.0367,4.0907,4.1407,4.0028,3.9766,3.9785,3.9824,4.0156,4.0273,3.9941,4.0566,4.0761,3.9863,3.9805,3.9824,3.9766,3.9805,3.9824,3.9824,4.0234,4.043,4.043,4.084,4.123,4.1621,4.166,4.1875,4.2206,4.2245,4.2265,4.2265,4.2265,4.2284,4.7185,4.7497,4.7305,4.6407,4.5253,4.3811,4.1942,4.096,4.0186,3.9441,3.9705,4.0403,4.149,4.1947,4.2597,4.3907,4.458,4.5734,4.7978,4.9036,5.0263,5.2187,5.298,5.3485,5.3798,5.4111,5.4303,5.4303,5.3991,5.3654,5.3221,5.3197,5.3197,5.3197,5.2908,5.268,5.2488,5.2115,5.185,5.1658,5.1321,5.1345,5.1634,5.1321,5.1345,5.1658,5.1658,5.1658,0.0,5.1658,5.1465,5.1153,5.0936,5.0648,5.0335,5.0143,5.0046,4.9998,4.9696,4.9576,4.9528,4.9215,4.9191,4.9167,4.8603,4.8603,4.8724,4.8507,4.8459,4.8459,4.8459,4.8459,4.8459,4.8459,4.7463,4.6424,4.6049,4.5429,4.4568,4.3378,4.2823,4.2295,4.1455,4.0502,4.0078,4.0586,4.0586,4.0704,4.1348,4.1504,4.1523,4.1426,4.0742,4.0176,3.9922,4.0137,4.0273,4.0273,4.0918,4.1289,4.1289,4.1699,4.2012,4.2168,4.2168,4.2226,4.2382,4.2382,4.2382,4.2382,4.2382,4.2558,4.6623,4.7257,4.7257,4.6166,4.5085,4.3811,4.187,4.1004,4.0475,3.9946,4.0379,4.1124,4.2067,4.2549,4.3006,4.3619,4.4051,4.4989,4.692,4.7954,4.9325,5.1465,5.2416,5.3066,5.3558,5.4063,5.4447,5.4592,5.4111,5.3785,5.3785,5.3785,5.3785,5.3785,5.3485,5.3258,5.3114,5.2729,5.2464,5.232,5.1898,5.1922,5.2295,5.1898,5.1922,5.232,5.232,5.232,0.0,5.232,5.2103,5.173,5.173,5.1393,5.0936,5.0936,5.084,5.0648,5.0263,5.025,5.0322,4.9937,5.0178,5.0539,5.0178,4.972,4.9311,4.9167,4.9119,4.9119,4.9119,4.9119,4.9119,4.9119,4.7679,4.656,4.7339,4.6055,4.4771,4.4771,4.3842,4.2823,4.2028,4.1092,4.0664,4.1308,4.1211,4.1367,4.2265,4.2168,4.209,4.2362,4.1582,4.0976,4.0664,4.0801,4.0957,4.1035,4.166,4.1992,4.1992,4.2266,4.248,4.2617,4.2617,4.2676,4.2772,4.2772,4.2772,4.2772,4.2772,4.2969,4.5614,4.6704,4.7257,4.6166,4.5085,4.3883,4.2327,4.1586,4.1028,4.0499,4.1249,4.214,4.2669,4.2789,4.315,4.4148,4.4316,4.5229,4.7906,4.8758,4.9913,5.2055,5.232,5.2536,5.3066,5.3534,5.4039,5.4568,5.4111,5.3785,5.3785,5.3785,5.3785,5.3785,5.3822,5.3582,5.3114,5.309,5.2849,5.232,5.232,5.232,5.232,5.232,5.232,5.232,5.232,5.232,0.0,5.232,5.232,5.232,5.232,5.1946,5.1489,5.1489,5.1153,5.0696,5.0696,5.1032,5.1465,5.1465,5.1826,5.2259,5.2295,5.1164,4.9793,4.9263,4.9119,4.9119,4.9119,4.9119,4.9119,4.9119,4.7054,4.5581,4.7157,4.5403,4.3532,4.3532,4.3494,4.3019,4.1463,4.1543,4.1777,4.1797,4.2148,4.2362,4.2382,4.2382,4.2382,4.2382,4.2382,4.2362,4.2362,4.2031,4.1973,4.2343,4.2382,4.2382,4.2382,4.2382,4.2637,4.3066,4.3066,4.3281,4.3691,4.3691,4.3691,4.3691,4.3691,4.3691,4.3608,4.4251,4.4611,4.3969,4.3241,4.2495,4.1658,4.161,4.161,4.1081,4.1514,4.226,4.312,4.3265,4.3746,4.5157,4.5686,4.6359,4.7569,4.8854,5.0033,5.1081,5.2451,5.3534,5.4063,5.3942,5.4039,5.4568,5.4111,5.3785,5.3785,5.3785,5.3785,5.3785,5.3785,5.375,5.3582,5.3582,5.351,5.3317,5.298,5.3004,5.3317,5.298,5.3004,5.3341,5.3341,5.3341,5.3341,5.3341,5.3125,5.2849,5.2849,5.2536,5.2055,5.2055,5.1922,5.1778,5.1778,5.1898,5.2055,5.2055,5.2139,5.232,5.232,5.1959,5.1501,5.1357,5.1309,5.1177,5.0816,5.0984,5.1177,5.0816,4.9474,4.831,4.8543,4.7246,4.5829,4.5261,4.4718,4.4148,4.3396,4.2684,4.2324,4.2637,4.2539,4.2637,4.3223,4.3047,4.2969,4.3262,4.3047,4.2754,4.2421,4.2265,4.2245,4.2382,4.2695,4.2871,4.2871,4.3457,4.3848,4.3984,4.4258,4.4473,4.4609,4.4609,4.4453,4.418,4.3848,4.3711,4.2265,4.2976,4.3433,4.315,4.2693,4.2212,4.1875,4.1899,4.1971,4.1827,4.2212,4.2808,4.3643,4.3787,4.4196,4.5397,4.5878,4.6407,4.7377,4.8734,5.0033,5.1153,5.262,5.375,5.4255,5.4015,5.4039,5.4568,5.4111,5.3785,5.3785,5.3785,5.3726,5.3534,5.3726,5.3726,5.3534,5.3726,5.3726,5.3534,5.3413,5.351,5.3785,5.3485,5.3534,5.3785,5.3785,5.3785,0.0,5.3785,5.363,5.3341,5.3341,5.3029,5.2608,5.2608,5.2488,5.232,5.232,5.2403,5.2608,5.2608,5.2716,5.286,5.286,5.2596,5.232,5.232,5.232,5.2247,5.1874,5.2043,5.2223,5.1874,5.0765,4.9881,5.021,4.9198,4.8056,4.753,4.6523,4.5496,4.4642,4.3479,4.2754,4.3087,4.2988,4.3105,4.3633,4.3476,4.3418,4.3672,4.3476,4.3203,4.293,4.2754,4.2734,4.2891,4.3164,4.3398,4.3574,4.4101,4.4473,4.4629,4.486,4.4977,4.4977,4.4863,4.4648,4.4394,4.3926,4.3711,0.0,4.2651,4.3289,4.3319,4.3006,4.2693,4.2747,4.2434,0.0,4.2741,4.3192,4.3697,4.4316,4.4357,4.458,4.5181,4.5325,4.5902,4.7401,4.8579,5.0105,5.2139,5.2849,5.3317,5.3774,5.3785,5.4015,5.452,5.4087,5.3785,5.3785,5.3774,5.3558,5.3114,5.3485,5.351,5.3114,5.3534,5.3558,5.3162,5.3558,5.3774,5.3785,5.3785,5.3785,0.0,5.3785,5.3785,5.3785,5.3785,5.3785,5.3785,5.3785,5.3534,5.3162,5.3162,5.2849,5.2416,5.2416,5.2753,5.3162,5.3162,5.3437,5.3785,5.3785,5.3149,5.2416,5.2416,5.2416,5.2416,5.2392,5.2355,5.2416,5.2368,5.1168,5.0402,5.1868,5.0871,4.963,4.9562,4.8262,4.6635,4.5117,4.39,4.3125,4.3125,4.3457,4.3711,4.3711,4.3711,4.3711,4.3711,4.3711,4.3711,4.3711,4.334,4.3281,4.3691,4.373,4.3945,4.4375,4.4453,4.4668,4.5058,4.5098,4.5074,4.5074,4.4687,4.4492,4.4473,4.4023,4.3789,4.1825,0.0,4.1239,4.1696,4.1686,4.174,0.0,4.2842,4.3192,4.3313,4.3433,4.3907,4.5277,4.5181,4.5349,4.6728,4.7617,4.8291,4.8652,5.0335,5.2018,5.3293,5.3558,5.3702,5.3798,5.3785,5.3833,5.3991,5.3857,5.3785,5.3785,5.3461,5.3234,5.3114,5.2788,5.2825,5.3114,5.3234,5.3365,5.363,5.3365,5.3437,5.3785,5.3785,5.3785,5.3785,5.3785,5.3785,5.3785,5.3785,5.3785,5.3785,5.3785,5.375,5.363,5.363,5.3558,5.3461,5.3461,5.3534,5.363,5.363,5.3726,5.3785,5.3785,5.3654,5.3461,5.3461,5.3461,5.3365,5.3017,5.3173,5.3365,5.3017,5.193,5.101,5.1057,4.9002,4.6936,4.6273,4.5298,4.436,4.3657,4.3547,4.3555,4.3555,4.3633,4.3711,4.3711,4.3711,4.3711,4.3711,4.3711,4.3711,4.3711,4.3613,4.3594,4.3691,4.4043,4.4277,4.4394,4.5019,4.543,4.5527,4.584,4.5996,4.5996,4.5586,4.5371,4.5371,4.4922,4.4665,4.2443,4.2344,4.2155,4.2991,4.3042,4.3117,4.395,4.382,4.3608,4.4025,4.4174,4.458,4.5686,4.607,4.6511,4.7353,4.8387,4.9359,5.0095,5.1646,5.2932,5.3726,5.3785,5.3785,5.3785,5.3785,5.3785,5.3785,5.4039,5.4063,5.3785,5.3798,5.3437,5.2777,5.2705,5.2584,5.2392,5.2632,5.2716,5.2764,5.3017,5.3258,5.3485,5.3702,5.3785,5.3785,5.3785,5.3785,5.3785,5.3785,5.3785,5.3785,5.3785,5.3785,5.3785,5.3785,5.3785,5.3785,5.3785,5.3785,5.3785,5.3785,5.3785,5.3785,5.3785,5.3785,5.3785,5.3785,5.3785,5.375,5.3485,5.3606,5.375,5.3485,5.2906,5.2395,5.2174,5.0879,4.9602,4.9106,4.7404,4.5959,4.5773,4.458,4.3711,4.3711,4.3711,4.3711,4.3711,4.3711,4.3711,4.3711,4.3711,4.3711,4.3711,4.3711,4.3711,4.3711,4.3945,4.4258,4.4668,4.5137,4.5566,4.5957,4.6191,4.6308,4.6308,4.5879,4.5727,4.5707,4.5234,4.4977,4.3518,4.4268,4.4784,4.5174,4.5165,4.522,4.5859,4.4811,4.3892,4.4651,4.5005,4.5388,4.5998,4.6968,4.7666,4.7834,4.87,4.9913,5.1513,5.2536,5.3245,5.375,5.3785,5.3785,5.3785,5.3785,5.3809,5.3942,5.4351,5.4399,5.3966,5.4279,5.3846,5.2488,5.2801,5.256,5.161,5.197,5.197,5.1634,5.2464,5.2945,5.3114,5.351,5.375,5.3785,0.0,0.0,5.3785,5.3785,5.3785,5.3785,5.3785,5.3785,5.3785,5.3785,5.3785,5.3785,5.3785,5.3785,5.3785,5.3785,5.3785,5.3785,5.3785,5.3785,5.3785,5.3785,5.3785,5.3785,5.3785,5.3785,5.3747,5.3459,5.3634,5.3672,5.3157,5.3044,5.2944,5.2717,5.0148,4.8024,4.8024,4.5616,4.3711,4.3711,4.3711,4.3711,4.3711,4.3711,4.3711,4.3711,4.3711,4.3711,4.3711,4.3769,4.3808,4.3808,4.3808,4.4199,4.5078,4.5195,4.5566,4.6289,4.6308,4.6308,4.6308,4.5937,4.5781,4.5762,4.5391,4.5172,4.5408,4.7263,4.8084,4.5399,4.5143,4.5495,4.5234,4.4865,4.4651,4.4755,4.5216,4.5891,4.7025,4.7762,4.8459,4.9383,5.0046,5.1008,5.2632,5.2993,5.3245,5.375,5.3785,5.3785,5.3785,5.3785,5.4015,5.4447,5.4568,5.4568,5.4496,5.4097,5.363,5.2993,5.2632,5.2368,5.2163,5.1802,5.1802,5.2163,5.1874,5.2247,5.3114,5.3186,5.3413,5.3785,0.0,5.3785,5.3785,5.3785,5.3785,5.3785,5.3785,5.3785,5.3785,5.3785,5.3785,5.3785,5.3785,5.3785,5.3785,5.3785,5.3785,5.3785,5.3785,5.3785,5.3785,5.3785,5.3785,5.3785,5.3785,5.3785,5.3422,5.2007,5.2755,5.302,5.0187,4.9562,4.9131,4.7706,4.586,4.4494,4.4494,4.4062,4.3711,4.3711,4.3711,4.3711,4.3711,4.3711,4.3711,4.3711,4.3711,4.3711,4.3711,4.4062,4.4297,4.4297,4.4297,4.4668,4.5547,4.5918,4.6172,4.6308,4.6308,4.6308,4.6308,4.623,4.6211,4.6211,4.6133,4.6113,4.5066,4.723,4.8818,4.7255,4.7735,4.8428,4.7868,4.7002,4.6278,4.6336,4.6638,4.7086,4.765,4.8657,4.9831,5.0972,5.167,5.2271,5.2993,5.3293,5.3558,5.3798,5.4063,5.4255,5.4255,5.4496,5.4784,5.5025,5.5313,5.5361,5.5049,5.5058,5.4616,5.351,5.3245,5.2836,5.232,5.2079,5.2043,5.232,5.2043,5.2368,5.3114,5.3341,5.3606,5.3785,0.0,5.3785,5.3785,5.3785,5.3785,5.3785,5.3785,5.3785,5.3785,5.3785,5.3785,5.3785,5.3785,5.3785,5.3785,5.3785,5.3785,5.3785,5.3785,5.3785,5.3785,5.3785,5.3785,5.3785,5.3785,5.3785,5.3634,5.2831,5.3233,5.312,5.0675,5.0148,4.9641,4.7985,4.6284,4.5108,4.5108,4.4309,4.3711,4.3711,4.3711,4.3711,4.3711,4.3926,4.4082,4.4082,4.4277,4.4414,4.4414,4.4609,4.4726,4.4726,4.4961,4.5273,4.5707,4.6074,4.6308,4.6308,4.6308,4.6308,4.6308,4.6523,4.6641,4.6641,4.6875,4.6992,4.4991,4.7054,4.8987,4.9042,4.9892,5.0654,5.0315,4.8938,4.7813,4.8093,4.8288,4.8373,4.8428,4.9761,5.1218,5.2417,5.2982,5.3282,5.3282,5.3582,5.3785,5.3785,5.4279,5.4616,5.4616,5.5097,5.5458,5.5578,5.5947,5.5947,5.5433,5.5938,5.5443,5.3833,5.3942,5.3558,5.2644,5.256,5.2403,5.232,5.232,5.2584,5.3114,5.3461,5.3702,5.3785,5.3785,5.3785,5.3785,5.3785,5.3785,5.3785,5.3785,5.3785,5.3785,5.3785,5.3785,5.3785,5.3785,5.3785,5.3785,5.3785,5.3785,5.3785,5.3785,5.3918,5.3991,5.3991,5.4087,5.4135,5.3894,5.3785,5.3709,5.3309,5.3497,5.3143,5.0773,5.051,5.0137,4.8285,4.6816,4.5882,4.5882,4.4756,4.3828,4.373,4.3789,4.3867,4.3867,4.4258,4.4551,4.4551,4.4824,4.5016,4.5176,4.5176,4.5215,4.5312,4.5547,4.5727,4.5727,4.6074,4.6308,4.6308,4.6308,4.6308,4.6308,4.6674,4.6889,4.6889,4.7383,4.7578,4.6622,4.8209,4.9601,4.9767,4.9917,5.0108,5.0571,4.9504,4.8624,4.9334,4.9485,4.9553,4.9752,5.108,5.2453,5.335,5.3661,5.3774,5.3774,5.3798,5.3785,5.3785,5.4279,5.4616,5.4616,5.5097,5.5602,5.6092,5.6164,5.5947,5.5433,5.5938,5.5443,5.3833,5.4303,5.4279,5.3702,5.3245,5.2801,5.232,5.232,5.2584,5.3114,5.3138,5.3365,5.3785,5.3785,5.3785,5.3785,5.3785,5.3785,5.3785,5.3785,5.3785,5.3785,5.3785,5.3785,5.3785,5.3785,5.3785,5.3785,5.3785,5.3785,5.3785,5.3785,5.4159,5.4544,5.4544,5.4904,5.5049,5.4063,5.3785,5.3422,5.1854,5.2679,5.2606,4.8181,4.8125,4.8243,4.5757,4.4862,4.4545,4.4545,4.442,4.4199,4.3769,4.4082,4.4355,4.4355,4.4726,4.498,4.498,4.4957,4.5195,4.5586,4.5625,4.5801,4.6191,4.5879,4.5727,4.5727,4.6074,4.6308,4.6308,4.6308,4.6308,4.6308,4.6674,4.6889,4.6889,4.7383,4.7578,4.5999,4.8058,5.0135,5.0172,5.0964,5.1786,5.1862,5.1728,5.1708,5.2256,5.2154,5.1859,5.1571,5.1957,5.2598,5.346,5.3709,5.3942,5.4255,5.4303,5.4423,5.476,5.5289,5.5587,5.5587,5.6107,5.6492,5.6668,5.6692,5.6596,5.6419,5.626,5.5923,5.5299,5.4856,5.452,5.4303,5.3798,5.3437,5.3245,5.2969,5.3066,5.3534,5.3534,5.363,5.3785,5.3785,5.3785,5.3785,5.3785,5.3785,5.3785,5.3785,5.3785,5.3785,5.3785,5.3785,5.3785,5.3785,5.3785,5.3785,5.3785,5.3785,5.3785,5.3785,5.4183,5.4616,5.4616,5.4977,5.5313,5.4904,5.4784,5.4631,5.3992,5.4324,5.404,5.1214,5.1004,5.0743,4.8745,4.825,4.7754,4.6656,4.6204,4.5689,4.468,4.4453,4.4492,4.4766,4.5156,4.543,4.543,4.5664,4.5879,4.6055,4.6055,4.6133,4.6289,4.6152,4.6055,4.6055,4.6211,4.6426,4.6699,4.6699,4.6836,4.709,4.7519,4.7734,4.7734,4.8164,4.8424,4.605,4.8159,5.0469,5.0645,5.1791,5.2982,5.3399,5.3533,5.3793,5.4482,5.4091,5.342,5.2737,5.2501,5.2707,5.3497,5.3709,5.3991,5.4544,5.4616,5.4808,5.5337,5.589,5.6188,5.6188,5.6668,5.6981,5.6981,5.6981,5.6909,5.6741,5.6548,5.6284,5.5947,5.5241,5.4784,5.4616,5.4087,5.3785,5.3822,5.3461,5.3485,5.3785,5.3785,5.3785,5.3785,5.3785,5.3785,5.3785,5.3785,5.3785,5.3785,5.3785,5.3785,5.3785,5.3785,5.3785,5.3785,5.3785,5.3785,5.3785,5.3785,5.3785,5.3785,5.3785,5.4303,5.4856,5.4856,5.5361,5.5914,5.5914,5.565,5.5385,5.5385,5.5385,5.5007,5.3413,5.2565,5.1823,5.096,4.9809,4.8711,4.8004,4.7173,4.6237,4.517,4.4902,4.4902,4.5195,4.5605,4.5879,4.5879,4.6133,4.6308,4.6308,4.6426,4.6445,4.6308,4.6562,4.6582,4.6308,4.6426,4.6641,4.687,4.707,4.7285,4.7578,4.8008,4.8203,4.8223,4.8698,4.8913,4.7249,4.8705,5.0544,5.1147,5.2126,5.3347,5.5013,5.4677,5.4356,5.5657,5.5004,5.3924,5.2986,5.2816,5.2975,5.3533,5.3709,5.4015,5.4544,5.4616,5.4808,5.5337,5.589,5.6212,5.6212,5.6668,5.6981,5.6981,5.6981,5.6765,5.6236,5.6692,5.6516,5.5433,5.5385,5.5145,5.4616,5.4087,5.3785,5.3785,5.3785,5.3785,5.3785,5.3785,5.3785,5.3785,5.3785,5.3785,5.3822,5.3822,5.3785,5.3785,5.3785,5.3785,5.3785,5.3785,5.3785,5.3785,5.3785,5.3785,5.3785,5.3785,5.3785,5.3785,5.3822,5.4568,5.5385,5.5409,5.6179,5.6981,5.6981,5.6227,5.5409,5.5409,5.5409,5.5063,5.3795,5.181,5.0565,5.1568,4.8517,4.6352,4.8018,4.6912,4.557,4.5098,4.541,4.5727,4.5727,4.6055,4.6308,4.6308,4.6308,4.6308,4.6308,4.6699,4.6714,4.6348,4.7109,4.7187,4.6348,4.6719,4.6889,4.6889,4.7363,4.7623,4.7598,4.8008,4.8223,4.8223,4.8698,4.8913,4.7249,4.8705,5.0544,5.1147,5.2738,5.431,5.5189,5.5494,5.5676,5.6141,5.5373,5.4447,5.3899,5.3558,5.3388,5.3545,5.3709,5.4135,5.5025,5.5169,5.5506,5.6444,5.6684,5.6741,5.6741,5.6925,5.6981,5.6981,5.6981,5.6909,5.6765,5.6548,5.6452,5.654,5.5433,5.4952,5.5169,5.4279,5.3785,5.3785,5.3785,5.3785,5.3785,5.3785,5.3785,5.3785,5.3785,5.4001,5.4375,5.4375,5.4159,5.3785,5.3785,5.3785,5.3785,5.3785,5.3785,5.3785,5.3785,5.3785,5.3785,5.3785,5.3785,5.3857,5.4255,5.4856,5.5482,5.5866,5.6452,5.6981,5.6981,5.678,5.654,5.654,5.654,5.643,5.6033,5.5459,5.5075,5.5379,5.4476,5.3033,5.1046,4.9973,4.8629,4.6268,4.5781,4.5781,4.6074,4.623,4.6308,4.6308,4.6308,4.6426,4.6719,4.6811,4.7012,4.7187,4.7441,4.7324,4.6758,4.7148,4.7519,4.7832,4.7949,4.8164,4.8522,4.8659,4.8718,4.8718,4.8855,4.8913,4.8981,5.0569,5.2302,5.3306,5.4561,5.5641,5.5968,5.6294,5.6498,5.6415,5.5842,5.5171,5.4623,5.4279,5.4096,5.4157,5.4227,5.4622,5.5535,5.5641,5.6052,5.7114,5.7259,5.7259,5.7259,5.7259,5.718,5.7021,5.6981,5.6981,5.6981,5.6668,5.6644,5.6981,5.5827,5.5289,5.5385,5.4544,5.4015,5.3785,5.3785,5.3785,5.3822,5.4039,5.4255,5.4447,5.4447,5.4496,5.4616,5.4616,5.4544,5.4423,5.4207,5.4135,5.4135,5.4135,5.4135,5.4135,5.4135,5.4135,5.4135,5.4135,5.3953,5.3881,5.4447,5.4977,5.5506,5.6044,5.6572,5.6981,5.6981,5.6981,5.6981,5.6981,5.6981,5.6797,5.6094,5.5385,5.5102,5.5812,5.4225,5.2556,5.1849,5.0271,4.8495,4.6599,4.623,4.6269,4.6523,4.6699,4.6816,4.6816,4.6816,4.6914,4.7168,4.7344,4.748,4.7578,4.7891,4.7891,4.7461,4.7695,4.7949,4.8203,4.8379,4.8594,4.8913,4.8913,4.8913,4.8913,4.8913,4.8913,5.1574,5.3206,5.4813,5.6483,5.696,5.6985,5.6985,5.696,5.6824,5.6489,5.6275,5.5962,5.5189,5.4978,5.489,5.5004,5.5004,5.5223,5.5908,5.6026,5.6415,5.7437,5.7607,5.7655,5.7592,5.7592,5.7458,5.7021,5.6981,5.6997,5.6909,5.6909,5.6885,5.6876,5.6332,5.5803,5.5337,5.4808,5.4303,5.3785,5.3785,5.3846,5.3918,5.4351,5.4784,5.5265,5.5409,5.5145,5.4616,5.4664,5.4952,5.5337,5.4808,5.464,5.4688,5.4688,5.4688,5.4664,5.4616,5.464,5.4664,5.4616,5.4279,5.3991,5.4592,5.5049,5.553,5.6092,5.662,5.6981,5.6981,5.6981,5.6981,5.6981,5.6981,5.6558,5.4917,5.33,5.2639,5.4242,5.0484,4.803,5.1179,4.8826,4.6464,4.6308,4.666,4.6889,4.6889,4.7305,4.7578,4.7578,4.7578,4.7598,4.7637,4.7988,4.8066,4.7715,4.8464,4.8718,4.8281,4.8262,4.8262,4.8262,4.8698,4.8913,4.8913,4.8913,4.8913,4.8913,4.8913,4.8913,5.0996,5.2352,5.3783,5.5867,5.6684,5.6985,5.6985,5.6659,5.6358,5.6248,5.6221,5.6072,5.5558,5.5459,5.5336,5.5053,5.5004,5.5188,5.5775,5.6203,5.6693,5.7354,5.7859,5.8011,5.7631,5.7592,5.7458,5.7021,5.6981,5.6813,5.638,5.6356,5.6164,5.577,5.5241,5.4904,5.4784,5.4255,5.3918,5.3785,5.3785,5.4039,5.4423,5.4135,5.4039,5.4231,5.5467,5.5506,5.464,5.5049,5.5289,5.5337,5.4808,5.4856,5.5217,5.5217,5.5217,5.5169,5.476,5.488,5.5169,5.4736,5.452,5.4616,5.5563,5.565,5.5602,5.6588,5.6885,5.6981,5.6981,5.6981,5.6981,5.6981,5.6981,5.6901,5.6518,5.6134,5.5973,5.6358,5.4324,5.2368,5.1807,4.9871,4.7943,4.6507,4.666,4.6889,4.6889,4.7305,4.7578,4.7578,4.7578,4.7715,4.8047,4.8164,4.832,4.862,4.8796,4.8855,4.8776,4.8757,4.8757,4.8757,4.8855,4.8913,4.8913,4.8913,4.8913,4.8913,4.8913,4.8913,5.1548,5.3256,5.4928,5.6922,5.7387,5.7374,5.706,5.6584,5.6219,5.6219,5.6219,5.6146,5.5926,5.5889,5.5816,5.5632,5.5819,5.6092,5.6411,5.6979,5.7523,5.8041,5.8402,5.8496,5.8261,5.805,5.7853,5.7616,5.7418,5.7257,5.7227,5.674,5.6332,5.6081,5.5381,5.4856,5.4616,5.4327,5.4025,5.3785,5.4087,5.4351,5.4616,5.4592,5.4447,5.4255,5.5361,5.5361,5.464,5.5169,5.5554,5.577,5.5506,5.5554,5.5794,5.5794,5.5794,5.5746,5.5443,5.5554,5.5746,5.5482,5.5193,5.5145,5.5947,5.5996,5.5963,5.678,5.6981,5.6981,5.6981,5.6981,5.6981,5.6981,5.6981,5.6758,5.5893,5.5708,5.5708,5.5708,5.4265,5.3052,5.297,5.0758,4.8435,4.6826,4.6973,4.7305,4.7519,4.793,4.8229,4.8229,4.8229,4.8327,4.8496,4.8516,4.8659,4.8894,4.8913,4.8913,4.8913,4.8913,4.8913,4.8913,4.8913,4.8913,4.8913,4.8913,4.8913,4.8913,4.8913,4.8913,5.1649,5.4034,5.6369,5.8127,5.8152,5.7625,5.7111,5.6584,5.6219,5.6219,5.6219,5.6219,5.6219,5.6219,5.6244,5.6344,5.6709,5.7049,5.7161,5.777,5.8356,5.868,5.8879,5.9004,5.8901,5.8599,5.8364,5.831,5.7932,5.7795,5.7976,5.7199,5.6663,5.6391,5.5704,5.5077,5.4471,5.4644,5.4427,5.3822,5.4255,5.4471,5.4496,5.5025,5.4977,5.4496,5.5121,5.5097,5.464,5.5169,5.5722,5.6188,5.6188,5.626,5.6332,5.6332,5.6332,5.6308,5.6236,5.626,5.6308,5.6236,5.5875,5.565,5.6164,5.626,5.6308,5.6837,5.6981,5.6981,5.6981,5.6981,5.6981,5.6981,5.6981,5.6598,5.5079,5.4754,5.4754,5.4754,5.3341,5.2514,5.367,5.1474,4.9181,4.8025,4.8304,4.8673,4.8689,4.9124,4.9262,4.894,4.8913,4.8913,4.8913,4.8913,4.8913,4.8913,4.8913,4.8913,4.8913,4.8913,4.8913,4.8913,4.8913,4.8913,4.8913,4.8913,4.8913,4.8913,4.8913,4.8913,4.8987,5.2034,5.5351,5.7474,5.7575,5.7085,5.701,5.6584,5.6219,5.6219,5.6219,5.6219,5.6219,5.6219,5.6369,5.6809,5.6935,5.7035,5.7011,5.7938,5.8465,5.8076,5.8854,5.9251,5.8901,5.8848,5.8692,5.835,5.8271,5.779,5.6895,5.6671,5.6053,5.4762,5.5064,5.4789,5.3942,5.4716,5.4668,5.3785,5.3857,5.3918,5.3942,5.4471,5.4423,5.3966,5.4977,5.5097,5.464,5.5169,5.5722,5.6188,5.6188,5.6476,5.6885,5.6885,5.6885,5.6813,5.6356,5.65,5.6813,5.6332,5.614,5.6188,5.6717,5.6548,5.6308,5.6837,5.6981,5.6981,5.6981,5.6981,5.6981,5.6981,5.6981,5.6941,5.6678,5.6638,5.6638,5.6638,5.516,5.3546,5.2265,5.2009,5.187,5.1679,5.2434,5.2512,5.0916,5.1059,5.0712,4.9078,4.8913,4.8913,4.8913,4.8913,4.8913,4.8913,4.8913,4.8913,4.8913,4.8913,4.8913,4.8913,4.8913,4.8913,4.8913,4.8913,4.8913,4.8913,4.8913,4.8913,4.9916,5.2101,5.4185,5.6394,5.6771,5.6533,5.6533,5.6394,5.6219,5.6219,5.6219,5.6219,5.6219,5.6219,5.6294,5.6483,5.7097,5.7524,5.7524,5.8453,5.9056,5.883,5.9207,5.9431,5.9276,5.9018,5.8926,5.8965,5.8731,5.837,5.7807,5.7269,5.6535,5.5558,5.5223,5.4777,5.416,5.4565,5.456,5.4255,5.3929,5.3966,5.4255,5.4207,5.4039,5.387,5.4616,5.4664,5.4231,5.5049,5.553,5.5818,5.6404,5.6765,5.6981,5.6981,5.6981,5.6957,5.6717,5.6789,5.6933,5.6717,5.6644,5.6668,5.6909,5.6852,5.6692,5.6909,5.6981,5.6981,5.6981,5.6981,5.6981,5.6981,5.6981,5.6981,5.6981,5.6981,5.6981,5.6981,5.5547,5.3842,5.2325,5.138,5.067,5.0122,5.0401,5.0482,4.9955,5.0019,4.9839,4.8986,4.8913,4.8913,4.8913,4.8913,4.8913,4.8913,4.8913,4.8913,4.8913,4.8913,4.8913,4.8913,4.8913,4.8913,4.8913,4.8913,4.8913,4.8913,4.8913,4.8913,4.9866,5.1214,5.2192,5.4587,5.5365,5.5641,5.5942,5.6018,5.6043,5.6168,5.6219,5.6219,5.6219,5.6219,5.6269,5.6358,5.7248,5.7901,5.7901,5.8704,5.9307,5.9307,5.9307,5.9357,5.9483,5.9237,5.9198,5.9508,5.9212,5.8898,5.8516,5.7837,5.7062,5.6216,5.5769,5.5237,5.457,5.4459,5.4541,5.4854,5.4241,5.4227,5.4703,5.4437,5.4316,5.434,5.4523,5.4303,5.3881,5.5121,5.553,5.5506,5.6588,5.6981,5.6981,5.6981,5.6981,5.6981,5.6981,5.6981,5.6981,5.6981,5.6981,5.6981,5.6981,5.6981,5.6981,5.6981,5.6981,5.7005,5.7189,5.7213,5.7213,5.7213,5.7333,5.7381,5.7237,5.7213,5.7213,5.7213,5.624,5.4889,5.3264,5.2109,5.0961,4.9761,4.9693,4.9758,4.9616,4.961,4.9426,4.894,4.8913,4.8913,4.8913,4.8913,4.8913,4.8913,4.8913,4.8913,4.8913,4.8913,4.8913,4.8913,4.8913,4.8913,4.8913,4.8913,4.8913,4.8913,4.8913,4.8913,4.6597,4.7751,4.8837,5.1624,5.308,5.411,5.5189,5.544,5.5591,5.6118,5.6219,5.6219,5.6219,5.6219,5.6394,5.686,5.7499,5.7901,5.7901,5.8403,5.8716,5.8716,5.8716,5.8956,5.9433,5.9508,5.9508,5.9483,5.9508,5.8992,5.8001,5.7901,5.7175,5.5706,5.6576,5.6413,5.4967,5.4608,5.4794,5.5546,5.4756,5.457,5.4979,5.5469,5.5728,5.5765,5.4934,5.4303,5.3905,5.5491,5.5866,5.5506,5.6588,5.6981,5.6981,5.6981,5.6981,5.6981,5.6981,5.6981,5.6981,5.6981,5.6981,5.6981,5.6981,5.6981,5.6981,5.6981,5.6981,5.7141,5.7646,5.7766,5.7766,5.7766,5.8151,5.8367,5.7886,5.7766,5.7766,5.7766,5.8094,5.7625,5.5256,5.5633,5.5568,5.3691,5.3865,5.3549,5.1778,5.1552,5.0894,4.9078,4.8913,4.8913,4.8913,4.8913,4.8913,4.8913,4.8913,4.8913,4.8913,4.8913,4.8913,4.8913,4.8913,4.8913,4.8913,4.8913,4.8913,4.8913,4.8913,4.8913,4.612,4.6973,4.7877,4.9967,5.1322,5.2452,5.3557,5.4637,5.544,5.5641,5.5968,5.6219,5.6219,5.6219,5.6269,5.647,5.6935,5.7474,5.7851,5.8378,5.8855,5.9182,5.9207,5.9282,5.9483,5.9483,5.9483,5.9483,5.9483,5.9182,5.8453,5.8428,5.8001,5.71,5.745,5.7112,5.5893,5.5151,5.4905,5.5226,5.4905,5.4831,5.5004,5.52,5.5299,5.5323,5.5443,5.5561,5.5681,5.5984,5.6183,5.6352,5.6811,5.6981,5.6981,5.6981,5.6981,5.6981,5.6981,5.6981,5.6981,5.6981,5.6981,5.6981,5.6981,5.6981,5.7053,5.743,5.7526,5.7646,5.8175,5.8319,5.8223,5.7886,5.8223,5.8536,5.8343,5.7372,5.6524,5.6524,5.4778,5.308,5.2498,5.1704,5.1063,5.0699,5.0792,5.0666,5.0002,4.9911,4.9656,4.8986,4.8913,4.8913,4.8913,4.8913,4.8913,4.8913,4.8913,4.8913,4.8913,4.8913,4.8913,4.8913,4.8913,4.8913,4.8913,4.8913,4.8913,4.8913,4.8913,4.8913,4.5271,4.612,4.7224,4.8912,4.9924,5.0954,5.2744,5.3909,5.4712,5.5265,5.5817,5.6219,5.6219,5.6219,5.6219,5.6219,5.6634,5.7136,5.7549,5.7888,5.8353,5.8905,5.878,5.8755,5.893,5.8956,5.9031,5.9207,5.9232,5.9006,5.8478,5.8591,5.8453,5.7926,5.77,5.7274,5.6638,5.5683,5.5263,5.5411,5.5263,5.5263,5.5411,5.5411,5.5609,5.6005,5.6223,5.6292,5.6203,5.6304,5.6449,5.6643,5.6884,5.6981,5.6981,5.6981,5.7101,5.7285,5.7285,5.7285,5.7285,5.7285,5.7165,5.7005,5.7197,5.7285,5.7405,5.7935,5.8079,5.8199,5.8728,5.8872,5.8824,5.8656,5.8728,5.8921,5.9089,5.8035,5.6996,5.6996,5.4677,5.2493,5.1938,5.0478,4.9273,4.8947,4.8913,4.8913,4.8913,4.8913,4.8913,4.8913,4.8913,4.8913,4.8913,4.8913,4.8913,4.8913,4.8913,4.8913,4.8913,4.8913,4.8913,4.8913,4.8913,4.8913,4.8913,4.8913,4.8913,4.8913,4.8913,4.8913,0.0,0.0,0.0,4.8316,4.8718,4.9597,5.2829,5.3206,5.3296,5.4963,5.5767,5.6168,5.6194,5.6194,5.6219,5.6219,5.6634,5.6985,5.6985,5.701,5.7236,5.7851,5.7387,5.7261,5.7876,5.7901,5.8102,5.8642,5.8704,5.8478,5.7951,5.8453,5.8478,5.7926,5.7311,5.701,5.6985,5.609,5.5816,5.6219,5.5816,5.5816,5.6219,5.6219,5.6846,5.7851,5.7286,5.6364,5.537,5.6544,5.6708,5.6299,5.6828,5.6981,5.6981,5.6981,5.7333,5.779,5.779,5.7814,5.7814,5.7838,5.7478,5.7125,5.767,5.7838,5.7935,5.8464,5.8608,5.8752,5.9281,5.9402,5.9546,6.0069,5.9762,5.9546,6.0093,5.9804,5.9402,5.936,5.8249,5.6525,5.4062,5.2561,5.1055,4.917,4.8894,4.8894,4.8913,4.8913,4.8913,4.8913,4.8913,4.8913,4.8913,4.8913,4.8913,4.8913,4.8913,4.8913,4.8913,4.8913,4.8913,4.8913,4.8913,4.8913,4.8913,4.8913,4.8913,4.8913,4.8913,4.8913,4.4263,0.0,0.0,0.0,0.0,0.0,5.0167,5.0921,5.1565,5.3256,5.4361,5.5175,5.5541,5.5942,5.6219,5.6219,5.6308,5.6533,5.6935,5.7399,5.7876,5.8428,5.8315,5.829,5.844,5.8127,5.7951,5.8102,5.8504,5.8654,5.8504,5.9006,5.8855,5.7926,5.775,5.7449,5.6985,5.6348,5.6109,5.6219,5.6109,5.6109,5.6219,5.6584,5.6935,5.7261,5.7636,5.7606,5.7287,5.7305,5.7233,5.72,5.7052,5.6981,5.6981,5.6981,5.7077,5.7285,5.767,5.7814,5.7862,5.8247,5.8271,5.8199,5.8343,5.8367,5.8488,5.9017,5.9161,5.9281,5.981,5.9997,5.9948,5.9666,5.9786,5.9883,5.9642,5.9828,5.9553,5.8239,5.655,5.4632,5.262,5.1673,5.0752,4.9131,4.8594,4.8496,4.8855,4.8913,4.8913,4.8913,4.8913,4.8913,4.8913,4.8913,4.8913,4.8913,4.8913,4.8913,4.8913,4.8913,4.8913,4.8913,4.8913,4.8913,4.8913,4.8913,4.8913,4.8913,4.8913,4.8913,0.0,0.0,4.5422,4.723,0.0,0.0,4.9741,5.0368,5.0896,5.2544,5.3607,5.4421,5.4974,5.5491,5.5867,5.5867,5.6068,5.6319,5.6609,5.7136,5.765,5.7939,5.7989,5.7989,5.7989,5.7524,5.7298,5.7524,5.7788,5.819,5.8666,5.878,5.8554,5.7926,5.7901,5.7499,5.6659,5.6369,5.6219,5.6219,5.6219,5.6219,5.6219,5.6508,5.691,5.7387,5.7837,5.8056,5.8193,5.8143,5.7991,5.7877,5.766,5.7573,5.7582,5.7638,5.7814,5.8055,5.8367,5.8464,5.8512,5.8824,5.8776,5.8632,5.8848,5.8921,5.9041,5.957,5.9714,5.9828,6.0141,6.0213,6.0141,5.9828,5.9955,6.0117,5.9786,5.9997,5.9877,5.8747,5.703,5.5356,5.4256,5.2578,5.1308,5.124,4.9646,4.8875,4.9937,4.938,4.8913,4.8913,4.8913,4.8913,4.8913,4.8913,4.8913,4.8913,4.8913,4.8913,4.8913,4.8913,4.8913,4.8913,4.8913,4.8913,4.8913,4.8913,4.8913,4.8913,4.8913,4.8913,0.0,0.0,0.0,0.0,4.8309,0.0,5.0494,5.0645,5.0637,5.2192,5.298,5.3507,5.4044,5.4647,5.5013,5.5013,5.5591,5.6068,5.6194,5.6659,5.701,5.7085,5.7035,5.7035,5.7085,5.6533,5.642,5.686,5.696,5.7437,5.844,5.8177,5.7901,5.7725,5.7826,5.7349,5.6219,5.6219,5.6219,5.6219,5.6219,5.6244,5.6294,5.6369,5.6972,5.8001,5.8052,5.8209,5.8453,5.8995,5.8866,5.8236,5.8376,5.841,5.8419,5.8538,5.8897,5.9305,5.9353,5.9378,5.9402,5.945,5.9161,5.8848,5.9329,5.9474,5.957,6.0093,6.0213,6.0213,6.0213,6.0213,6.0213,6.0213,6.0213,6.0213,6.0213,6.0213,6.0129,5.9961,5.8535,5.7355,5.7139,5.4213,5.2368,5.3703,5.115,4.9688,5.1191,4.9911,4.8913,4.8913,4.8913,4.8913,4.8913,4.8913,4.8913,4.8913,4.8913,4.8913,4.8913,4.8913,4.8933,4.8972,4.9031,4.9031,4.8972,4.8933,4.8913,4.8913,4.8913,4.8913,0.0,0.0,0.0,0.0,0.0,0.0,4.959,4.9522,4.9346,5.0092,5.067,5.1096,5.1197,5.2051,5.2754,5.2754,5.3959,5.5189,5.6093,5.6659,5.7161,5.7675,5.7286,5.7186,5.7675,5.6821,5.6244,5.6369,5.6759,5.7085,5.7311,5.8089,5.7951,5.657,5.7424,5.7349,5.6219,5.6219,5.6219,5.6219,5.6219,5.6445,5.686,5.7349,5.7926,5.8579,5.9006,5.923,5.9326,5.9837,5.9197,5.796,5.841,5.8562,5.8562,5.8601,5.8656,5.88,5.9233,5.9378,5.945,5.9883,5.9955,5.9924,6.0003,6.0069,6.0093,6.0189,6.0213,6.0213,6.0213,6.0213,6.0213,6.0213,6.0213,6.0213,6.0213,6.0213,5.9726,5.8236,5.7656,5.6901,5.5356,5.4194,5.2677,5.0353,5.0362,5.0351,4.957,4.9124,4.8913,4.8913,4.8913,4.8913,4.8913,4.8913,4.8913,4.8913,4.8913,4.8913,4.8913,4.8913,4.907,4.9394,4.9746,4.9746,4.9394,4.9089,4.8913,4.8913,4.8913,4.8913,0.0,0.0,0.0,4.7933,0.0,0.0,0.0,4.8736,4.8586,4.9414,4.9364,4.9414,5.0235,5.1122,5.1774,5.2076,5.3708,5.4963,5.4963,5.6107,5.7111,5.7424,5.7161,5.7111,5.7412,5.6696,5.6319,5.6559,5.6584,5.6835,5.7424,5.8001,5.7801,5.6634,5.7449,5.7349,5.6219,5.6219,5.6219,5.6219,5.6458,5.6734,5.701,5.7625,5.8202,5.8755,5.9282,5.9542,5.9648,6.0472,6.0181,5.9301,5.9772,5.9829,5.9674,5.9966,5.975,5.9467,5.994,5.9995,5.981,6.0117,6.0213,6.0213,6.0213,6.0213,6.0213,6.0213,6.0213,6.0213,6.0213,6.0213,6.0213,6.0213,6.0213,6.0213,6.0213,6.0213,5.9919,5.8983,5.7246,5.5662,5.4675,5.3554,5.2559,5.1781,5.0755,5.008,5.0282,4.9472,4.8913,4.8913,4.8913,4.8913,4.8913,4.8913,4.8913,4.8913,4.8913,4.8913,4.8913,4.8913,4.9062,4.9465,4.9961,5.0078,4.9844,4.9414,4.9128,4.8913,4.8913,4.8913,0.0,0.0,0.0,0.0,0.0,4.7877,0.0,0.0,0.0,4.8962,4.8385,4.8134,4.9389,5.0167,5.0745,5.1096,5.3181,5.4411,5.3381,5.4928,5.6282,5.6483,5.6609,5.6734,5.6835,5.6132,5.6043,5.6784,5.6168,5.6269,5.7499,5.7775,5.7625,5.701,5.76,5.7399,5.6369,5.6269,5.6269,5.6369,5.6784,5.7111,5.7336,5.7851,5.8353,5.8867,5.9433,5.9715,5.99,6.0995,6.1241,6.0981,6.1242,6.1129,6.09,6.1317,6.1049,6.0507,6.0716,6.059,6.0297,6.0213,6.0213,6.0213,6.0213,6.0213,6.0213,6.0213,6.0213,6.0213,6.0213,6.0213,6.0213,6.0213,6.0213,6.0213,6.0213,6.0213,6.0087,5.9726,5.716,5.4939,5.4543,5.2968,5.2072,5.3259,5.1145,4.9885,5.103,4.9839,4.8913,4.8913,4.8913,4.8913,4.8913,4.8913,4.8913,4.8913,4.8913,4.8913,4.8913,4.8991,4.9238,4.9718,5.0117,5.0293,5.0293,4.9863,4.9414,4.9031,4.8952,4.8913,0.0,0.0,0.0,0.0,4.9038,0.0,0.0,0.0,4.8435,4.755,0.0,4.7099,4.6828,0.0,0.0,4.7726,5.0393,5.2251,5.1682,5.2628,5.3758,5.4773,5.529,5.5767,5.6269,5.4888,5.4637,5.6194,5.4863,5.4687,5.6319,5.7349,5.7625,5.701,5.76,5.76,5.691,5.6433,5.6433,5.691,5.696,5.7512,5.8491,5.8604,5.8905,5.9433,5.9985,6.0222,6.0333,6.1462,6.1873,6.1842,6.1581,6.1449,6.1416,6.1465,6.1423,6.1316,6.09,6.0799,6.0674,6.0339,6.0213,6.0213,6.0213,6.0213,6.0213,6.0213,6.0213,6.0213,6.0213,6.0213,6.0213,6.0213,6.0213,6.0213,6.0213,6.0213,5.9726,5.8042,5.7355,5.6488,5.4807,5.2968,5.1191,4.9748,5.0575,5.0848,4.938,4.9032,4.8913,4.8913,4.8913,4.8913,4.8913,4.8913,4.8913,4.8913,4.8913,4.8913,4.8913,4.9238,4.9824,5.0644,5.0703,5.0742,5.0723,5.0312,4.9883,4.9433,4.9089,4.8913,0.0,0.0,0.0,0.0,0.0,0.0,0.0,0.0,4.7305,0.0,0.0,0.0,0.0,0.0,0.0,0.0,5.0067,5.1322,5.0419,5.1548,5.298,5.4421,5.421,5.4436,5.5616,5.4511,5.4411,5.6093,5.4662,5.4436,5.6118,5.6972,5.7148,5.6533,5.7424,5.7474,5.6533,5.6609,5.6759,5.6985,5.7336,5.7951,5.8716,5.9319,5.9759,6.001,6.0914,6.1291,6.1366,6.2144,6.243,6.2455,6.2313,6.1961,6.1548,6.1796,6.1423,6.0733,6.0799,6.0674,6.0423,6.0255,6.0213,6.0213,6.0213,6.0213,6.0213,6.0213,6.0213,6.0213,6.0213,6.0213,6.0213,6.0213,6.0213,6.0213,6.0213,5.9322,5.8364,5.757,5.5618,5.3858,5.3013,5.2207,5.1075,4.917,4.9564,4.9793,4.8986,4.8913,4.8913,4.8913,4.8913,4.8913,4.8913,4.8913,4.8913,4.8913,4.8913,4.9011,4.9238,4.9433,4.9824,5.043,5.0449,5.0566,5.0801,5.0137,4.9707,4.9465,4.9109,4.8913,4.8711,0.0,0.0,0.0,0.0,0.0,0.0,0.0,0.0,0.0,0.0,0.0,0.0,0.0,0.0,0.0,0.0,5.0469,4.9515,5.0419,5.1749,5.3256,5.313,5.3406,5.4612,5.3406,5.3457,5.5591,5.3934,5.3733,5.5867,5.6483,5.6734,5.6671,5.7474,5.7575,5.6897,5.7148,5.7311,5.7462,5.7926,5.8403,5.8956,5.9885,6.0311,6.0387,6.1517,6.1994,6.2044,6.2596,6.2781,6.2781,6.2781,6.2372,6.173,6.2208,6.1672,6.0757,6.0924,6.0632,6.0213,6.0213,6.0213,6.0213,6.0213,6.0213,6.0213,6.0213,6.0213,6.0213,6.0213,6.0213,6.0213,6.0213,6.0213,6.0213,6.0213,5.9111,5.8022,5.7484,5.5181,5.2924,5.1868,5.1281,5.0484,4.9124,4.8913,4.8913,4.8913,4.8913,4.8913,4.8913,4.8913,4.8913,4.8913,4.8913,4.8913,4.8913,4.8913,4.9167,4.9687,4.9473,4.9707,5.0508,5.0293,5.0449,5.0976,5.0117,4.9766,4.9863,4.9226,4.8913,0.0,0.0,0.0,4.9195,0.0,0.0,0.0,0.0,4.7581,0.0,0.0,0.0,0.0,0.0,0.0,0.0,0.0,0.0,0.0,4.8868,4.9321,5.0386,5.1916,5.292,5.297,5.1021,5.1096,5.4396,5.2076,5.195,5.5239,5.5942,5.6721,5.7801,5.7876,5.8127,5.8591,5.8127,5.8127,5.8641,5.8641,5.8981,5.9483,6.006,6.0311,6.0387,6.1517,6.1994,6.2044,6.2596,6.2781,6.2781,6.2781,6.2536,6.2208,6.2618,6.2495,6.2043,6.1655,6.0949,6.0213,6.0213,6.0213,6.0213,6.0213,6.0213,6.0213,6.0213,6.0213,6.0213,6.0213,6.0213,6.0213,6.0213,6.0213,6.0213,6.0213,6.0171,5.9558,5.7742,5.7312,5.6033,5.2342,5.0185,4.8986,4.8894,4.8913,4.8913,4.8913,4.8913,4.8913,4.8913,4.8913,4.8913,4.8913,4.8913,4.8913,4.8913,4.8913,4.9285,5.0117,4.9382,4.9668,5.1319,5.0586,5.0586,5.1358,5.0566,5.0371,5.0742,4.95,4.8913,0.0,0.0,5.1423,4.9741,0.0,0.0,0.0,0.0,0.0,0.0,0.0,0.0,0.0,0.0,0.0,0.0,0.0,0.0,0.0,4.8837,4.959,5.0318,5.1574,5.2226,5.1875,5.0795,5.0921,5.2804,5.2076,5.2503,5.4773,5.5717,5.6545,5.7261,5.77,5.8001,5.8177,5.8353,5.8529,5.8691,5.8691,5.9182,6.006,6.0638,6.109,6.1466,6.222,6.2546,6.2531,6.2706,6.2781,6.2781,6.2781,6.27,6.2577,6.2454,6.1919,6.1216,6.0799,6.0423,6.0213,6.0213,6.0213,6.0213,6.0213,6.0213,6.0213,6.0213,6.0213,6.0213,6.0213,6.0213,6.0213,6.0213,6.0213,6.0213,6.0213,5.9195,5.815,5.7527,5.5356,5.3236,5.1913,5.0139,4.8913,4.8913,4.8913,4.8913,4.8913,4.8913,4.8913,4.8913,4.8913,4.8913,4.8913,4.8913,4.9148,4.9734,4.9453,4.9687,5.0566,5.0039,5.0137,5.0996,5.0469,5.0449,5.1016,5.0449,5.0098,4.9941,4.9512,4.9297,5.1398,5.1825,0.0,5.0569,5.0469,0.0,4.8837,0.0,0.0,0.0,0.0,0.0,0.0,0.0,0.0,0.0,0.0,0.0,0.0,4.8887,4.9791,5.0343,5.1247,5.1749,5.1599,5.0695,5.067,5.2,5.1724,5.2302,5.4195,5.5139,5.6143,5.7261,5.7499,5.7876,5.8453,5.8629,5.8805,5.9006,5.9207,5.962,6.0337,6.1115,6.1667,6.2044,6.2556,6.2781,6.2781,6.2781,6.2781,6.2781,6.2781,6.2781,6.2781,6.2495,6.1961,6.1216,6.0632,6.0423,6.0381,6.0255,6.0213,6.0213,6.0213,6.0213,6.0213,6.0213,6.0213,6.0213,6.0213,6.0213,6.0213,6.0213,6.0213,6.0045,5.9346,5.8236,5.6987,5.5618,5.3369,5.1507,5.0803,4.9702,4.8913,4.8913,4.8913,4.8913,4.8913,4.8913,4.8913,4.8913,4.8913,4.8913,4.8913,4.905,4.9277,4.9734,4.9746,5.0,5.0566,5.0312,5.0449,5.1016,5.0625,5.0605,5.1035,5.0605,5.0254,4.998,4.9621,4.9484]},{"header":{"parameterUnit":"m.s-1","parameterCategory":1,"la1":30.6,"la2":29.2853,"lo1":-89.7004,"lo2":-87.6739,"dy":0.0162,"dx":0.0183,"nx":112,"ny":82,"refTime":"2024-10-03T06:00:00:Z","depth":0,"parameterNumber":3,"parameterNumberName":"V-component_of_WINDS"},"data":[0.0,0.0,0.0,0.0,0.0,0.0,0.0,0.0,0.0,0.0,0.0,0.0,0.0,0.0,0.0,0.0,0.0,0.0,0.0,0.0,0.0,0.0,0.0,0.0,0.0,0.0,0.0,0.0,0.0,0.0,0.0,0.0,0.0,0.0,0.0,0.0,0.0,0.0,0.0,0.0,0.0,0.0,0.0,0.0,0.0,0.0,0.0,0.0,0.0,0.0,0.0,0.0,0.0,0.0,0.0,0.0,0.0,0.0,0.0,0.0,0.0,0.0,0.0,0.0,0.0,0.0,0.0,0.0,0.0,0.0,0.0,0.0,0.0,0.0,0.0,0.0,0.0,0.0,0.0,0.0,0.0,0.0,0.0,0.0,0.0,0.0,0.0,0.0,0.0,0.0,0.0,4.0185,4.194,4.2743,4.198,4.1921,4.0755,3.8066,0.0,0.0,0.0,0.0,0.0,0.0,0.0,0.0,0.0,0.0,0.0,0.0,0.0,0.0,0.0,0.0,0.0,0.0,0.0,0.0,0.0,0.0,0.0,0.0,0.0,0.0,0.0,0.0,0.0,0.0,0.0,0.0,0.0,0.0,0.0,0.0,0.0,0.0,0.0,0.0,0.0,0.0,0.0,0.0,0.0,0.0,0.0,0.0,0.0,0.0,0.0,0.0,0.0,0.0,0.0,0.0,0.0,0.0,0.0,0.0,0.0,0.0,0.0,0.0,0.0,0.0,0.0,0.0,0.0,0.0,0.0,0.0,0.0,0.0,0.0,0.0,0.0,0.0,0.0,0.0,0.0,0.0,0.0,0.0,0.0,0.0,0.0,0.0,0.0,0.0,0.0,0.0,0.0,0.0,0.0,0.0,0.0,0.0,0.0,0.0,0.0,0.0,0.0,0.0,3.888,4.0999,4.2433,4.2792,4.1586,4.1496,4.045,3.8055,0.0,0.0,0.0,0.0,0.0,0.0,0.0,0.0,0.0,0.0,0.0,0.0,0.0,0.0,0.0,0.0,0.0,0.0,0.0,0.0,0.0,0.0,0.0,0.0,0.0,0.0,0.0,0.0,0.0,0.0,0.0,0.0,0.0,0.0,0.0,0.0,0.0,0.0,0.0,0.0,0.0,0.0,0.0,0.0,0.0,0.0,0.0,0.0,0.0,0.0,0.0,0.0,0.0,0.0,0.0,0.0,0.0,0.0,0.0,0.0,0.0,0.0,0.0,0.0,0.0,0.0,0.0,0.0,0.0,0.0,0.0,0.0,0.0,0.0,0.0,0.0,0.0,0.0,0.0,0.0,0.0,0.0,0.0,0.0,0.0,0.0,0.0,0.0,0.0,0.0,0.0,0.0,0.0,0.0,0.0,0.0,0.0,0.0,0.0,0.0,0.0,0.0,0.0,3.9062,3.9802,4.1743,4.2451,4.2282,4.0965,4.0846,3.9861,3.7494,3.6431,0.0,0.0,0.0,0.0,0.0,0.0,0.0,0.0,0.0,0.0,0.0,0.0,0.0,0.0,0.0,0.0,0.0,0.0,0.0,0.0,0.0,0.0,0.0,0.0,0.0,0.0,0.0,0.0,0.0,0.0,0.0,0.0,0.0,0.0,0.0,0.0,0.0,0.0,0.0,0.0,0.0,0.0,0.0,0.0,0.0,0.0,0.0,0.0,0.0,0.0,0.0,0.0,0.0,0.0,0.0,0.0,0.0,0.0,0.0,0.0,0.0,0.0,0.0,0.0,0.0,0.0,0.0,0.0,0.0,0.0,0.0,0.0,0.0,0.0,0.0,0.0,0.0,0.0,0.0,0.0,0.0,0.0,0.0,0.0,0.0,0.0,0.0,0.0,0.0,0.0,0.0,0.0,0.0,0.0,0.0,0.0,0.0,0.0,0.0,0.0,0.0,0.0,4.0631,4.1043,4.2062,4.2171,4.1613,4.0277,4.0008,3.8996,3.6832,3.5339,0.0,0.0,0.0,0.0,0.0,0.0,0.0,0.0,0.0,0.0,0.0,0.0,0.0,0.0,0.0,0.0,0.0,0.0,0.0,0.0,0.0,0.0,0.0,0.0,0.0,0.0,0.0,0.0,0.0,0.0,0.0,0.0,0.0,0.0,0.0,0.0,0.0,0.0,0.0,0.0,0.0,0.0,0.0,0.0,0.0,0.0,0.0,0.0,0.0,0.0,0.0,0.0,0.0,0.0,0.0,0.0,0.0,0.0,0.0,0.0,0.0,0.0,0.0,0.0,0.0,0.0,0.0,0.0,0.0,0.0,0.0,0.0,0.0,0.0,0.0,0.0,0.0,0.0,0.0,0.0,0.0,0.0,0.0,0.0,0.0,0.0,0.0,0.0,0.0,0.0,0.0,0.0,0.0,0.0,0.0,0.0,0.0,0.0,0.0,0.0,0.0,0.0,4.0907,4.2032,4.1523,4.1463,4.0924,3.9571,3.8901,3.7834,3.6182,3.4217,0.0,0.0,0.0,0.0,0.0,0.0,0.0,0.0,0.0,0.0,0.0,0.0,0.0,0.0,0.0,0.0,0.0,0.0,0.0,0.0,0.0,0.0,0.0,0.0,0.0,0.0,0.0,0.0,0.0,0.0,0.0,0.0,0.0,0.0,0.0,0.0,0.0,0.0,0.0,0.0,0.0,0.0,0.0,0.0,0.0,0.0,0.0,0.0,0.0,0.0,0.0,0.0,0.0,0.0,0.0,0.0,0.0,0.0,0.0,0.0,0.0,0.0,0.0,0.0,0.0,0.0,0.0,0.0,0.0,0.0,0.0,0.0,0.0,0.0,0.0,0.0,0.0,0.0,0.0,0.0,0.0,0.0,0.0,0.0,0.0,0.0,0.0,0.0,0.0,0.0,0.0,0.0,0.0,0.0,0.0,0.0,0.0,0.0,0.0,0.0,0.0,0.0,4.0486,4.1558,0.0,4.1403,4.0846,3.9511,3.8781,3.7767,3.62,0.0,0.0,0.0,0.0,0.0,0.0,0.0,0.0,0.0,0.0,0.0,0.0,0.0,0.0,0.0,0.0,0.0,0.0,0.0,0.0,0.0,0.0,0.0,0.0,0.0,0.0,0.0,0.0,0.0,0.0,0.0,0.0,0.0,0.0,0.0,0.0,0.0,0.0,0.0,0.0,0.0,0.0,0.0,0.0,0.0,0.0,0.0,0.0,0.0,0.0,0.0,0.0,0.0,0.0,0.0,0.0,0.0,0.0,0.0,0.0,0.0,0.0,0.0,0.0,0.0,0.0,0.0,0.0,0.0,0.0,0.0,0.0,0.0,0.0,0.0,0.0,0.0,0.0,0.0,0.0,0.0,0.0,0.0,0.0,0.0,0.0,0.0,0.0,0.0,0.0,0.0,0.0,0.0,0.0,0.0,0.0,0.0,0.0,0.0,0.0,0.0,0.0,3.8818,4.0445,4.1569,0.0,4.1523,4.0954,3.981,3.8721,3.7455,3.5974,0.0,0.0,0.0,0.0,0.0,0.0,0.0,0.0,0.0,0.0,0.0,0.0,0.0,0.0,0.0,0.0,0.0,0.0,0.0,0.0,0.0,0.0,0.0,0.0,0.0,0.0,0.0,0.0,0.0,0.0,0.0,0.0,0.0,0.0,0.0,0.0,0.0,0.0,0.0,0.0,0.0,0.0,0.0,0.0,0.0,0.0,0.0,0.0,0.0,0.0,0.0,0.0,0.0,0.0,0.0,0.0,0.0,0.0,0.0,0.0,0.0,0.0,0.0,0.0,0.0,0.0,0.0,0.0,0.0,0.0,0.0,0.0,0.0,0.0,0.0,0.0,0.0,0.0,0.0,0.0,0.0,0.0,0.0,0.0,0.0,0.0,0.0,0.0,0.0,0.0,0.0,0.0,0.0,0.0,0.0,0.0,0.0,0.0,0.0,0.0,0.0,0.0,3.9119,4.1051,4.241,4.241,4.1792,4.1134,4.0457,3.8571,3.6798,0.0,0.0,0.0,0.0,0.0,0.0,0.0,0.0,0.0,0.0,0.0,0.0,0.0,0.0,0.0,0.0,0.0,0.0,0.0,0.0,0.0,0.0,0.0,0.0,0.0,0.0,0.0,0.0,0.0,0.0,0.0,0.0,0.0,0.0,0.0,0.0,0.0,0.0,0.0,0.0,0.0,0.0,0.0,0.0,0.0,0.0,0.0,0.0,0.0,0.0,0.0,0.0,0.0,0.0,0.0,0.0,0.0,0.0,0.0,0.0,0.0,0.0,0.0,0.0,0.0,0.0,0.0,0.0,0.0,0.0,0.0,0.0,0.0,0.0,0.0,0.0,0.0,0.0,0.0,0.0,0.0,0.0,0.0,0.0,0.0,0.0,0.0,0.0,0.0,0.0,0.0,0.0,0.0,0.0,0.0,0.0,0.0,0.0,0.0,0.0,0.0,0.0,0.0,3.9821,4.2106,4.3569,4.309,4.2481,4.1643,4.0487,3.899,3.7327,3.5544,0.0,0.0,0.0,0.0,0.0,0.0,0.0,0.0,0.0,0.0,0.0,0.0,0.0,0.0,0.0,0.0,0.0,0.0,0.0,0.0,0.0,0.0,0.0,0.0,0.0,0.0,0.0,0.0,0.0,0.0,0.0,0.0,0.0,0.0,0.0,0.0,0.0,0.0,0.0,0.0,0.0,0.0,0.0,0.0,0.0,0.0,0.0,0.0,0.0,0.0,0.0,0.0,0.0,0.0,0.0,0.0,0.0,0.0,0.0,0.0,0.0,0.0,0.0,0.0,0.0,0.0,0.0,0.0,0.0,0.0,0.0,0.0,0.0,0.0,0.0,0.0,0.0,0.0,0.0,0.0,0.0,0.0,0.0,0.0,0.0,0.0,0.0,0.0,0.0,0.0,0.0,0.0,0.0,0.0,0.0,0.0,0.0,0.0,0.0,0.0,0.0,0.0,4.017,4.2623,4.4147,4.3758,4.3359,4.2631,4.1313,3.9966,3.8362,3.6387,0.0,0.0,0.0,0.0,0.0,0.0,0.0,0.0,0.0,0.0,0.0,0.0,0.0,0.0,0.0,0.0,0.0,0.0,0.0,0.0,0.0,0.0,0.0,0.0,0.0,0.0,0.0,0.0,0.0,0.0,0.0,0.0,0.0,0.0,0.0,0.0,0.0,0.0,0.0,0.0,0.0,0.0,0.0,0.0,0.0,0.0,0.0,0.0,0.0,0.0,0.0,0.0,0.0,0.0,0.0,0.0,0.0,0.0,0.0,0.0,0.0,0.0,0.0,0.0,0.0,0.0,0.0,0.0,0.0,0.0,0.0,0.0,0.0,0.0,0.0,0.0,0.0,0.0,0.0,0.0,0.0,0.0,0.0,0.0,0.0,0.0,0.0,0.0,0.0,0.0,0.0,0.0,0.0,0.0,0.0,0.0,0.0,0.0,0.0,0.0,0.0,0.0,4.0487,4.2821,4.4386,4.4386,4.4326,4.3778,4.25,4.1164,3.9559,3.7614,0.0,0.0,0.0,0.0,0.0,0.0,0.0,0.0,0.0,0.0,0.0,0.0,0.0,0.0,0.0,0.0,0.0,0.0,0.0,0.0,0.0,0.0,0.0,0.0,0.0,0.0,0.0,0.0,0.0,0.0,0.0,0.0,0.0,0.0,0.0,0.0,0.0,0.0,0.0,0.0,0.0,0.0,0.0,0.0,0.0,0.0,0.0,0.0,0.0,0.0,0.0,0.0,0.0,0.0,0.0,0.0,0.0,0.0,0.0,0.0,4.0935,0.0,0.0,0.0,0.0,0.0,0.0,0.0,0.0,0.0,0.0,0.0,0.0,0.0,0.0,0.0,0.0,0.0,0.0,0.0,0.0,0.0,0.0,0.0,0.0,0.0,0.0,0.0,0.0,0.0,0.0,0.0,0.0,0.0,0.0,0.0,0.0,0.0,0.0,0.0,0.0,0.0,4.1901,4.3798,4.5095,4.5095,4.4616,4.3778,4.25,4.1164,3.9768,3.8272,3.6357,0.0,0.0,0.0,0.0,0.0,0.0,0.0,0.0,0.0,0.0,0.0,0.0,0.0,0.0,0.0,0.0,0.0,0.0,0.0,0.0,0.0,0.0,0.0,0.0,0.0,0.0,0.0,0.0,0.0,0.0,0.0,0.0,0.0,0.0,0.0,0.0,0.0,0.0,0.0,0.0,0.0,0.0,0.0,0.0,0.0,0.0,0.0,0.0,0.0,0.0,0.0,0.0,0.0,0.0,0.0,0.0,0.0,0.0,0.0,0.0,4.2622,0.0,0.0,0.0,0.0,0.0,0.0,0.0,0.0,0.0,0.0,0.0,0.0,0.0,0.0,0.0,0.0,0.0,0.0,0.0,0.0,0.0,0.0,0.0,0.0,0.0,0.0,0.0,0.0,0.0,0.0,0.0,0.0,0.0,0.0,0.0,0.0,0.0,0.0,0.0,0.0,4.2261,4.4098,4.5304,4.5304,4.4975,4.4257,4.294,4.1942,4.0924,3.9906,3.7973,0.0,0.0,0.0,0.0,0.0,0.0,0.0,0.0,0.0,0.0,0.0,0.0,0.0,0.0,0.0,0.0,0.0,0.0,0.0,0.0,0.0,0.0,0.0,0.0,0.0,0.0,0.0,0.0,0.0,0.0,0.0,0.0,0.0,0.0,0.0,0.0,0.0,0.0,0.0,0.0,0.0,0.0,0.0,0.0,0.0,0.0,0.0,0.0,0.0,0.0,0.0,0.0,0.0,4.6129,4.6586,4.6823,4.7997,4.8584,4.8593,4.6548,4.6068,4.6582,4.5214,0.0,0.0,0.0,0.0,0.0,0.0,0.0,0.0,0.0,0.0,0.0,0.0,0.0,0.0,0.0,0.0,0.0,0.0,0.0,0.0,0.0,0.0,0.0,0.0,4.7317,4.704,0.0,0.0,0.0,0.0,0.0,0.0,0.0,0.0,0.0,0.0,0.0,0.0,4.2541,4.4337,4.5424,4.5304,4.5304,4.4766,4.3409,4.275,4.2171,4.1613,3.9817,3.8512,0.0,0.0,0.0,0.0,0.0,0.0,0.0,0.0,0.0,0.0,0.0,0.0,0.0,0.0,0.0,0.0,0.0,0.0,0.0,0.0,0.0,0.0,0.0,0.0,0.0,0.0,0.0,0.0,0.0,0.0,0.0,0.0,4.5132,4.4206,0.0,0.0,0.0,0.0,0.0,0.0,0.0,0.0,0.0,0.0,0.0,0.0,0.0,4.6699,4.7355,4.7983,4.8338,4.845,4.9118,4.9443,4.9496,5.0255,5.0924,5.144,5.1129,0.0,4.817,4.6655,0.0,0.0,0.0,0.0,0.0,0.0,0.0,0.0,0.0,0.0,0.0,0.0,0.0,0.0,0.0,0.0,0.0,0.0,0.0,0.0,0.0,0.0,5.0301,4.9187,4.9374,4.9561,0.0,4.6043,4.3698,4.2951,4.1874,0.0,0.0,0.0,0.0,0.0,0.0,0.0,4.3898,4.5284,4.5942,4.5364,4.5304,4.4766,4.3409,4.275,4.2351,4.2261,4.0924,4.0098,4.0008,3.9272,0.0,0.0,0.0,0.0,0.0,0.0,0.0,0.0,0.0,0.0,0.0,0.0,0.0,0.0,0.0,0.0,0.0,0.0,0.0,0.0,0.0,0.0,0.0,0.0,0.0,0.0,0.0,0.0,0.0,4.4625,4.648,4.5523,4.6271,4.6031,0.0,0.0,0.0,0.0,0.0,0.0,0.0,0.0,0.0,4.7651,4.8341,4.8849,4.9131,4.9435,5.0017,5.0911,5.1216,5.1803,5.265,5.2956,5.3262,5.3484,5.2971,5.2375,5.1676,4.9337,4.799,4.7295,0.0,0.0,0.0,0.0,4.6902,4.7284,4.8188,4.8895,4.9227,4.8171,0.0,0.0,0.0,0.0,0.0,0.0,0.0,0.0,0.0,0.0,5.0809,5.0651,5.0663,5.0697,5.0421,4.8925,4.7108,0.0,4.4536,4.3479,4.1343,0.0,0.0,0.0,0.0,4.3389,4.4706,4.5702,4.6181,4.5882,4.5514,4.4915,4.3938,4.325,4.291,4.291,4.2032,4.1673,4.2023,4.1055,4.0437,0.0,0.0,0.0,0.0,0.0,0.0,0.0,0.0,0.0,0.0,0.0,0.0,0.0,0.0,0.0,0.0,0.0,0.0,0.0,0.0,0.0,0.0,0.0,0.0,0.0,0.0,0.0,0.0,4.5975,4.7575,4.6715,4.7589,4.7293,0.0,0.0,0.0,0.0,0.0,0.0,4.807,4.94,5.0153,5.0218,5.0859,5.1133,5.095,5.1133,5.1742,5.2726,5.291,5.3615,5.4706,5.4891,5.4952,5.4922,5.4212,5.4135,5.4265,5.1431,5.0073,4.9686,4.8866,4.8529,4.862,4.906,4.9309,4.9626,5.0629,5.1122,5.1091,5.0081,4.9556,4.8979,4.7532,0.0,0.0,0.0,0.0,4.937,5.0034,5.0578,5.1061,5.1597,5.1509,5.1293,5.1293,5.0863,4.983,0.0,4.6899,4.5702,4.309,0.0,0.0,0.0,0.0,4.4237,4.5424,4.6121,4.642,4.6061,4.5603,4.5035,4.4356,4.3698,4.3349,4.3549,4.312,4.3208,4.3856,4.3141,4.2924,4.3353,0.0,0.0,0.0,0.0,0.0,0.0,0.0,0.0,0.0,0.0,0.0,0.0,0.0,0.0,0.0,0.0,0.0,0.0,0.0,0.0,0.0,0.0,0.0,0.0,0.0,0.0,0.0,0.0,0.0,4.7701,4.9488,0.0,0.0,0.0,0.0,4.8684,4.9435,5.0222,5.1031,5.2398,5.3277,5.3461,5.4106,5.416,5.3514,5.416,5.4191,5.3637,5.4283,5.4621,5.4737,5.5376,5.5653,5.5653,5.5592,5.5229,5.4506,5.1995,5.1296,5.1774,5.1106,5.081,5.0863,5.0871,5.1266,5.1751,5.1182,5.1425,5.1941,5.185,5.0992,4.9921,4.983,4.9374,0.0,0.0,5.0332,5.1038,5.1706,5.1888,5.1918,5.1949,5.1764,5.1572,5.1572,5.1333,5.0936,0.0,4.8514,4.701,4.6181,0.0,4.4177,4.4147,4.4766,4.5454,4.6151,4.6839,4.677,4.5484,4.5304,4.5035,4.4356,4.3698,4.3579,4.4207,4.4207,4.4579,4.5456,4.6049,4.6167,4.5728,4.4299,0.0,0.0,0.0,0.0,0.0,0.0,0.0,0.0,0.0,0.0,0.0,0.0,0.0,0.0,0.0,0.0,0.0,0.0,0.0,0.0,0.0,0.0,0.0,0.0,0.0,0.0,0.0,0.0,4.9169,5.0613,0.0,4.9487,4.9861,5.0293,5.0537,5.1678,5.2526,5.2839,5.4152,5.4698,5.4368,5.4983,5.5037,5.4368,5.4583,5.4799,5.5007,5.5222,5.5592,5.6077,5.6293,5.6416,5.6385,5.5923,5.5807,5.5899,5.4113,5.3254,5.304,5.2658,5.2765,5.3131,5.265,5.262,5.2765,5.226,5.2244,5.2458,5.2458,5.2144,5.1745,5.1745,5.1473,5.1155,5.1399,5.1644,5.1895,5.2109,5.217,5.217,5.217,5.2017,5.1857,5.1857,5.1649,5.1396,5.1132,5.0064,4.8574,4.6629,4.6241,4.5933,4.5065,4.5493,4.6181,4.686,4.716,4.713,4.6651,4.6181,4.5852,4.5613,4.4596,4.4268,4.5017,4.466,4.4987,4.6241,4.6529,4.681,4.712,4.6156,4.4949,0.0,0.0,0.0,0.0,0.0,0.0,0.0,0.0,0.0,0.0,0.0,0.0,0.0,0.0,0.0,0.0,0.0,0.0,0.0,0.0,0.0,0.0,0.0,0.0,0.0,4.8503,5.0257,5.0435,5.1895,5.249,5.1414,5.2038,5.2503,5.2503,5.3684,5.4368,5.4368,5.5438,5.5869,5.5438,5.5838,5.5745,5.5045,5.526,5.5499,5.5684,5.5954,5.6324,5.681,5.681,5.681,5.6755,5.6293,5.62,5.6354,5.5438,5.4768,5.4368,5.4174,5.4281,5.4434,5.3951,5.3614,5.3362,5.2877,5.2676,5.2676,5.2676,5.2676,5.2676,5.2676,5.2586,5.2419,5.2419,5.2419,5.2419,5.2419,5.2419,5.2419,5.2419,5.2269,5.2109,5.2109,5.1903,5.1741,5.1741,5.0899,4.9591,4.7668,4.7489,4.7249,4.6142,4.6352,4.6779,4.7249,4.7309,4.7219,4.701,4.657,4.6211,4.5971,4.4925,4.4629,4.5448,4.5076,4.5509,4.7039,4.7057,4.7451,4.8211,4.7266,4.6471,4.583,0.0,0.0,0.0,0.0,0.0,0.0,0.0,0.0,0.0,0.0,0.0,0.0,0.0,0.0,0.0,0.0,0.0,0.0,0.0,0.0,0.0,0.0,0.0,4.7126,4.96,5.1434,5.1442,5.3369,5.4491,5.3845,5.4368,5.4768,5.4768,5.5376,5.5715,5.5715,5.6416,5.681,5.681,5.681,5.6447,5.5745,5.6447,5.6447,5.5745,5.6447,5.681,5.681,5.6834,5.6834,5.6834,5.6834,5.6433,5.5762,5.5738,5.5715,5.5715,5.5684,5.5284,5.4737,5.4676,5.4245,5.3568,5.2922,5.2676,5.2676,5.2676,5.2676,5.2676,5.2676,5.2676,5.2676,5.2676,5.2676,5.2676,5.2676,5.2676,5.2676,5.2676,5.2518,5.2306,5.2306,5.2155,5.2025,5.2025,5.1067,5.0062,4.9449,4.879,4.8109,4.7429,4.7309,0.0,4.7309,4.7309,4.707,4.639,4.633,4.6082,4.5465,4.4777,4.472,4.5557,4.5553,4.6247,4.7879,4.7896,4.8294,4.916,4.7785,4.7387,4.805,0.0,0.0,0.0,0.0,0.0,0.0,0.0,0.0,0.0,0.0,0.0,0.0,0.0,0.0,0.0,0.0,0.0,0.0,0.0,0.0,0.0,4.779,4.9612,5.0101,5.1297,5.2703,5.4306,5.5021,5.5561,5.5923,5.6108,5.6231,5.6231,5.6385,5.6508,5.6508,5.6693,5.681,5.681,5.681,5.6693,5.6508,5.6693,5.6693,5.6508,5.6693,5.681,5.681,5.7519,5.7817,5.7817,5.7817,5.7699,5.7464,5.6789,5.6508,5.6385,5.5376,5.5137,5.5315,5.4337,5.3537,5.2953,5.2737,5.2676,5.2676,5.2676,5.2676,5.2676,5.2676,5.2676,5.2676,5.2676,5.2676,5.2676,5.2676,5.2676,5.2676,5.2676,5.2631,5.2586,5.2586,5.2405,5.2215,5.2215,5.182,5.1281,5.0615,4.9816,4.9042,4.8328,4.7717,0.0,4.7309,4.7309,4.7249,4.7018,4.704,4.7228,4.7658,4.66,4.6489,4.7877,4.7011,4.7136,4.8723,4.9421,5.0189,5.1061,5.0694,5.0109,0.0,0.0,0.0,0.0,0.0,0.0,0.0,0.0,0.0,0.0,0.0,0.0,0.0,0.0,0.0,0.0,0.0,0.0,0.0,0.0,0.0,0.0,4.9877,5.1782,5.3039,5.3285,5.3945,5.553,5.5985,5.6447,5.7155,5.6939,5.6933,5.7186,5.6939,5.6909,5.7186,5.6939,5.6933,5.7217,5.6939,5.681,5.681,5.681,5.681,5.681,5.681,5.681,5.681,5.7377,5.7606,5.7606,5.7606,5.7606,5.759,5.6995,5.681,0.0,0.0,0.0,0.0,0.0,5.3014,5.2676,5.2676,5.2676,5.2676,5.2676,5.2676,5.2676,5.2676,5.2676,5.2676,5.2676,5.2676,5.2676,5.2676,5.2676,5.2676,5.2676,5.2676,5.2676,5.2676,5.2586,5.2465,5.2465,5.2359,0.0,5.178,5.0871,4.9845,4.8769,4.8243,4.7847,4.7361,4.7374,4.7396,4.7309,4.7624,4.7939,4.8173,4.7745,0.0,0.0,0.0,4.8434,4.9726,5.0627,0.0,0.0,0.0,0.0,0.0,0.0,0.0,0.0,5.3943,5.3927,0.0,0.0,0.0,0.0,0.0,0.0,0.0,0.0,0.0,0.0,0.0,0.0,0.0,0.0,0.0,0.0,5.1879,5.3591,5.5438,5.5191,5.5045,5.5745,5.6477,5.7155,5.774,5.7309,5.7278,5.7863,5.734,5.7247,5.7771,0.0,0.0,0.0,0.0,5.681,5.681,5.681,5.681,5.681,5.681,5.681,5.681,5.6906,5.6978,5.6978,5.6978,5.6978,5.6954,5.6834,5.681,5.681,5.6717,5.5807,5.4429,5.326,5.2737,5.2676,5.2676,0.0,0.0,5.2676,5.2676,5.2676,5.2676,5.2676,5.2676,5.2676,5.2676,5.2729,5.2768,5.2737,5.2737,5.2891,5.2799,5.2706,5.2799,5.2737,5.2676,5.2676,5.2676,5.2676,5.2676,5.1764,5.0553,4.9098,4.9009,4.8737,4.7619,4.7723,4.78,4.7546,0.0,0.0,4.8084,4.8714,4.9226,4.944,4.9669,5.0243,5.1196,5.2084,5.2839,5.3528,5.4367,5.5724,5.7599,5.8579,5.9448,6.0016,5.6435,5.5825,0.0,0.0,0.0,0.0,0.0,0.0,0.0,0.0,0.0,0.0,0.0,0.0,0.0,0.0,0.0,5.1278,5.3053,5.4645,5.5561,5.5592,5.5776,5.6508,5.7186,5.7648,5.7771,5.8171,5.8479,5.8602,5.8479,5.8233,5.7832,5.7678,5.7401,5.7001,5.6871,5.681,5.681,5.681,5.681,5.681,0.0,0.0,5.6834,5.7559,5.7933,5.7933,5.7933,5.7933,5.7863,5.7091,5.681,5.6724,5.6139,5.5099,5.3876,5.3599,5.3168,5.2676,5.2676,5.2676,5.2676,5.2676,5.2676,5.2676,5.2676,5.2676,0.0,5.2676,5.2676,5.2799,5.3353,5.3106,5.2953,5.406,5.3476,5.2829,5.3383,5.3076,5.2676,5.2676,5.2676,5.2676,5.2676,5.1868,5.1117,5.0828,5.02,4.9513,4.8758,4.9278,4.9471,4.8903,4.9567,5.0256,5.0792,5.0997,5.1419,5.2088,5.2741,5.3518,5.4439,5.5768,5.6632,5.6946,5.8263,5.9141,5.9561,6.041,6.1173,6.1868,5.9869,5.9175,0.0,0.0,0.0,0.0,0.0,0.0,0.0,0.0,0.0,0.0,0.0,4.8361,4.8781,0.0,5.2524,5.4022,5.5099,5.6084,5.7124,5.7247,5.7155,5.684,5.7371,5.7925,5.8264,5.8602,5.8941,5.928,5.9003,5.8818,5.8818,5.8479,5.8294,5.8294,5.7986,5.7648,5.7278,5.7278,5.7124,5.681,5.681,5.681,5.681,5.7282,5.7519,5.7519,5.7519,5.7519,5.7472,5.6971,5.681,5.6779,5.6385,5.5646,5.4668,5.4306,5.3999,5.3691,5.3691,5.3476,5.326,5.3599,5.326,5.2829,5.3506,5.3476,5.326,5.3599,5.3691,5.3783,5.4122,5.3937,5.3876,5.4553,5.4183,5.3783,5.4122,5.366,5.3199,5.3199,5.2922,5.2676,5.2676,5.2309,5.1829,5.1381,5.1044,5.0673,5.0195,5.0611,5.0911,5.09,5.1629,5.2316,5.273,5.3152,5.3636,5.4132,5.4821,5.5515,5.6082,5.7533,5.8533,5.8998,6.0486,6.1434,6.1806,6.2584,6.3125,6.3463,6.2719,6.1975,0.0,0.0,0.0,0.0,0.0,0.0,0.0,4.6864,4.73,4.8124,4.9861,5.1378,5.1776,5.32,5.4853,5.6508,5.7025,5.7555,5.8664,5.8818,5.8387,5.7309,5.7771,5.8387,5.8941,5.9126,5.9434,5.9932,5.947,5.9372,5.9778,5.9311,5.9187,5.9588,5.9095,5.8541,5.7986,5.7986,5.7709,5.7186,5.7186,5.7124,5.697,5.697,5.6909,5.681,5.6964,5.6909,5.681,5.6964,5.6933,5.681,5.681,5.6447,5.5807,5.5161,5.4829,5.4706,5.4706,5.4368,5.3999,5.4522,5.3968,5.3291,5.4368,5.4337,5.3999,5.4553,5.4706,5.4737,5.486,5.4799,5.4768,5.5045,5.4891,5.4737,5.486,5.4368,5.3906,5.3906,5.3353,5.2891,5.2891,5.2768,5.2446,5.1693,5.1911,5.2005,5.1685,5.206,5.2507,5.2926,5.3736,5.4307,5.4458,5.5062,5.5629,5.606,5.6666,5.7143,5.7424,5.8709,5.981,6.052,6.1907,6.3057,6.3937,6.4512,6.4884,6.5019,6.4884,6.4106,4.5573,4.5566,4.6093,4.7455,4.7271,4.7798,0.0,5.1729,5.1203,5.2647,5.3645,5.4045,5.3545,5.5099,5.6508,5.6779,5.7802,5.8633,5.8787,5.8818,5.8756,5.8602,5.9187,5.9619,5.968,6.0209,6.0609,6.0671,6.0609,6.0332,5.9809,5.9716,5.9465,5.8941,5.8849,5.8756,5.8695,5.8695,5.8664,5.8572,5.8572,5.8264,5.7678,5.7678,5.734,5.6816,5.7432,5.734,5.6871,5.7432,5.734,5.681,5.681,5.6748,5.657,5.5838,5.5199,5.4706,5.4706,5.4645,5.4614,5.4676,5.4614,5.4491,5.4645,5.4645,5.4614,5.4676,5.4706,5.4829,5.5438,5.5161,5.5014,5.6262,5.5622,5.486,5.5468,5.5045,5.4583,5.4583,5.406,5.3599,5.3599,5.3076,5.2676,5.2561,5.3221,5.3522,5.2913,5.4134,5.4858,5.4363,5.5025,5.5758,5.6417,5.6556,5.7185,5.8503,5.8672,5.9028,5.9708,6.0588,6.14,6.211,6.2956,6.4072,6.5425,6.5547,6.5899,6.6542,6.5865,6.5121,4.7591,4.8143,4.8788,4.9981,5.087,5.1952,5.383,5.3799,5.3599,5.4645,5.5099,5.5345,5.5492,5.6539,5.7648,5.8418,5.9033,5.9526,5.9901,5.9963,5.9809,5.9434,5.9963,6.0209,5.9839,6.0393,6.0948,6.1348,6.1379,6.144,6.1532,6.1194,6.0824,6.0547,6.0147,5.9778,5.9403,5.9378,5.9187,5.8818,5.8818,5.8664,5.8387,5.8387,5.8233,5.7986,5.8264,5.7986,5.7401,5.7678,5.7401,5.681,5.681,5.681,5.6779,5.6447,5.617,5.5899,5.5899,5.5653,5.5345,5.5776,5.5376,5.486,5.5684,5.5622,5.5468,5.6269,5.6484,5.6669,5.734,5.7285,5.7223,5.7832,5.75,5.7069,5.697,5.6416,5.5807,5.5376,5.4737,5.4276,5.4276,5.4502,5.4666,5.4666,5.4275,5.4284,5.4992,5.5725,5.6241,5.6444,5.7159,5.7728,5.8032,5.8066,5.8524,5.9573,5.925,5.9317,6.008,6.0858,6.1839,6.3024,6.3768,6.4884,6.6339,6.6339,6.6508,6.6791,6.6474,6.617,4.8779,4.9711,5.0664,5.17,5.3476,5.5014,5.5229,5.5592,5.5992,5.6453,5.6416,5.6508,5.7217,5.774,5.851,5.9839,6.0209,6.0517,6.1009,6.0917,6.0609,6.0116,6.0332,6.0393,6.0086,6.0517,6.1071,6.1748,6.1809,6.2086,6.2737,6.2179,6.1809,6.1809,6.1163,6.0578,6.0086,6.0086,5.9809,5.9372,5.9372,5.9249,5.9095,5.8879,5.8818,5.8818,5.9003,5.8695,5.8079,5.8079,5.7678,5.7063,5.6847,5.6909,5.7087,5.7087,5.7087,5.7093,5.7278,5.7001,5.6638,5.7186,5.6638,5.6023,5.7032,5.697,5.6785,5.7802,5.8079,5.8202,5.8664,5.8818,5.8818,5.8818,5.8818,5.8664,5.8171,5.7678,5.7124,5.6416,5.5928,5.5589,5.5403,5.5997,5.6591,5.683,5.5975,5.5792,5.7053,5.7404,5.7821,5.8435,5.8998,5.9284,5.9284,5.9284,5.9622,6.0385,5.9945,5.9979,6.0689,6.1501,6.2496,6.3781,6.4546,6.5527,6.6791,6.6791,6.6791,6.6791,6.6791,6.6791,4.8485,4.9481,5.1005,5.2359,5.4176,5.5862,5.657,5.774,5.8695,5.8695,5.8202,5.7956,5.8633,5.8756,5.9218,6.0547,6.1317,6.1748,6.1779,6.1225,6.0794,6.0763,6.0209,6.0086,6.0701,6.0794,6.1071,6.1748,6.1809,6.2086,6.2737,6.2179,6.1809,6.1809,6.1163,6.0794,6.0763,6.0763,6.0763,6.0732,6.0732,6.0393,5.9747,5.9095,5.8818,5.8849,5.9495,5.9403,5.8787,5.8787,5.8387,5.7709,5.7032,5.7186,5.7771,5.7771,5.7771,5.7863,5.851,5.8726,5.8726,5.8726,5.8726,5.8695,5.8726,5.8726,5.8726,5.8756,5.8787,5.8787,5.8787,5.8818,5.8818,5.8818,5.8818,5.8787,5.8787,5.8756,5.8541,5.7863,5.7948,5.7881,5.7155,5.7246,5.7732,5.8586,5.8674,5.8661,5.8721,5.9462,6.0009,6.0047,6.0047,6.008,6.008,6.008,6.0419,6.1231,6.1231,6.1569,6.2299,6.3057,6.3781,6.4546,6.529,6.6034,6.6791,6.6791,6.6791,6.6791,6.6791,6.6791,5.0251,5.1924,5.3714,5.5092,5.6939,5.851,5.8726,5.9157,5.9341,5.891,5.7894,5.721,5.7432,5.7463,5.8048,5.9839,6.0701,6.144,6.2364,6.2645,6.2302,6.0948,6.1379,6.1348,6.024,6.0547,6.1255,6.2394,6.246,6.2979,6.4118,6.3533,6.3106,6.3106,6.2487,6.2148,6.2148,6.1686,6.1471,6.1471,6.1009,6.0671,6.0455,6.0209,6.0116,6.0116,6.0363,6.0086,5.9439,5.9439,5.9064,5.8448,5.8202,5.8264,5.851,5.8972,5.9126,5.9095,5.8879,5.8818,5.8818,5.8818,5.8818,5.8818,5.8818,5.8818,5.891,5.9341,5.9439,5.9588,5.9993,6.0116,6.0116,6.0116,6.0116,5.9993,5.9562,5.9439,5.945,5.9475,5.9538,5.9575,5.9505,6.0478,6.1598,6.2501,6.0922,5.9679,5.9679,5.9909,6.0114,6.0114,6.0588,6.0892,6.0892,6.0892,6.1231,6.1975,6.2009,6.2347,6.3125,6.3835,6.458,6.5324,6.5581,6.6068,6.6791,6.6791,6.6791,6.6791,6.6791,6.6791,5.1906,5.3691,5.5468,5.7093,5.8664,5.9778,5.9778,5.9778,5.9593,5.8941,5.774,5.681,5.681,5.681,5.7525,5.9778,6.0917,6.1994,6.3379,6.3691,6.3322,6.2025,6.221,6.2025,6.0978,6.1255,6.1871,6.2737,6.3014,6.3687,6.4826,6.4183,6.3814,6.3814,6.3137,6.2798,6.2798,6.2368,6.2056,6.1809,6.1132,6.0794,6.0794,6.0794,6.0794,6.0794,6.0794,6.0547,6.0116,5.9901,5.9532,5.9157,5.891,5.8972,5.9218,5.9624,5.9932,6.0086,5.9655,5.9501,5.9501,5.9501,5.9501,5.9501,5.9501,5.9501,5.9593,6.0024,6.0147,6.024,6.0701,6.0794,6.0794,6.0794,6.0794,6.0671,6.024,6.0147,6.0262,6.0602,6.0947,6.1256,6.1543,6.2777,6.3907,6.4498,6.2956,6.1603,6.1366,6.1095,6.0926,6.0926,6.1366,6.1806,6.2076,6.1839,6.211,6.3125,6.2922,6.3125,6.3849,6.4613,6.5222,6.5683,6.5967,6.6339,6.6791,6.7083,6.7083,6.6791,6.7062,6.7028,5.3445,5.4822,5.6361,5.8356,5.9372,5.9839,5.9809,5.9747,5.9557,5.8787,5.7586,5.6662,5.6601,5.6662,5.7617,6.027,6.1902,6.3318,6.4764,6.4426,6.3968,6.3906,6.2768,6.224,6.2798,6.2829,6.2829,6.2829,6.3445,6.4122,6.4857,6.4214,6.3845,6.3845,6.3229,6.2891,6.2891,6.286,6.2491,6.184,6.1163,6.0855,6.0855,6.0824,6.0794,6.0794,6.0794,6.0794,6.0763,6.0116,5.9839,5.9778,5.9157,5.9311,5.9839,5.9839,6.024,6.0794,6.0794,6.0794,6.0794,6.0794,6.0794,6.0794,6.0794,6.0794,6.0794,6.0794,6.0794,6.0794,6.0794,6.0794,6.0794,6.0794,6.0794,6.0794,6.0794,6.0845,6.0989,6.1369,6.221,6.2978,6.3328,6.4078,6.4681,6.4715,6.4681,6.4377,6.3579,6.2888,6.2415,6.24,6.2434,6.2753,6.3443,6.2888,6.3091,6.4512,6.4005,6.3937,6.4613,6.5358,6.5784,6.5784,6.644,6.6791,6.6791,6.7557,6.7557,6.6859,6.7557,6.7557,5.4822,5.6915,5.8854,5.9434,6.0055,6.0393,5.9901,5.9434,5.8572,5.6823,5.5838,5.4945,5.3929,5.4976,5.6724,5.8972,6.1286,6.3472,6.538,6.6337,6.6491,6.5475,6.5072,6.4518,6.3629,6.3537,6.3537,6.3537,6.3691,6.4122,6.4857,6.4734,6.4641,6.4641,6.4457,6.4364,6.4364,6.3814,6.3198,6.2522,6.1871,6.1563,6.1532,6.104,6.0794,6.0794,6.0794,6.0794,6.0794,6.0609,6.0547,6.0517,6.0363,6.0393,6.0547,6.0547,6.064,6.0794,6.0794,6.0794,6.0794,6.0794,6.0794,6.0794,6.0794,6.0794,6.0794,6.0794,6.0794,6.0794,6.0794,6.0794,6.0794,6.0794,6.0794,6.0794,6.0794,6.1405,6.2157,6.3003,6.412,6.5155,6.5758,6.5618,6.5595,6.617,6.5764,6.4952,6.3646,6.3342,6.3024,6.2448,6.2888,6.3274,6.3477,6.3835,6.4208,6.458,6.4952,6.5222,6.5412,6.6136,6.6542,6.6542,6.669,6.6791,6.6791,6.7557,6.7793,6.7624,6.7793,6.8132,5.6262,5.8202,5.987,6.0147,6.0301,6.0116,5.9157,5.8171,5.6854,5.4822,5.406,5.3414,5.2082,5.396,5.6269,5.8079,6.1101,6.3937,6.6057,6.7229,6.7629,6.6888,6.6519,6.6027,6.5229,6.5137,6.5137,6.5137,6.4614,6.4457,6.4888,6.4888,6.4888,6.4888,6.4888,6.4888,6.4888,6.4152,6.3598,6.3229,6.2552,6.224,6.224,6.1563,6.1255,6.1225,0.0,6.0794,6.0794,6.0794,6.0794,6.0794,6.0794,6.0794,6.0794,6.0794,6.0794,6.0794,6.0794,6.0794,6.0794,6.0794,6.0794,6.0794,6.0794,6.0794,6.0794,6.0794,6.0794,6.0794,6.0794,6.0794,6.0794,6.0794,6.0794,6.0923,6.1379,6.1897,6.2729,6.417,6.539,6.6305,6.6745,6.6474,6.6339,6.6724,6.644,6.5764,6.4613,6.4174,6.3835,6.3396,6.3734,6.4106,6.4444,6.4546,6.4884,6.5527,6.5628,6.5852,6.617,6.6576,6.6791,6.6791,6.7117,6.7286,6.7286,6.8368,6.8741,6.8436,6.8741,6.8977,5.7709,5.8972,6.0055,6.064,6.0209,5.9341,5.7956,5.6508,5.4853,5.2852,5.2429,5.2082,5.0913,5.3283,5.5961,5.7648,6.1071,6.4306,6.6552,6.7475,6.7937,6.7998,6.7445,6.7014,6.7014,6.6952,6.6891,6.6891,6.5842,6.5134,6.5042,6.4949,6.4888,6.4888,6.4888,6.4888,6.4888,6.4272,6.3937,6.3937,6.326,6.2922,6.2891,6.224,6.1933,6.1902,6.1317,6.1071,6.1071,6.1071,6.1071,6.1071,6.0978,6.0948,6.0917,6.0824,6.0794,6.0794,6.0794,6.0794,6.0794,6.0794,6.0794,6.0794,6.0794,6.0794,6.0794,6.0794,6.0794,6.0794,6.0794,6.0794,6.0794,6.0794,6.0794,6.1052,6.1928,6.2196,6.2923,6.5092,6.6105,6.6631,6.677,6.6791,6.6791,6.6791,6.6859,6.6677,6.5933,6.5189,6.4715,6.4613,6.4681,6.4986,6.5649,6.5189,6.5459,6.6724,6.6305,6.6271,6.6914,6.7028,6.7117,6.7117,6.7726,6.8064,6.8064,6.9485,6.9857,6.9248,6.9891,6.9891,5.9249,6.0024,6.064,6.0763,5.987,5.8633,5.7278,5.5438,5.3476,5.1467,5.1036,5.0974,5.0728,5.2544,5.5068,5.814,6.0609,6.3287,6.6429,6.7475,6.812,6.8643,6.815,6.7721,6.7721,6.7229,6.6891,6.6891,6.6675,6.6334,6.575,6.5195,6.4888,6.4888,6.4888,6.4888,6.4888,6.4764,6.4703,6.4703,6.3968,6.3629,6.3598,6.2922,6.2614,6.2614,6.2491,0.0,6.2429,6.2429,6.2429,6.2398,6.184,6.1625,6.1563,6.1009,6.0794,6.0794,6.0794,6.0794,6.0794,6.0794,6.0794,6.0794,6.0794,6.0794,6.0794,6.0794,6.0794,6.0794,6.0794,6.0794,6.0794,6.0794,6.0794,6.0845,6.0995,6.1702,6.314,6.5997,6.6019,6.5811,6.6665,6.6791,6.6791,6.6791,6.732,6.7455,6.6711,6.5967,6.5256,6.4681,6.5155,6.5581,6.5683,6.6136,6.6521,6.6757,6.7252,6.759,6.7692,6.8368,6.8707,6.8707,6.8842,6.8876,6.8876,6.9755,7.015,6.9992,7.0128,7.0466,5.9619,6.027,6.0701,6.0363,5.928,5.774,5.5653,5.3868,5.2206,5.0513,5.0451,5.0697,5.0697,5.2914,5.5284,5.6915,5.9501,6.2364,6.5442,6.6457,6.7381,6.8735,6.8612,6.8427,6.8427,6.812,6.7935,6.7935,6.7627,6.7106,6.6457,6.6119,6.5934,6.5934,6.5596,6.5411,6.5411,6.5072,6.4888,6.4888,6.4549,6.4368,6.4364,6.3629,6.3322,6.3291,6.2952,6.2798,6.2798,6.2798,6.2798,6.2768,6.2429,6.2306,6.2275,6.1963,6.184,6.1809,6.144,6.1317,6.1255,6.0917,6.0794,6.0794,6.0794,6.0794,6.0794,6.0794,6.0794,6.0794,6.0794,6.0794,6.0794,6.0794,6.1602,6.2457,6.2861,6.4134,6.5653,6.7098,6.6957,6.6671,6.6796,6.6791,6.6927,6.732,6.7658,6.7929,6.7996,6.7692,6.7015,6.5865,6.6406,6.6677,6.6305,6.6948,6.7387,6.7387,6.8098,6.8504,6.8504,6.8876,6.9113,6.9113,6.9485,6.9654,6.9654,7.0398,7.077,7.077,7.077,7.1176,5.9809,6.0393,6.064,5.9963,5.8695,5.6909,5.4276,5.2645,5.1313,4.998,5.0236,5.079,5.1067,5.3283,5.5284,5.6046,5.8516,6.144,6.4457,6.5472,6.6642,6.8643,6.8919,6.8919,6.8919,6.8919,6.8919,6.8919,6.8427,6.7752,6.6921,6.6891,6.6891,6.6891,6.6396,6.6057,6.5903,6.538,6.5042,6.4888,6.4888,6.4888,6.4888,6.4303,6.4029,6.3998,6.3475,6.3256,6.3256,6.3256,6.3256,6.3229,6.3075,6.3014,6.2983,6.2829,6.2798,6.2706,6.221,6.2025,6.1933,6.1409,6.1132,6.0978,6.0824,6.0886,6.0978,6.0824,6.0794,6.0794,6.0794,6.0794,6.0794,6.0794,6.229,6.3948,6.4712,6.6258,6.7621,6.8067,6.7981,6.7726,6.7345,6.7299,6.7468,6.8064,6.8301,6.8571,6.9045,6.9383,6.8977,6.7455,6.7827,6.7929,6.7332,6.7827,6.8166,6.8166,6.891,6.935,6.935,6.9485,6.9654,6.9789,7.0364,7.0759,7.0928,7.1481,7.1785,7.1785,7.1785,7.209,6.0517,6.0763,6.064,5.9963,5.8325,5.6324,5.4206,5.2645,5.1313,4.998,5.0236,5.1067,5.2298,5.279,5.3991,5.7093,5.8387,6.0363,6.4334,6.5472,6.6642,6.8643,6.8919,6.8919,6.8919,6.8919,6.8919,6.8919,6.8828,6.8243,6.6981,6.6891,6.6891,6.6891,6.6858,6.6519,6.5903,6.5842,6.5503,6.4888,6.4888,6.4888,6.4888,6.4826,6.4795,6.4795,6.4734,6.4703,0.0,6.4703,6.4703,6.4641,6.3968,6.3722,6.3629,6.3014,6.2798,6.2768,6.2706,6.2706,6.2675,6.2614,6.221,6.1594,6.0978,6.1225,6.1594,6.0978,6.0794,6.0794,6.0794,6.0794,6.0794,6.0794,6.2171,6.3709,6.4698,6.5567,6.6743,6.8616,6.825,6.7902,6.8724,6.8876,6.891,6.8977,6.9553,6.9755,6.918,7.0263,7.0511,6.9045,6.8944,6.8977,6.8876,6.8944,6.8977,6.8977,6.9688,7.0116,7.0116,7.0737,7.1413,7.209,7.2157,7.2529,7.3195,7.3263,7.3297,7.3297,7.3297,7.3331,6.0393,6.0794,6.0547,5.9465,5.7986,5.6139,5.3683,5.2368,5.1436,5.0482,5.082,5.1713,5.3045,5.3629,5.446,5.6262,5.7124,5.8602,6.1409,6.2764,6.4334,6.6796,6.7812,6.8458,6.8858,6.9259,6.9505,6.9505,6.9105,6.8674,6.812,6.8089,6.8089,6.8089,6.772,6.7352,6.7106,6.6704,6.6365,6.6119,6.5688,6.5719,6.6088,6.5688,6.5719,6.6119,6.6119,6.6119,0.0,6.6119,6.5873,6.5472,6.5195,6.4826,6.4426,6.418,6.4057,6.3995,6.3537,6.3383,6.3322,6.2922,6.2891,6.286,6.221,6.221,6.2364,6.2086,6.2025,6.2025,6.2025,6.2025,6.2025,6.2025,6.2986,6.4191,6.5083,6.5945,6.6858,6.7683,6.8035,6.8181,6.8147,6.8672,6.9417,7.0297,7.0297,7.059,7.1616,7.1887,7.1921,7.1751,7.0567,6.9586,6.9147,6.9519,6.9755,6.9755,7.0872,7.1515,7.1515,7.2225,7.2766,7.3037,7.3037,7.3229,7.35,7.35,7.35,7.35,7.35,7.3713,5.9742,6.0486,6.0486,5.9157,5.7771,5.6139,5.3591,5.2483,5.1805,5.1128,5.1682,5.2637,5.3783,5.4399,5.4983,5.5892,5.6447,5.7648,6.0055,6.1379,6.3133,6.5873,6.7014,6.7844,6.8551,6.9197,6.969,6.9874,6.9259,6.8919,6.8919,6.8919,6.8919,6.8919,6.8458,6.8091,6.7906,6.7414,6.7075,6.6891,6.6427,6.6457,6.686,6.6427,6.6457,6.6891,6.6891,6.6891,0.0,6.6891,6.6614,6.6211,6.6211,6.578,6.5195,6.5195,6.5072,6.4826,6.4334,6.4245,6.4337,6.3845,6.4152,6.4614,6.4152,6.3568,6.3045,6.286,6.2798,6.2798,6.2798,6.2798,6.2798,6.2798,6.3996,6.5199,6.5457,6.6699,6.7802,6.7802,6.8406,6.8865,6.8667,6.9413,7.0432,7.1458,7.1379,7.174,7.3297,7.3037,7.2902,7.3466,7.2112,7.0973,7.0432,7.0669,7.0939,7.1165,7.2157,7.2732,7.2732,7.3206,7.3578,7.3815,7.3815,7.3916,7.4177,7.4177,7.4177,7.4177,7.4177,7.4424,5.8448,5.9778,6.0486,5.9157,5.7771,5.6231,5.4176,5.3168,5.2513,5.1836,5.2737,5.3876,5.4553,5.4706,5.5168,5.657,5.6785,5.7956,6.1317,6.2337,6.3814,6.6552,6.6891,6.7168,6.7844,6.852,6.9166,6.9843,6.9259,6.8919,6.8919,6.8919,6.8919,6.8919,6.8889,6.8581,6.7906,6.7875,6.7568,6.6891,6.6891,6.6891,6.6891,6.6891,6.6891,6.6891,6.6891,6.6891,0.0,6.6891,6.6891,6.6891,6.6891,6.6488,6.5903,6.5903,6.5472,6.4888,6.4888,6.5319,6.5873,6.5873,6.6334,6.6888,6.686,6.5414,6.366,6.2983,6.2798,6.2798,6.2798,6.2798,6.2798,6.2798,6.4988,6.6788,6.5732,6.771,6.9666,6.9666,6.9689,7.0029,7.1098,7.1864,7.236,7.2394,7.3003,7.3466,7.35,7.35,7.35,7.35,7.35,7.3466,7.3466,7.28,7.2699,7.3432,7.35,7.35,7.35,7.35,7.3849,7.4593,7.4593,7.4965,7.5676,7.5676,7.5676,7.5676,7.5676,7.5676,5.5752,5.6638,5.71,5.6214,5.5345,5.4391,5.326,5.3199,5.3199,5.2522,5.3076,5.4029,5.5191,5.5376,5.5992,5.7863,5.8541,5.9403,6.0886,6.246,6.3968,6.538,6.7135,6.852,6.9197,6.9043,6.9166,6.9843,6.9259,6.8919,6.8919,6.8919,6.8919,6.8919,6.8919,6.8797,6.8581,6.8581,6.8489,6.8243,6.7812,6.7843,6.8243,6.7812,6.7843,6.8274,6.8274,6.8274,6.8274,6.8274,6.7997,6.7568,6.7568,6.7168,6.6552,6.6552,6.6457,6.6273,6.6273,6.6427,6.6552,6.6552,6.6735,6.6891,6.6891,6.6429,6.5845,6.566,6.5598,6.5503,6.5042,6.5257,6.5503,6.5042,6.6556,6.7885,6.7044,6.8583,6.9818,6.8789,7.0025,7.1169,7.099,7.2192,7.3308,7.3849,7.368,7.3849,7.4864,7.4559,7.4424,7.4931,7.4559,7.4052,7.3567,7.3297,7.3263,7.35,7.395,7.4255,7.4255,7.527,7.5946,7.6183,7.6657,7.7029,7.7266,7.7266,7.6995,7.6521,7.5946,7.5709,5.3976,5.5007,5.5592,5.5168,5.4583,5.3968,5.3537,5.3568,5.366,5.3476,5.3968,5.4791,5.5923,5.6108,5.6631,5.8171,5.8787,5.9465,6.064,6.2306,6.3968,6.5472,6.735,6.8797,6.9443,6.9135,6.9166,6.9843,6.9259,6.8919,6.8919,6.8919,6.8766,6.852,6.8766,6.8766,6.852,6.8766,6.8766,6.852,6.8366,6.8489,6.8919,6.8458,6.852,6.8919,6.8919,6.8919,0.0,6.8919,6.8643,6.8274,6.8274,6.7873,6.726,6.726,6.7106,6.6891,6.6891,6.7073,6.726,6.726,6.7473,6.7658,6.7658,6.7319,6.6891,6.6891,6.6891,6.6798,6.6396,6.6611,6.6768,6.6396,6.7444,6.8342,6.7469,6.8498,6.9353,6.8434,6.9874,7.1243,7.1183,7.272,7.4052,7.4536,7.4458,7.4661,7.5574,7.5303,7.5202,7.5642,7.5303,7.483,7.4356,7.4052,7.4018,7.4289,7.4762,7.5168,7.5473,7.6386,7.7029,7.7299,7.7797,7.8,7.8,7.7705,7.7333,7.6893,7.6082,7.5709,0.0,5.4468,5.5407,5.5383,5.4983,5.4583,5.4591,5.4191,0.0,5.4645,5.5284,5.593,5.6785,5.6902,5.7124,5.7894,5.8079,5.8818,6.0671,6.2179,6.406,6.6735,6.7568,6.8243,6.8828,6.8919,6.9135,6.9782,6.9228,6.8919,6.8919,6.8828,6.8551,6.7906,6.8458,6.8489,6.7906,6.852,6.8551,6.7968,6.8551,6.8828,6.8919,6.8919,6.8919,0.0,6.8919,6.8919,6.8919,6.8919,6.8919,6.8919,6.8919,6.852,6.7968,6.7968,6.7568,6.7014,6.7014,6.7445,6.7968,6.7968,6.8397,6.8919,6.8919,6.8027,6.7014,6.7014,6.7014,6.7014,6.6983,6.7012,6.7014,6.6952,6.7825,6.8347,6.7291,6.8047,6.8861,6.8766,6.9732,7.0877,7.1853,7.3515,7.4695,7.4695,7.527,7.5709,7.5709,7.5709,7.5709,7.5709,7.5709,7.5709,7.5709,7.5067,7.4965,7.5676,7.5743,7.6115,7.686,7.6995,7.7367,7.8044,7.8111,7.817,7.817,7.7401,7.7063,7.7029,7.6251,7.5845,5.1881,0.0,5.2547,5.2185,5.2642,5.3246,0.0,5.4467,5.5284,5.5438,5.5592,5.6262,5.8017,5.7894,5.811,5.9809,6.0948,6.1809,6.2271,6.4426,6.6581,6.8212,6.8551,6.8735,6.8858,6.8919,6.898,6.9105,6.9011,6.8919,6.8919,6.8427,6.806,6.7906,6.7566,6.7537,6.7906,6.806,6.8304,6.8643,6.8304,6.8397,6.8919,6.8919,6.8919,6.8919,6.8919,6.8919,6.8919,6.8919,6.8919,6.8919,6.8919,6.8797,6.8643,6.8643,6.8551,6.8427,6.8427,6.852,6.8643,6.8643,6.8766,6.8919,6.8919,6.8674,6.8427,6.8427,6.8427,6.8304,6.7783,6.8058,6.8304,6.7783,6.8913,6.9888,6.9078,7.0883,7.2361,7.1254,7.2845,7.4286,7.4022,7.4766,7.5439,7.5439,7.5574,7.5709,7.5709,7.5709,7.5709,7.5709,7.5709,7.5709,7.5709,7.554,7.5506,7.5676,7.6284,7.669,7.6893,7.7976,7.8686,7.8855,7.9397,7.9667,7.9667,7.8957,7.8585,7.8585,7.7807,7.7459,5.1832,5.2466,5.2818,5.3149,5.3809,5.4449,5.4883,5.5337,5.5752,5.5971,5.635,5.7124,5.8541,5.9033,5.9532,6.0609,6.1933,6.3106,6.4118,6.6029,6.775,6.8766,6.8919,6.8919,6.8919,6.8919,6.8919,6.8919,6.9166,6.9197,6.8919,6.8858,6.8397,6.7475,6.7383,6.7229,6.6983,6.7291,6.7473,6.7535,6.7783,6.8091,6.8458,6.8735,6.8919,6.8919,6.8919,6.8919,6.8919,6.8919,6.8919,6.8919,6.8919,6.8919,6.8919,6.8919,6.8919,6.8919,6.8919,6.8919,6.8919,6.8919,6.8919,6.8919,6.8919,6.8919,6.8919,6.8919,6.8919,6.8797,6.8458,6.8612,6.8797,6.8458,6.9104,6.9688,6.9316,7.0513,7.1418,7.0621,7.2475,7.3998,7.3608,7.4746,7.5709,7.5709,7.5709,7.5709,7.5709,7.5709,7.5709,7.5709,7.5709,7.5709,7.5709,7.5709,7.5709,7.5709,7.6115,7.6657,7.7367,7.8179,7.8923,7.96,8.0006,8.0209,8.0209,7.9464,7.9101,7.9067,7.8348,7.8,5.2616,5.3821,5.4812,5.5351,5.5962,5.6469,5.6505,5.6146,5.5927,5.6323,5.7089,5.8029,5.8941,6.0116,6.1009,6.1225,6.2333,6.3814,6.5934,6.7168,6.815,6.8797,6.8919,6.8919,6.8919,6.8919,6.8949,6.9043,6.9566,6.9628,6.9074,6.9474,6.892,6.7106,6.7506,6.7198,6.6057,6.6519,6.6519,6.6088,6.7075,6.7691,6.7906,6.8489,6.8797,6.8919,0.0,0.0,6.8919,6.8919,6.8919,6.8919,6.8919,6.8919,6.8919,6.8919,6.8919,6.8919,6.8919,6.8919,6.8919,6.8919,6.8919,6.8919,6.8919,6.8919,6.8919,6.8919,6.8919,6.8919,6.8919,6.8919,6.8948,6.9122,6.9036,6.9006,6.9354,6.9441,6.9468,6.9641,7.137,7.2815,7.2815,7.4439,7.5709,7.5709,7.5709,7.5709,7.5709,7.5709,7.5709,7.5709,7.5709,7.5709,7.5709,7.5811,7.5879,7.5879,7.5879,7.6555,7.8077,7.828,7.8923,8.0175,8.0209,8.0209,8.0209,7.9566,7.9295,7.9261,7.8619,7.8339,5.4296,5.6513,5.7558,5.4405,5.5376,5.6749,5.5302,5.5652,5.6323,5.639,5.6972,5.8082,6.0122,6.1132,6.2025,6.3137,6.4057,6.5288,6.7291,6.7752,6.815,6.8797,6.8919,6.8919,6.8919,6.8919,6.9135,6.969,6.9843,6.9843,6.9751,6.9319,6.8643,6.7752,6.7291,6.6952,6.6765,6.6304,6.6304,6.6765,6.6396,6.6798,6.7906,6.7998,6.8366,6.8919,0.0,6.8919,6.8919,6.8919,6.8919,6.8919,6.8919,6.8919,6.8919,6.8919,6.8919,6.8919,6.8919,6.8919,6.8919,6.8919,6.8919,6.8919,6.8919,6.8919,6.8919,6.8919,6.8919,6.8919,6.8919,6.8919,6.9151,7.0124,6.9612,6.941,7.1342,7.1778,7.2074,7.3024,7.429,7.5161,7.5161,7.546,7.5709,7.5709,7.5709,7.5709,7.5709,7.5709,7.5709,7.5709,7.5709,7.5709,7.5709,7.6318,7.6724,7.6724,7.6724,7.7367,7.8889,7.9532,7.9972,8.0209,8.0209,8.0209,8.0209,8.0073,8.004,8.004,7.9904,7.987,5.3767,5.6286,5.8115,5.6316,5.8101,6.0004,5.8849,5.8695,5.8572,5.7927,5.8436,5.9328,6.0376,6.1721,6.3282,6.5168,6.606,6.6829,6.7752,6.8212,6.8551,6.8858,6.9197,6.9443,6.9443,6.9751,7.012,7.0428,7.0798,7.0859,7.0459,7.0551,6.9905,6.8489,6.815,6.7627,6.6891,6.6583,6.6611,6.6891,6.6611,6.6952,6.7906,6.8274,6.8612,6.8919,0.0,6.8919,6.8919,6.8919,6.8919,6.8919,6.8919,6.8919,6.8919,6.8919,6.8919,6.8919,6.8919,6.8919,6.8919,6.8919,6.8919,6.8919,6.8919,6.8919,6.8919,6.8919,6.8919,6.8919,6.8919,6.8919,6.9036,6.9554,6.9296,6.9383,7.1044,7.137,7.1723,7.2842,7.398,7.4794,7.4794,7.5316,7.5709,7.5709,7.5709,7.5709,7.5709,7.6082,7.6352,7.6352,7.669,7.6927,7.6927,7.7266,7.7468,7.7468,7.7874,7.8416,7.9067,7.9803,8.0209,8.0209,8.0209,8.0209,8.0209,8.0581,8.0784,8.0784,8.119,8.1393,5.3677,5.6077,5.8381,5.8641,6.0524,6.2274,6.1995,6.1248,6.0446,5.9923,6.0368,6.0949,6.1155,6.284,6.4825,6.6715,6.7662,6.8121,6.8121,6.8581,6.8919,6.8919,6.9474,6.9905,6.9905,7.0521,7.0982,7.1136,7.169,7.169,7.0952,7.1598,7.1043,6.898,6.9043,6.8551,6.7381,6.7198,6.7073,6.6891,6.6891,6.7229,6.7906,6.8427,6.8735,6.8919,6.8919,6.8919,6.8919,6.8919,6.8919,6.8919,6.8919,6.8919,6.8919,6.8919,6.8919,6.8919,6.8919,6.8919,6.8919,6.8919,6.8919,6.8919,6.8919,6.9012,6.9105,6.9105,6.9228,6.9289,6.8982,6.8919,6.8977,6.9238,6.9093,6.9414,7.1263,7.1305,7.152,7.3298,7.4199,7.4689,7.4689,7.5415,7.5912,7.5743,7.5845,7.598,7.598,7.6657,7.7164,7.7164,7.7638,7.8068,7.8247,7.8247,7.8314,7.8483,7.8889,7.9101,7.9101,7.9803,8.0209,8.0209,8.0209,8.0209,8.0209,8.0945,8.1317,8.1317,8.2069,8.2408,5.5623,5.7453,5.9243,6.0172,6.0554,6.0853,6.1484,6.0792,6.0449,6.1882,6.2211,6.2506,6.3394,6.5232,6.6836,6.7372,6.8221,6.8828,6.8828,6.8858,6.8919,6.8919,6.9474,6.9905,6.9905,7.0521,7.1167,7.1875,7.1967,7.169,7.0952,7.1598,7.1043,6.898,6.9505,6.9474,6.8735,6.815,6.7506,6.6891,6.6891,6.7229,6.7906,6.7937,6.8304,6.8919,6.8919,6.8919,6.8919,6.8919,6.8919,6.8919,6.8919,6.8919,6.8919,6.8919,6.8919,6.8919,6.8919,6.8919,6.8919,6.8919,6.8919,6.8919,6.8919,6.932,6.9813,6.9813,7.0274,7.0459,6.9197,6.8919,6.9151,7.0237,6.967,6.9969,7.3927,7.3404,7.3233,7.691,7.7119,7.6671,7.6671,7.6744,7.6555,7.5811,7.6352,7.6826,7.6826,7.7468,7.7908,7.7908,7.7967,7.828,7.8957,7.9025,7.9329,8.0006,7.9464,7.9101,7.9101,7.9803,8.0209,8.0209,8.0209,8.0209,8.0209,8.0945,8.1317,8.1317,8.2069,8.2408,5.482,5.7274,5.9815,6.0191,6.1209,6.2405,6.3405,6.3666,6.3783,6.4243,6.4477,6.4614,6.4544,6.5834,6.702,6.7435,6.8283,6.9043,6.9443,6.9505,6.9659,7.009,7.0767,7.1228,7.1228,7.1813,7.2306,7.2614,7.2645,7.2522,7.2214,7.209,7.1659,7.0859,7.0213,6.9782,6.9505,6.8858,6.8397,6.815,6.7721,6.7844,6.852,6.852,6.8643,6.8919,6.8919,6.8919,6.8919,6.8919,6.8919,6.8919,6.8919,6.8919,6.8919,6.8919,6.8919,6.8919,6.8919,6.8919,6.8919,6.8919,6.8919,6.8919,6.8919,6.9351,6.9905,6.9905,7.0367,7.0798,7.0274,7.012,7.024,7.0683,7.0478,7.0745,7.3056,7.3011,7.3146,7.5331,7.5556,7.5594,7.6322,7.6048,7.604,7.6999,7.6995,7.7063,7.7536,7.8213,7.8686,7.8686,7.9092,7.9464,7.9769,7.9769,7.9904,8.0175,7.9938,7.9769,7.9769,8.004,8.0412,8.0885,8.0885,8.1122,8.1562,8.2306,8.2678,8.2678,8.3422,8.3768,5.488,5.7393,6.0146,6.0356,6.179,6.3493,6.4923,6.5521,6.5913,6.646,6.6426,6.6116,6.5562,6.6151,6.6934,6.7405,6.8283,6.9105,6.9813,6.9905,7.0151,7.0828,7.1536,7.1998,7.1998,7.2614,7.3014,7.3014,7.3014,7.2922,7.2706,7.246,7.2121,7.169,7.0705,7.012,6.9905,6.9228,6.8919,6.8889,6.8427,6.8458,6.8919,6.8919,6.8919,6.8919,6.8919,6.8919,6.8919,6.8919,6.8919,6.8919,6.8919,6.8919,6.8919,6.8919,6.8919,6.8919,6.8919,6.8919,6.8919,6.8919,6.8919,6.8919,6.8919,6.9505,7.0213,7.0213,7.0859,7.1567,7.1567,7.1229,7.089,7.089,7.089,7.1283,7.2679,7.3102,7.3582,7.4845,7.5522,7.6003,7.6451,7.6417,7.6668,7.7844,7.7773,7.7773,7.828,7.8991,7.9464,7.9464,7.9904,8.0209,8.0209,8.0412,8.0445,8.0209,8.0648,8.0682,8.0209,8.0412,8.0784,8.1283,8.1528,8.19,8.2408,8.3152,8.349,8.3524,8.4242,8.4614,5.6372,5.8108,6.0236,6.0954,6.2121,6.3647,6.5562,6.5742,6.6159,6.8425,6.7849,6.6813,6.6464,6.6399,6.6673,6.7376,6.8283,6.9135,6.9813,6.9905,7.0151,7.0828,7.1536,7.2029,7.2029,7.2614,7.3014,7.3014,7.3014,7.2737,7.206,7.2645,7.2337,7.0952,7.089,7.0582,6.9905,6.9228,6.8919,6.8919,6.8919,6.8919,6.8919,6.8919,6.8919,6.8919,6.8919,6.8919,6.8889,6.8889,6.8919,6.8919,6.8919,6.8919,6.8919,6.8919,6.8919,6.8919,6.8919,6.8919,6.8919,6.8919,6.8919,6.8919,6.8889,6.9843,7.089,7.0921,7.1906,7.3014,7.3014,7.1967,7.0921,7.0921,7.0921,7.1437,7.3367,7.4164,7.4877,7.6273,7.7927,7.8691,7.7502,7.8268,7.8831,7.8111,7.8653,7.9101,7.9101,7.9769,8.0209,8.0209,8.0209,8.0209,8.0209,8.0885,8.1012,8.0276,8.1596,8.1731,8.0276,8.0919,8.1317,8.1317,8.2035,8.2382,8.2441,8.3152,8.3524,8.3524,8.4242,8.4614,5.6372,5.8108,6.0236,6.0954,6.2781,6.4725,6.5772,6.6281,6.6943,6.8332,6.7548,6.664,6.6783,6.6957,6.7193,6.7467,6.8283,6.9289,7.0428,7.0613,7.1044,7.2244,7.2552,7.2706,7.2706,7.286,7.3014,7.3014,7.3014,7.2922,7.2737,7.246,7.2337,7.2368,7.0952,7.0336,7.0613,6.9474,6.8919,6.8919,6.8919,6.8919,6.8919,6.8919,6.8919,6.8919,6.8919,6.9196,6.9597,6.9597,6.932,6.8919,6.8919,6.8919,6.8919,6.8919,6.8919,6.8919,6.8919,6.8919,6.8919,6.8919,6.8919,6.9011,6.9443,7.0213,7.1013,7.1506,7.2337,7.3014,7.3014,7.2675,7.2368,7.2368,7.2368,7.2552,7.3106,7.3346,7.3586,7.3993,7.4466,7.5214,7.6577,7.6676,7.7259,7.9238,7.9295,7.9295,7.9803,8.0073,8.0209,8.0209,8.0209,8.0412,8.0919,8.1181,8.1426,8.1731,8.2171,8.1968,8.0987,8.1663,8.2306,8.2847,8.305,8.3422,8.3937,8.4174,8.4275,8.4275,8.4512,8.4614,5.8437,6.0266,6.2331,6.3528,6.5024,6.6311,6.67,6.7089,6.7631,6.836,6.7516,6.6854,6.7303,6.7179,6.7176,6.7629,6.8172,6.9055,7.0525,7.0739,7.1261,7.2612,7.2796,7.2796,7.2796,7.2796,7.2859,7.2983,7.3014,7.3014,7.3014,7.2614,7.2583,7.3014,7.1536,7.0767,7.089,6.9813,6.9135,6.8919,6.8919,6.8919,6.8889,6.9166,6.9443,6.969,6.969,6.9751,6.9905,6.9905,6.9813,6.9659,6.9382,6.9289,6.9289,6.9289,6.9289,6.9289,6.9289,6.9289,6.9289,6.9289,6.9134,6.9042,6.969,7.0367,7.1044,7.1813,7.2491,7.3014,7.3014,7.3014,7.3014,7.3014,7.3014,7.3108,7.36,7.4086,7.4297,7.3814,7.4891,7.6024,7.6508,7.7041,7.7987,7.9905,8.0073,8.0141,8.0581,8.0885,8.1088,8.1088,8.1088,8.1257,8.1697,8.2002,8.2238,8.2408,8.2949,8.2949,8.2205,8.2611,8.305,8.349,8.3795,8.4167,8.4614,8.4614,8.4614,8.4614,8.4614,8.4614,6.1463,6.3408,6.5323,6.7389,6.7958,6.7987,6.7987,6.7958,6.8021,6.8299,6.7664,6.7213,6.785,6.7215,6.6883,6.7849,6.8,6.8576,7.0129,7.0435,7.0924,7.2208,7.2422,7.2483,7.2484,7.2484,7.264,7.2983,7.3014,7.2952,7.2922,7.2922,7.2891,7.2798,7.2183,7.1505,7.0828,7.0151,6.9505,6.8919,6.8919,6.892,6.9012,6.9566,7.012,7.0736,7.0921,7.0582,6.9905,6.9967,7.0336,7.0828,7.0151,6.9936,6.9997,6.9997,6.9997,6.9967,6.9905,6.9936,6.9967,6.9905,6.9474,6.9105,6.9874,7.0459,7.1075,7.1875,7.2552,7.3014,7.3014,7.3014,7.3014,7.3014,7.3014,7.3293,7.4385,7.5504,7.5967,7.483,7.7369,7.9053,7.6958,7.8518,8.0074,8.0209,8.0818,8.1317,8.1317,8.1934,8.2408,8.2408,8.2408,8.2441,8.2509,8.3118,8.3253,8.2644,8.3836,8.4275,8.3625,8.3592,8.3592,8.3592,8.4242,8.4614,8.4614,8.4614,8.4614,8.4614,8.4614,8.4614,6.0775,6.2391,6.4096,6.658,6.7628,6.7987,6.7987,6.7598,6.7239,6.7331,6.715,6.7121,6.7548,6.7427,6.7427,6.7909,6.8,6.8303,6.9184,6.9793,7.0401,7.1223,7.1769,7.2199,7.2452,7.2484,7.264,7.2983,7.3014,7.2799,7.2244,7.2214,7.1967,7.1383,7.0705,7.0274,7.012,6.9443,6.9012,6.8919,6.8919,6.9166,6.9659,6.9289,6.9166,6.9413,7.1074,7.1044,6.9936,7.0459,7.0767,7.0828,7.0151,7.0213,7.0675,7.0675,7.0675,7.0613,7.009,7.0244,7.0613,7.0059,6.9782,6.9905,7.1197,7.1229,7.1167,7.2429,7.2891,7.3014,7.3014,7.3014,7.3014,7.3014,7.3014,7.3076,7.3324,7.3569,7.3692,7.3447,7.4771,7.6106,7.6536,7.7812,7.9105,8.0048,8.0818,8.1317,8.1317,8.1934,8.2408,8.2408,8.2408,8.2644,8.3219,8.3422,8.3693,8.4106,8.4411,8.4512,8.4377,8.4343,8.4343,8.4343,8.4512,8.4614,8.4614,8.4614,8.4614,8.4614,8.4614,8.4614,6.1433,6.3468,6.5533,6.7837,6.8466,6.8375,6.8077,6.7508,6.6999,6.6999,6.6999,6.706,6.7243,6.7274,6.7335,6.7487,6.7789,6.8272,6.9121,6.9817,7.0483,7.1118,7.148,7.1756,7.1947,7.2167,7.2325,7.2514,7.2671,7.2549,7.2025,7.1813,7.1537,7.1139,7.0646,7.0213,6.9905,6.9536,6.9227,6.8919,6.9228,6.9566,6.9905,6.9874,6.969,6.9443,7.0859,7.0859,6.9936,7.0613,7.1105,7.1383,7.1044,7.1105,7.1413,7.1413,7.1413,7.1352,7.1043,7.1105,7.1352,7.1013,7.0644,7.0582,7.169,7.1752,7.1629,7.2675,7.3014,7.3014,7.3014,7.3014,7.3014,7.3014,7.3014,7.3139,7.3753,7.3843,7.3843,7.3843,7.4862,7.5678,7.5736,7.7236,7.8943,8.0496,8.1359,8.1934,8.2306,8.3016,8.343,8.343,8.343,8.3599,8.3998,8.4031,8.4174,8.458,8.4614,8.4614,8.4614,8.4614,8.4614,8.4614,8.4614,8.4614,8.4614,8.4614,8.4614,8.4614,8.4614,8.4614,6.1553,6.4395,6.7178,6.9273,6.9303,6.8675,6.8137,6.7508,6.6999,6.6999,6.6999,6.6999,6.6999,6.6999,6.7029,6.7148,6.7658,6.829,6.9111,6.9926,7.0556,7.0948,7.1188,7.1339,7.1373,7.1722,7.1913,7.2007,7.2262,7.2172,7.1675,7.1348,7.1076,7.0893,7.0739,7.0337,6.972,6.9784,6.9507,6.8889,6.9443,6.972,6.9751,7.0428,7.0367,6.9751,7.0551,7.0521,6.9936,7.0613,7.1321,7.1998,7.1998,7.209,7.2183,7.2183,7.2183,7.2152,7.206,7.209,7.2152,7.206,7.1598,7.1229,7.1967,7.209,7.2152,7.2829,7.3014,7.3014,7.3014,7.3014,7.3014,7.3014,7.3014,7.3262,7.4265,7.4505,7.4505,7.4505,7.5475,7.6053,7.5242,7.6855,7.8802,8.0424,8.1394,8.222,8.3072,8.3813,8.4366,8.4553,8.4614,8.4614,8.4614,8.4614,8.4614,8.4614,8.4614,8.4614,8.4614,8.4614,8.4614,8.4614,8.4614,8.4614,8.4614,8.4614,8.4614,8.4614,8.4614,8.4614,5.8381,6.1943,6.5891,6.8495,6.8615,6.8107,6.8017,6.7508,6.6999,6.6999,6.6999,6.6999,6.6999,6.6999,6.7178,6.7778,6.7928,6.8047,6.8169,6.9278,6.9907,6.9366,7.0295,7.1083,7.1373,7.1468,7.1596,7.1975,7.2039,7.1524,7.0338,7.0218,6.9763,6.8845,6.9303,6.9421,6.9043,6.9329,6.9268,6.8919,6.9011,6.9012,6.9043,6.972,6.9659,6.9074,7.0367,7.0521,6.9936,7.0613,7.1321,7.1998,7.1998,7.2368,7.2891,7.2891,7.2891,7.2799,7.2214,7.2398,7.2799,7.2183,7.1936,7.1998,7.2676,7.246,7.2152,7.2829,7.3014,7.3014,7.3014,7.3014,7.3014,7.3014,7.3014,7.3045,7.32,7.3231,7.3231,7.3231,7.4205,7.533,7.6224,7.7107,7.7812,7.8079,7.9219,8.0476,8.168,8.2511,8.3365,8.4473,8.4614,8.4614,8.4614,8.4614,8.4614,8.4614,8.4614,8.4614,8.4614,8.4614,8.4614,8.4614,8.4614,8.4614,8.4614,8.4614,8.4614,8.4614,8.4614,8.4614,5.9488,6.2091,6.4575,6.7208,6.7657,6.7449,6.7449,6.7208,6.6999,6.6999,6.6999,6.6999,6.6999,6.6999,6.7089,6.7389,6.8046,6.8555,6.8555,6.9662,7.038,7.0111,7.056,7.0984,7.1113,7.1277,7.1403,7.1371,7.1564,7.1203,7.0048,6.9782,6.9272,6.8456,6.8576,6.8633,6.8624,6.8752,6.9054,6.9443,6.9103,6.9074,6.9443,6.9382,6.9166,6.8951,6.9905,6.9967,6.9413,7.0459,7.1075,7.1444,7.2275,7.2737,7.3014,7.3014,7.3014,7.2983,7.2676,7.2768,7.2953,7.2676,7.2583,7.2614,7.2922,7.2768,7.2645,7.2922,7.3014,7.3014,7.3014,7.3014,7.3014,7.3014,7.3014,7.3014,7.3014,7.3014,7.3014,7.3014,7.3965,7.531,7.694,7.7996,7.9155,8.0701,8.1448,8.2178,8.3138,8.3555,8.3981,8.4526,8.4614,8.4614,8.4614,8.4614,8.4614,8.4614,8.4614,8.4614,8.4614,8.4614,8.4614,8.4614,8.4614,8.4614,8.4614,8.4614,8.4614,8.4614,8.4614,8.4614,5.9428,6.1102,6.2269,6.5054,6.5981,6.6311,6.667,6.6759,6.6789,6.6939,6.6999,6.6999,6.6999,6.6999,6.7059,6.7239,6.8226,6.9004,6.9004,6.9961,7.0679,7.0679,7.0679,7.0739,7.0889,7.1145,7.1178,7.0919,7.1115,7.0817,6.9814,6.9464,6.8991,6.8271,6.8334,6.8364,6.8298,6.8387,6.8721,6.927,6.8958,6.9019,6.939,6.9053,6.8899,6.893,6.963,6.9505,6.9042,7.0551,7.1075,7.1044,7.2429,7.3014,7.3014,7.3014,7.3014,7.3014,7.3014,7.3014,7.3014,7.3014,7.3014,7.3014,7.3014,7.3014,7.3014,7.3014,7.3014,7.3045,7.3199,7.3229,7.3229,7.3229,7.3383,7.3445,7.326,7.3229,7.3229,7.3229,7.4127,7.5375,7.6959,7.8263,7.9897,8.2206,8.2703,8.3119,8.4022,8.4116,8.4224,8.4553,8.4614,8.4614,8.4614,8.4614,8.4614,8.4614,8.4614,8.4614,8.4614,8.4614,8.4614,8.4614,8.4614,8.4614,8.4614,8.4614,8.4614,8.4614,8.4614,8.4614,5.5593,5.6971,5.8201,6.1523,6.3258,6.4485,6.5772,6.6071,6.6251,6.6879,6.6999,6.6999,6.6999,6.6999,6.7208,6.7838,6.8525,6.9004,6.9004,6.9602,7.0053,7.0053,7.0053,7.026,7.0829,7.0919,7.0919,7.0889,7.0919,7.0382,6.9123,6.9004,6.8593,6.7577,6.8784,6.8969,6.803,6.8268,6.8119,6.7608,6.8149,6.8298,6.8121,6.8728,6.8972,6.8941,6.9605,6.9505,6.9073,7.1105,7.1506,7.1044,7.2429,7.3014,7.3014,7.3014,7.3014,7.3014,7.3014,7.3014,7.3014,7.3014,7.3014,7.3014,7.3014,7.3014,7.3014,7.3014,7.3014,7.3137,7.3783,7.3937,7.3937,7.3937,7.443,7.4707,7.4091,7.3937,7.3937,7.3937,7.4524,7.5183,7.588,7.7102,7.8445,7.9789,8.0519,8.1385,8.2661,8.2802,8.3254,8.4473,8.4614,8.4614,8.4614,8.4614,8.4614,8.4614,8.4614,8.4614,8.4614,8.4614,8.4614,8.4614,8.4614,8.4614,8.4614,8.4614,8.4614,8.4614,8.4614,8.4614,5.5025,5.6042,5.712,5.9548,6.1164,6.251,6.3827,6.5114,6.6071,6.6311,6.67,6.6999,6.6999,6.6999,6.7059,6.7298,6.7928,6.8495,6.8944,6.9572,7.0141,7.053,7.056,7.0649,7.0889,7.0889,7.0889,7.0889,7.0889,7.053,6.9662,6.9632,6.9276,6.8503,6.8923,6.8899,6.8334,6.8182,6.8029,6.7819,6.8029,6.8089,6.8,6.8243,6.8364,6.8395,6.9701,7.0006,6.961,7.0618,7.1108,7.1322,7.2552,7.3014,7.3014,7.3014,7.3014,7.3014,7.3014,7.3014,7.3014,7.3014,7.3014,7.3014,7.3014,7.3014,7.3107,7.3506,7.363,7.3783,7.4461,7.4645,7.4522,7.4091,7.4522,7.4922,7.4676,7.5278,7.5868,7.5868,7.733,7.8787,7.9504,8.0673,8.1818,8.2733,8.3088,8.3393,8.3838,8.3893,8.4089,8.4526,8.4614,8.4614,8.4614,8.4614,8.4614,8.4614,8.4614,8.4614,8.4614,8.4614,8.4614,8.4614,8.4614,8.4614,8.4614,8.4614,8.4614,8.4614,8.4614,8.4614,5.3952,5.5025,5.6342,5.8291,5.9431,6.0657,6.2928,6.4246,6.5203,6.5862,6.652,6.6999,6.6999,6.6999,6.6999,6.6999,6.7568,6.8167,6.8585,6.9065,6.9542,7.0201,7.0051,7.0021,7.0231,7.026,7.035,7.056,7.059,7.032,6.9692,6.9903,6.9662,6.9034,6.8764,6.856,6.8327,6.8001,6.7789,6.7669,6.7789,6.7789,6.7669,6.7669,6.791,6.8394,6.9275,6.967,6.9793,7.0863,7.1445,7.169,7.2644,7.3014,7.3014,7.3014,7.3168,7.3322,7.3322,7.3322,7.3322,7.3322,7.3168,7.3045,7.3291,7.3322,7.3476,7.4153,7.4338,7.4491,7.5169,7.5353,7.5292,7.5076,7.5169,7.5415,7.563,7.6148,7.6588,7.6588,7.8451,8.0256,8.0941,8.2272,8.3544,8.4459,8.4614,8.4614,8.4614,8.4614,8.4614,8.4614,8.4614,8.4614,8.4614,8.4614,8.4614,8.4614,8.4614,8.4614,8.4614,8.4614,8.4614,8.4614,8.4614,8.4614,8.4614,8.4614,8.4614,8.4614,8.4614,8.4614,0.0,0.0,0.0,5.7517,5.7995,5.9042,6.2959,6.3408,6.3587,6.5503,6.646,6.6939,6.6969,6.6969,6.6999,6.6999,6.7568,6.7987,6.7987,6.8017,6.8287,6.8944,6.8466,6.8317,6.8974,6.9004,6.9243,6.981,6.9961,6.9692,6.9064,6.9662,6.9692,6.9034,6.8377,6.8017,6.7987,6.7666,6.7335,6.6999,6.7335,6.7335,6.6999,6.6999,6.7747,6.8944,6.8347,6.8604,6.9609,7.1967,7.2583,7.206,7.2737,7.3014,7.3014,7.3014,7.3383,7.3968,7.3968,7.3999,7.3999,7.403,7.3568,7.3199,7.3814,7.403,7.4153,7.483,7.5015,7.5199,7.5877,7.6031,7.6215,7.6798,7.6492,7.6215,7.6829,7.646,7.6031,7.6063,7.7651,7.9154,7.9774,8.1422,8.311,8.4419,8.458,8.458,8.4614,8.4614,8.4614,8.4614,8.4614,8.4614,8.4614,8.4614,8.4614,8.4614,8.4614,8.4614,8.4614,8.4614,8.4614,8.4614,8.4614,8.4614,8.4614,8.4614,8.4614,8.4614,8.4614,8.4614,5.2809,0.0,0.0,0.0,0.0,0.0,5.9787,6.0685,6.1521,6.3468,6.4784,6.5682,6.6191,6.667,6.6999,6.6999,6.7179,6.7449,6.7928,6.8405,6.8974,6.9632,6.9574,6.9544,6.9724,6.9273,6.9064,6.9243,6.9722,6.9901,6.9722,7.032,7.0141,6.9034,6.8824,6.8465,6.7987,6.7451,6.7091,6.6999,6.7091,6.7091,6.6999,6.7508,6.7928,6.8317,6.9377,6.996,7.0272,7.1162,7.1871,7.2395,7.2859,7.3014,7.3014,7.3014,7.3137,7.3322,7.3814,7.3999,7.4061,7.4553,7.4584,7.4491,7.4676,7.4707,7.4861,7.5538,7.5723,7.5877,7.6554,7.6706,7.6644,7.6369,7.6523,7.6646,7.6338,7.649,7.7001,7.7903,7.9281,8.0615,8.171,8.1897,8.2516,8.4352,8.4167,8.3998,8.4512,8.4614,8.4614,8.4614,8.4614,8.4614,8.4614,8.4614,8.4614,8.4614,8.4614,8.4614,8.4614,8.4614,8.4614,8.4614,8.4614,8.4614,8.4614,8.4614,8.4614,8.4614,8.4614,8.4614,0.0,0.0,5.4132,5.6286,0.0,0.0,5.9279,6.0027,6.0655,6.2689,6.3887,6.4785,6.5443,6.6131,6.658,6.658,6.6819,6.7119,6.7538,6.8167,6.8704,6.9125,6.9185,6.9185,6.9185,6.8555,6.8286,6.8555,6.8945,6.9424,6.9993,7.0051,6.9782,6.9034,6.9004,6.8525,6.7598,6.7178,6.6999,6.6999,6.6999,6.6999,6.6999,6.7419,6.7898,6.8466,6.9464,7.0349,7.1146,7.164,7.2014,7.2356,7.2978,7.3195,7.3288,7.3691,7.3999,7.4307,7.4707,7.483,7.4892,7.5292,7.523,7.5046,7.5323,7.5415,7.5569,7.6246,7.6431,7.649,7.689,7.6983,7.689,7.649,7.6739,7.686,7.6523,7.6706,7.7245,7.796,7.9129,8.0262,8.1009,8.1644,8.231,8.2904,8.355,8.3913,8.3832,8.4251,8.4614,8.4614,8.4614,8.4614,8.4614,8.4614,8.4614,8.4614,8.4614,8.4614,8.4614,8.4614,8.4614,8.4614,8.4614,8.4614,8.4614,8.4614,8.4614,8.4614,8.4614,8.4614,0.0,0.0,0.0,0.0,5.7573,0.0,6.0176,6.0356,6.0413,6.2269,6.3139,6.3767,6.4336,6.5054,6.5562,6.5562,6.6251,6.6819,6.6969,6.7598,6.8017,6.8107,6.8047,6.8047,6.8107,6.7449,6.7238,6.7838,6.7958,6.8526,6.9724,6.9333,6.9004,6.8794,6.8914,6.8345,6.6999,6.6999,6.6999,6.6999,6.6999,6.7029,6.7089,6.7178,6.7897,6.9123,6.9183,7.0222,7.1942,7.2609,7.2613,7.2318,7.3307,7.3679,7.3772,7.4673,7.5384,7.5907,7.5969,7.6,7.6031,7.6092,7.5723,7.5323,7.5938,7.6123,7.6246,7.6829,7.6983,7.6983,7.6983,7.6983,7.6983,7.6983,7.6983,7.6983,7.6983,7.6983,7.7048,7.7179,7.812,7.8942,7.9098,8.0944,8.2103,8.133,8.296,8.3934,8.3026,8.3893,8.4614,8.4614,8.4614,8.4614,8.4614,8.4614,8.4614,8.4614,8.4614,8.4614,8.4614,8.4614,8.4647,8.4715,8.4817,8.4817,8.4715,8.4647,8.4614,8.4614,8.4614,8.4614,0.0,0.0,0.0,0.0,0.0,0.0,5.9099,5.8952,5.8743,5.9697,6.0386,6.0894,6.1014,6.2032,6.2869,6.2869,6.4306,6.5772,6.6849,6.7598,6.8197,6.8734,6.8347,6.8227,6.8734,6.7717,6.7029,6.7178,6.7718,6.8107,6.8377,6.9305,6.9064,6.7418,6.8435,6.8345,6.6999,6.6999,6.6999,6.6999,6.6999,6.7268,6.7838,6.8345,6.9034,6.9812,7.032,7.0744,7.1173,7.1866,7.2696,7.3687,7.4426,7.4704,7.4704,7.4921,7.5076,7.5261,7.5815,7.6,7.6092,7.6646,7.6739,7.6614,7.68,7.6798,7.6829,7.6952,7.6983,7.6983,7.6983,7.6983,7.6983,7.6983,7.6983,7.6983,7.6983,7.6983,7.7312,7.8343,7.8723,7.9222,8.0262,8.0345,8.1115,8.3491,8.2892,8.267,8.4049,8.4446,8.4614,8.4614,8.4614,8.4614,8.4614,8.4614,8.4614,8.4614,8.4614,8.4614,8.4614,8.4614,8.4884,8.5554,8.6163,8.6163,8.5554,8.4918,8.4614,8.4614,8.4614,8.4614,0.0,0.0,0.0,5.7124,0.0,0.0,0.0,5.8082,5.7902,5.889,5.883,5.889,5.9934,6.0924,6.1702,6.2061,6.4006,6.5503,6.5503,6.694,6.8137,6.8435,6.8197,6.8137,6.8496,6.7567,6.7119,6.7479,6.7508,6.7808,6.8435,6.9123,6.8884,6.7568,6.8465,6.8345,6.6999,6.6999,6.6999,6.6999,6.7359,6.7688,6.8017,6.8675,6.9363,7.0021,7.0649,7.1196,7.1718,7.2709,7.3658,7.4468,7.4642,7.4796,7.502,7.5387,7.5707,7.6029,7.6204,7.636,7.6554,7.686,7.6983,7.6983,7.6983,7.6983,7.6983,7.6983,7.6983,7.6983,7.6983,7.6983,7.6983,7.6983,7.6983,7.6983,7.6983,7.6983,7.7212,7.7831,7.8973,8.005,8.068,8.1007,8.1517,8.2567,8.2927,8.3245,8.358,8.4197,8.4614,8.4614,8.4614,8.4614,8.4614,8.4614,8.4614,8.4614,8.4614,8.4614,8.4614,8.4614,8.4979,8.5784,8.6535,8.6738,8.6332,8.5587,8.4986,8.4614,8.4614,8.4614,0.0,0.0,0.0,0.0,0.0,5.712,0.0,0.0,0.0,5.8351,5.7663,5.7363,5.886,5.9787,6.0475,6.0894,6.3378,6.4844,6.3617,6.5533,6.7149,6.7389,6.7538,6.7688,6.7808,6.697,6.6789,6.7748,6.6939,6.7059,6.8525,6.8854,6.8675,6.8017,6.8645,6.8405,6.7178,6.7059,6.7059,6.7178,6.7748,6.8137,6.8407,6.8944,6.9542,7.0233,7.0829,7.1561,7.2423,7.3747,7.4456,7.472,7.4707,7.4901,7.5289,7.5805,7.6321,7.6752,7.6587,7.6686,7.6917,7.6983,7.6983,7.6983,7.6983,7.6983,7.6983,7.6983,7.6983,7.6983,7.6983,7.6983,7.6983,7.6983,7.6983,7.6983,7.6983,7.6983,7.7081,7.7312,7.9035,8.05,8.0769,8.1857,8.243,8.1621,8.3054,8.3953,8.3171,8.3981,8.4614,8.4614,8.4614,8.4614,8.4614,8.4614,8.4614,8.4614,8.4614,8.4614,8.4614,8.4749,8.5283,8.6224,8.6805,8.711,8.711,8.6366,8.5587,8.4817,8.4681,8.4614,0.0,0.0,0.0,0.0,5.8441,0.0,0.0,0.0,5.7723,5.6731,0.0,5.6192,5.5807,0.0,0.0,5.6941,6.0057,6.2271,6.1525,6.272,6.4066,6.5203,6.5892,6.646,6.7059,6.5413,6.5114,6.6969,6.5383,6.5173,6.7119,6.8345,6.8675,6.8017,6.8645,6.8645,6.7898,6.7329,6.7329,6.7898,6.7958,6.8616,6.9784,6.9842,7.0201,7.0829,7.1487,7.1849,7.2062,7.341,7.3983,7.411,7.5288,7.5799,7.5926,7.5987,7.6021,7.6057,7.6391,7.6521,7.662,7.6884,7.6983,7.6983,7.6983,7.6983,7.6983,7.6983,7.6983,7.6983,7.6983,7.6983,7.6983,7.6983,7.6983,7.6983,7.6983,7.6983,7.7312,7.8439,7.8942,7.9469,8.059,8.1857,8.3026,8.4035,8.3448,8.3282,8.4251,8.45,8.4614,8.4614,8.4614,8.4614,8.4614,8.4614,8.4614,8.4614,8.4614,8.4614,8.4614,8.5283,8.6298,8.7719,8.782,8.7888,8.7854,8.7144,8.6399,8.5621,8.4918,8.4614,0.0,0.0,0.0,0.0,0.0,0.0,0.0,0.0,5.6376,0.0,0.0,0.0,0.0,0.0,0.0,0.0,5.9668,6.1164,6.0086,6.1433,6.3139,6.4785,6.4605,6.4874,6.6281,6.4964,6.4844,6.6849,6.5144,6.4874,6.6879,6.7897,6.8106,6.7449,6.8435,6.8495,6.7449,6.7538,6.7718,6.7987,6.8407,6.9064,7.0053,7.0772,7.1218,7.1517,7.2595,7.3043,7.3133,7.4061,7.4484,7.4514,7.509,7.5583,7.592,7.5718,7.6021,7.6523,7.6521,7.662,7.6818,7.695,7.6983,7.6983,7.6983,7.6983,7.6983,7.6983,7.6983,7.6983,7.6983,7.6983,7.6983,7.6983,7.6983,7.6983,7.6983,7.7573,7.8248,7.8785,8.008,8.1274,8.1828,8.2345,8.3143,8.4419,8.4143,8.4008,8.4526,8.4614,8.4614,8.4614,8.4614,8.4614,8.4614,8.4614,8.4614,8.4614,8.4614,8.4783,8.5283,8.5621,8.6298,8.7347,8.738,8.7583,8.7989,8.6839,8.6095,8.5784,8.4952,8.4614,5.8052,0.0,0.0,0.0,0.0,0.0,0.0,0.0,0.0,0.0,0.0,0.0,0.0,0.0,0.0,0.0,0.0,6.0146,5.9009,6.0086,6.1672,6.3468,6.3318,6.3647,6.5084,6.3647,6.3707,6.6251,6.4276,6.4036,6.658,6.7389,6.7688,6.7537,6.8495,6.8615,6.7807,6.8106,6.8377,6.8556,6.9034,6.9602,7.026,7.1368,7.1876,7.1966,7.3313,7.3881,7.3941,7.4599,7.4903,7.4903,7.4903,7.5244,7.5722,7.538,7.5819,7.6554,7.6421,7.6653,7.6983,7.6983,7.6983,7.6983,7.6983,7.6983,7.6983,7.6983,7.6983,7.6983,7.6983,7.6983,7.6983,7.6983,7.6983,7.6983,7.6983,7.7734,7.8502,7.8848,8.0382,8.1886,8.2605,8.297,8.3503,8.4446,8.4614,8.4614,8.4614,8.4614,8.4614,8.4614,8.4614,8.4614,8.4614,8.4614,8.4614,8.4614,8.4614,8.5053,8.6061,8.5689,8.6095,8.7482,8.711,8.738,8.8294,8.6805,8.6196,8.6366,8.5155,8.4614,0.0,0.0,0.0,5.8563,0.0,0.0,0.0,0.0,5.6705,0.0,0.0,0.0,0.0,0.0,0.0,0.0,0.0,0.0,0.0,5.8175,5.8713,6.0114,6.194,6.3138,6.3197,6.0805,6.0894,6.4755,6.2061,6.1912,6.5832,6.667,6.7597,6.8884,6.8974,6.9273,6.9903,6.9273,6.9273,6.9963,6.9963,7.029,7.0889,7.1577,7.1876,7.1966,7.3313,7.3881,7.3941,7.4599,7.4903,7.4903,7.4903,7.5108,7.538,7.504,7.5142,7.5516,7.5883,7.6452,7.6983,7.6983,7.6983,7.6983,7.6983,7.6983,7.6983,7.6983,7.6983,7.6983,7.6983,7.6983,7.6983,7.6983,7.6983,7.6983,7.6983,7.7016,7.7442,7.866,7.8973,7.9838,8.2259,8.3729,8.4526,8.458,8.4614,8.4614,8.4614,8.4614,8.4614,8.4614,8.4614,8.4614,8.4614,8.4614,8.4614,8.4614,8.4614,8.5256,8.6805,8.5425,8.6027,8.8998,8.7617,8.7617,8.9066,8.7583,8.7245,8.7888,8.5628,8.4614,0.0,0.0,6.1283,5.9279,0.0,0.0,0.0,0.0,0.0,0.0,0.0,0.0,0.0,0.0,0.0,0.0,0.0,0.0,0.0,5.8201,5.9099,5.9967,6.1463,6.2241,6.1822,6.0535,6.0685,6.2929,6.2061,6.257,6.5203,6.64,6.7388,6.8317,6.8764,6.9123,6.9333,6.9542,6.9752,7.0023,7.0023,7.053,7.1577,7.2265,7.2804,7.3253,7.4151,7.454,7.4604,7.4813,7.4903,7.4903,7.4903,7.4971,7.5074,7.5176,7.5617,7.6188,7.6521,7.6818,7.6983,7.6983,7.6983,7.6983,7.6983,7.6983,7.6983,7.6983,7.6983,7.6983,7.6983,7.6983,7.6983,7.6983,7.6983,7.6983,7.6983,7.767,7.8407,7.8817,8.0262,8.1683,8.2576,8.3756,8.4614,8.4614,8.4614,8.4614,8.4614,8.4614,8.4614,8.4614,8.4614,8.4614,8.4614,8.4614,8.5019,8.6034,8.5655,8.6061,8.7583,8.667,8.6839,8.8328,8.7414,8.738,8.8361,8.738,8.6771,8.6501,8.5757,8.5384,6.1253,6.1762,0.0,6.0266,6.0146,0.0,5.8201,0.0,0.0,0.0,0.0,0.0,0.0,0.0,0.0,0.0,0.0,0.0,0.0,5.8261,5.9338,5.9997,6.1074,6.1672,6.1493,6.0416,6.0386,6.1972,6.1642,6.2331,6.4516,6.5712,6.6909,6.8317,6.8525,6.8974,6.9662,6.9871,7.0081,7.032,7.056,7.1131,7.1906,7.2834,7.3492,7.3941,7.4634,7.4903,7.4903,7.4903,7.4903,7.4903,7.4903,7.4903,7.4903,7.5142,7.5583,7.6188,7.6653,7.6818,7.6851,7.695,7.6983,7.6983,7.6983,7.6983,7.6983,7.6983,7.6983,7.6983,7.6983,7.6983,7.6983,7.6983,7.6983,7.7114,7.7604,7.8343,7.916,8.008,8.1596,8.283,8.331,8.4062,8.4614,8.4614,8.4614,8.4614,8.4614,8.4614,8.4614,8.4614,8.4614,8.4614,8.4614,8.485,8.5351,8.6034,8.6163,8.6602,8.7583,8.7144,8.738,8.8361,8.7685,8.7651,8.8395,8.7651,8.7042,8.6569,8.6054,8.5817]}]]